[[{"header":{"parameterUnit":"m.s-1","parameterCategory":1,"la1":30.6,"la2":28.766,"lo1":-90.7593,"lo2":-88.6598,"dy":0.0162,"dx":0.0183,"nx":116,"ny":114,"refTime":"2023-04-18T12:00:00:Z","depth":0,"parameterNumber":2,"parameterNumberName":"U-component_of_WINDS"},"data":[0.0,0.0,0.0,0.0,0.0,0.0,0.0,0.0,0.0,0.0,0.0,0.0,0.0,0.0,0.0,0.0,0.0,0.0,0.0,0.0,0.0,0.0,0.0,0.0,0.0,0.0,0.0,0.0,0.0,0.0,0.0,0.0,0.0,0.0,0.0,0.0,0.0,0.0,0.0,0.0,0.0,0.0,0.0,0.0,0.0,0.0,0.0,0.0,0.0,0.0,0.0,0.0,0.0,0.0,0.0,0.0,0.0,0.0,0.0,0.0,0.0,0.0,0.0,0.0,0.0,0.0,0.0,0.0,0.0,0.0,0.0,0.0,0.0,0.0,0.0,0.0,0.0,0.0,0.0,0.0,0.0,0.0,0.0,0.0,0.0,0.0,0.0,0.0,0.0,0.0,0.0,0.0,0.0,0.0,0.0,0.0,0.0,0.0,0.0,0.0,0.0,0.0,0.0,0.0,0.0,0.0,0.0,0.0,0.0,0.0,0.0,0.0,0.0,0.0,0.0,0.0,0.0,0.0,0.0,0.0,0.0,0.0,0.0,0.0,0.0,0.0,0.0,0.0,0.0,0.0,0.0,0.0,0.0,0.0,0.0,0.0,0.0,0.0,0.0,0.0,0.0,0.0,0.0,0.0,0.0,0.0,0.0,0.0,0.0,0.0,0.0,0.0,0.0,0.0,0.0,0.0,0.0,0.0,0.0,0.0,0.0,0.0,0.0,0.0,0.0,0.0,0.0,0.0,0.0,0.0,0.0,0.0,0.0,0.0,0.0,0.0,0.0,0.0,0.0,0.0,0.0,0.0,0.0,0.0,0.0,0.0,0.0,0.0,0.0,0.0,0.0,0.0,0.0,0.0,0.0,0.0,0.0,0.0,0.0,0.0,0.0,0.0,0.0,0.0,0.0,0.0,0.0,0.0,0.0,0.0,0.0,0.0,0.0,0.0,0.0,0.0,0.0,0.0,0.0,0.0,0.0,0.0,0.0,0.0,0.0,0.0,0.0,0.0,0.0,0.0,0.0,0.0,0.0,0.0,0.0,0.0,0.0,0.0,0.0,0.0,0.0,0.0,0.0,0.0,0.0,0.0,0.0,0.0,0.0,0.0,0.0,0.0,0.0,0.0,0.0,0.0,0.0,0.0,0.0,0.0,0.0,0.0,0.0,0.0,0.0,0.0,0.0,0.0,0.0,0.0,0.0,0.0,0.0,0.0,0.0,0.0,0.0,0.0,0.0,0.0,0.0,0.0,0.0,0.0,0.0,0.0,0.0,0.0,0.0,0.0,0.0,0.0,0.0,0.0,0.0,0.0,0.0,0.0,0.0,0.0,0.0,0.0,0.0,0.0,0.0,0.0,0.0,0.0,0.0,0.0,0.0,0.0,0.0,0.0,0.0,0.0,0.0,0.0,0.0,0.0,0.0,0.0,0.0,0.0,0.0,0.0,0.0,0.0,0.0,0.0,0.0,0.0,0.0,0.0,0.0,0.0,0.0,0.0,0.0,0.0,0.0,0.0,0.0,0.0,0.0,0.0,0.0,0.0,0.0,0.0,0.0,0.0,0.0,0.0,0.0,0.0,0.0,0.0,0.0,0.0,0.0,0.0,0.0,0.0,0.0,0.0,0.0,0.0,0.0,0.0,0.0,0.0,0.0,0.0,0.0,0.0,0.0,0.0,0.0,0.0,0.0,0.0,0.0,0.0,0.0,0.0,0.0,0.0,0.0,0.0,0.0,0.0,0.0,0.0,0.0,0.0,0.0,0.0,0.0,0.0,0.0,0.0,0.0,0.0,0.0,0.0,0.0,0.0,0.0,0.0,0.0,0.0,0.0,0.0,0.0,0.0,0.0,0.0,0.0,0.0,0.0,0.0,0.0,0.0,0.0,0.0,0.0,0.0,0.0,0.0,0.0,0.0,0.0,0.0,0.0,0.0,0.0,0.0,0.0,0.0,0.0,0.0,0.0,0.0,0.0,0.0,0.0,0.0,0.0,0.0,0.0,0.0,0.0,0.0,0.0,0.0,0.0,0.0,0.0,0.0,0.0,0.0,0.0,0.0,0.0,0.0,0.0,0.0,0.0,0.0,0.0,0.0,0.0,0.0,0.0,0.0,0.0,0.0,0.0,0.0,0.0,0.0,0.0,0.0,0.0,0.0,0.0,0.0,0.0,0.0,0.0,0.0,0.0,0.0,0.0,0.0,0.0,0.0,0.0,0.0,0.0,0.0,0.0,0.0,0.0,0.0,0.0,0.0,0.0,0.0,0.0,0.0,0.0,0.0,0.0,0.0,0.0,0.0,0.0,0.0,0.0,0.0,0.0,0.0,0.0,0.0,0.0,0.0,0.0,0.0,0.0,0.0,0.0,0.0,0.0,0.0,0.0,0.0,0.0,0.0,0.0,0.0,0.0,0.0,0.0,0.0,0.0,0.0,0.0,0.0,0.0,0.0,0.0,0.0,0.0,0.0,0.0,0.0,0.0,0.0,0.0,0.0,0.0,0.0,0.0,0.0,0.0,0.0,0.0,0.0,0.0,0.0,0.0,0.0,0.0,0.0,0.0,0.0,0.0,0.0,0.0,0.0,0.0,0.0,0.0,0.0,0.0,0.0,0.0,0.0,0.0,0.0,0.0,0.0,0.0,0.0,0.0,0.0,0.0,0.0,0.0,0.0,0.0,0.0,0.0,0.0,0.0,0.0,0.0,0.0,0.0,0.0,0.0,0.0,0.0,0.0,0.0,0.0,0.0,0.0,0.0,0.0,0.0,0.0,0.0,0.0,0.0,0.0,0.0,0.0,0.0,0.0,0.0,0.0,0.0,0.0,0.0,0.0,0.0,0.0,0.0,0.0,0.0,0.0,0.0,0.0,0.0,0.0,0.0,0.0,0.0,0.0,0.0,0.0,0.0,0.0,0.0,0.0,0.0,0.0,0.0,0.0,0.0,0.0,0.0,0.0,0.0,0.0,0.0,0.0,0.0,0.0,0.0,0.0,0.0,0.0,0.0,0.0,0.0,0.0,0.0,0.0,0.0,0.0,0.0,0.0,0.0,0.0,0.0,0.0,0.0,0.0,0.0,0.0,0.0,0.0,0.0,0.0,0.0,0.0,0.0,0.0,0.0,0.0,0.0,0.0,0.0,0.0,0.0,0.0,0.0,0.0,0.0,0.0,0.0,0.0,0.0,0.0,0.0,0.0,0.0,0.0,0.0,0.0,0.0,0.0,0.0,0.0,0.0,0.0,0.0,0.0,0.0,0.0,0.0,0.0,0.0,0.0,0.0,0.0,0.0,0.0,0.0,0.0,0.0,0.0,0.0,0.0,0.0,0.0,0.0,0.0,0.0,0.0,0.0,0.0,0.0,0.0,0.0,0.0,0.0,0.0,0.0,0.0,0.0,0.0,0.0,0.0,0.0,0.0,0.0,0.0,0.0,0.0,0.0,0.0,0.0,0.0,0.0,0.0,0.0,0.0,0.0,0.0,0.0,0.0,0.0,0.0,0.0,0.0,0.0,0.0,0.0,0.0,0.0,0.0,0.0,0.0,0.0,0.0,0.0,0.0,0.0,0.0,0.0,0.0,0.0,0.0,0.0,0.0,0.0,0.0,0.0,0.0,0.0,0.0,0.0,0.0,0.0,0.0,0.0,0.0,0.0,0.0,0.0,0.0,0.0,0.0,0.0,0.0,0.0,0.0,0.0,0.0,0.0,0.0,0.0,0.0,0.0,0.0,0.0,0.0,0.0,0.0,0.0,0.0,0.0,0.0,0.0,0.0,0.0,0.0,0.0,0.0,0.0,0.0,0.0,0.0,0.0,0.0,0.0,0.0,0.0,0.0,0.0,0.0,0.0,0.0,0.0,0.0,0.0,0.0,0.0,0.0,0.0,0.0,0.0,0.0,0.0,0.0,0.0,0.0,0.0,0.0,0.0,0.0,0.0,0.0,0.0,0.0,0.0,0.0,0.0,0.0,0.0,0.0,0.0,0.0,0.0,0.0,0.0,0.0,0.0,0.0,0.0,0.0,0.0,0.0,0.0,0.0,0.0,0.0,0.0,0.0,0.0,0.0,0.0,0.0,0.0,0.0,0.0,0.0,0.0,0.0,0.0,0.0,0.0,0.0,0.0,0.0,0.0,0.0,0.0,0.0,0.0,0.0,0.0,0.0,0.0,0.0,0.0,0.0,0.0,0.0,0.0,0.0,0.0,0.0,0.0,0.0,0.0,0.0,0.0,0.0,0.0,0.0,0.0,0.0,0.0,0.0,0.0,0.0,0.0,0.0,0.0,0.0,0.0,0.0,0.0,0.0,0.0,0.0,0.0,0.0,0.0,0.0,0.0,0.0,0.0,0.0,0.0,0.0,0.0,0.0,0.0,0.0,0.0,0.0,0.0,0.0,0.0,0.0,0.0,0.0,0.0,0.0,0.0,0.0,0.0,0.0,0.0,0.0,0.0,0.0,0.0,0.0,0.0,0.0,0.0,0.0,0.0,0.0,0.0,0.0,0.0,0.0,0.0,0.0,0.0,0.0,0.0,0.0,0.0,0.0,0.0,0.0,0.0,0.0,0.0,0.0,0.0,0.0,0.0,0.0,0.0,0.0,0.0,0.0,0.0,0.0,0.0,0.0,0.0,0.0,0.0,0.0,0.0,0.0,0.0,0.0,0.0,0.0,0.0,0.0,0.0,0.0,0.0,0.0,0.0,0.0,0.0,0.0,0.0,0.0,0.0,0.0,0.0,0.0,0.0,0.0,0.0,0.0,0.0,0.0,0.0,0.0,0.0,0.0,0.0,0.0,0.0,0.0,0.0,0.0,0.0,0.0,0.0,0.0,0.0,0.0,0.0,0.0,0.0,0.0,0.0,0.0,0.0,0.0,0.0,0.0,0.0,0.0,0.0,0.0,0.0,0.0,0.0,0.0,0.0,0.0,0.0,0.0,0.0,0.0,0.0,0.0,0.0,0.0,0.0,0.0,0.0,0.0,0.0,0.0,0.0,0.0,0.0,0.0,0.0,0.0,0.0,0.0,0.0,0.0,0.0,0.0,0.0,0.0,0.0,0.0,0.0,0.0,0.0,0.0,0.0,0.0,0.0,0.0,0.0,0.0,0.0,0.0,0.0,0.0,0.0,0.0,0.0,0.0,0.0,0.0,0.0,0.0,0.0,0.0,0.0,0.0,0.0,0.0,0.0,0.0,0.0,0.0,0.0,0.0,0.0,0.0,0.0,0.0,0.0,0.0,0.0,0.0,0.0,0.0,0.0,0.0,0.0,0.0,0.0,0.0,0.0,0.0,0.0,0.0,0.0,0.0,0.0,0.0,0.0,0.0,0.0,0.0,0.0,0.0,0.0,0.0,0.0,0.0,0.0,0.0,0.0,0.0,0.0,0.0,0.0,0.0,0.0,0.0,0.0,0.0,0.0,0.0,0.0,0.0,0.0,0.0,0.0,0.0,0.0,0.0,0.0,0.0,0.0,0.0,0.0,0.0,0.0,0.0,0.0,0.0,0.0,0.0,0.0,0.0,0.0,0.0,0.0,0.0,0.0,0.0,0.0,0.0,0.0,0.0,0.0,0.0,0.0,0.0,0.0,0.0,0.0,0.0,0.0,0.0,0.0,0.0,0.0,0.0,0.0,0.0,0.0,0.0,0.0,0.0,0.0,0.0,0.0,0.0,0.0,0.0,0.0,0.0,0.0,0.0,0.0,0.0,0.0,0.0,0.0,0.0,0.0,0.0,0.0,0.0,0.0,0.0,0.0,0.0,0.0,0.0,0.0,0.0,0.0,0.0,0.0,0.0,0.0,0.0,0.0,0.0,0.0,0.0,0.0,0.0,0.0,0.0,0.0,0.0,0.0,0.0,0.0,0.0,0.0,0.0,0.0,0.0,0.0,0.0,0.0,0.0,0.0,0.0,0.0,0.0,0.0,0.0,0.0,0.0,0.0,0.0,0.0,0.0,0.0,0.0,0.0,0.0,0.0,0.0,0.0,0.0,0.0,0.0,0.0,0.0,0.0,0.0,0.0,0.0,0.0,0.0,0.0,0.0,0.0,0.0,0.0,0.0,0.0,0.0,0.0,0.0,0.0,0.0,0.0,0.0,0.0,0.0,0.0,0.0,0.0,0.0,-1.5091,0.0,0.0,0.0,0.0,0.0,0.0,0.0,0.0,0.0,0.0,0.0,0.0,0.0,0.0,0.0,0.0,0.0,0.0,0.0,0.0,0.0,0.0,0.0,0.0,0.0,0.0,0.0,0.0,0.0,0.0,0.0,0.0,0.0,0.0,0.0,0.0,0.0,0.0,0.0,-2.6516,-2.6339,-2.4505,-2.4702,-2.4108,-2.2808,0.0,0.0,0.0,0.0,0.0,0.0,0.0,0.0,0.0,0.0,0.0,0.0,0.0,0.0,0.0,0.0,0.0,0.0,0.0,0.0,0.0,0.0,0.0,0.0,0.0,0.0,0.0,0.0,0.0,0.0,0.0,0.0,0.0,0.0,0.0,0.0,0.0,0.0,0.0,0.0,0.0,0.0,0.0,0.0,0.0,0.0,0.0,0.0,0.0,0.0,0.0,0.0,0.0,0.0,0.0,0.0,0.0,0.0,0.0,0.0,0.0,0.0,0.0,0.0,0.0,0.0,0.0,0.0,0.0,0.0,0.0,-1.6267,0.0,0.0,0.0,0.0,0.0,0.0,0.0,0.0,0.0,0.0,0.0,0.0,0.0,0.0,0.0,0.0,0.0,0.0,0.0,0.0,0.0,0.0,0.0,0.0,0.0,0.0,0.0,0.0,0.0,0.0,0.0,0.0,0.0,0.0,0.0,0.0,0.0,-2.6635,-2.8086,-2.7951,-2.6305,-2.555,-2.4547,-2.3295,-2.3095,0.0,0.0,0.0,0.0,0.0,0.0,0.0,0.0,0.0,0.0,0.0,0.0,0.0,0.0,0.0,0.0,0.0,0.0,0.0,0.0,0.0,0.0,0.0,0.0,0.0,0.0,0.0,0.0,0.0,0.0,0.0,0.0,0.0,0.0,0.0,0.0,0.0,0.0,0.0,0.0,0.0,0.0,0.0,0.0,0.0,0.0,0.0,0.0,0.0,0.0,0.0,0.0,0.0,0.0,0.0,0.0,0.0,0.0,0.0,0.0,0.0,0.0,0.0,-2.1543,-2.1678,-2.1541,-2.2012,-2.1777,-2.0937,-1.9484,-1.7998,-1.6617,0.0,0.0,0.0,0.0,0.0,0.0,0.0,0.0,0.0,0.0,0.0,0.0,0.0,0.0,0.0,0.0,0.0,0.0,0.0,0.0,0.0,0.0,0.0,0.0,0.0,0.0,0.0,0.0,0.0,0.0,0.0,0.0,0.0,0.0,-2.6395,-2.723,-2.7184,-2.798,-2.873,-2.9284,-2.7613,-2.6686,-2.64,-2.3727,-2.3203,-2.418,0.0,0.0,0.0,0.0,0.0,0.0,0.0,0.0,0.0,0.0,0.0,0.0,0.0,0.0,0.0,0.0,0.0,0.0,0.0,0.0,0.0,0.0,0.0,0.0,0.0,0.0,0.0,0.0,0.0,0.0,0.0,0.0,0.0,0.0,0.0,0.0,0.0,0.0,0.0,0.0,0.0,-2.1636,-2.2138,0.0,0.0,0.0,0.0,0.0,0.0,0.0,0.0,0.0,0.0,0.0,0.0,0.0,-2.29,-2.2699,-2.2695,-2.2691,-2.2769,-2.3613,-2.3613,-2.2973,-2.334,-2.3262,-2.275,-2.2504,0.0,-1.8789,-1.7615,0.0,0.0,0.0,0.0,0.0,0.0,0.0,0.0,0.0,0.0,0.0,0.0,0.0,0.0,0.0,0.0,0.0,0.0,0.0,0.0,0.0,0.0,0.0,0.0,0.0,0.0,0.0,0.0,0.0,0.0,0.0,0.0,-2.5869,-2.6884,-2.7984,-2.9165,-3.0696,-3.1357,-3.1185,-3.0673,-2.9702,-2.8195,-2.6651,-2.524,-2.4004,-2.3223,0.0,0.0,0.0,0.0,0.0,0.0,0.0,0.0,0.0,0.0,0.0,0.0,0.0,0.0,0.0,0.0,0.0,0.0,0.0,0.0,0.0,0.0,0.0,0.0,0.0,0.0,0.0,0.0,0.0,0.0,0.0,0.0,0.0,0.0,0.0,0.0,0.0,0.0,0.0,-2.2599,-2.3627,-2.3137,-2.3231,-2.3547,0.0,0.0,0.0,0.0,0.0,0.0,0.0,0.0,0.0,-2.4387,-2.4637,-2.4492,-2.3867,-2.4102,-2.4355,-2.4563,-2.4933,-2.4961,-2.4609,-2.4531,-2.4551,-2.4524,-2.4017,-2.3223,-2.2051,-2.0547,-1.9687,-1.928,0.0,0.0,0.0,0.0,-1.8746,-1.8867,0.0,0.0,0.0,0.0,0.0,0.0,0.0,0.0,0.0,0.0,0.0,0.0,0.0,0.0,0.0,-2.9072,0.0,0.0,0.0,0.0,0.0,0.0,0.0,-2.6159,-2.6951,-2.7869,-2.9269,-3.1141,-3.3271,-3.402,-3.3489,-3.3717,-3.2591,-3.0349,-2.96,-2.7538,-2.457,-2.3809,-2.3301,-2.2988,0.0,0.0,0.0,0.0,0.0,0.0,0.0,0.0,0.0,0.0,0.0,0.0,0.0,0.0,0.0,0.0,0.0,0.0,0.0,0.0,0.0,0.0,0.0,0.0,0.0,0.0,0.0,0.0,0.0,0.0,0.0,0.0,0.0,0.0,0.0,0.0,0.0,-2.5228,-2.5654,-2.3722,-2.4415,-2.504,0.0,0.0,0.0,0.0,0.0,0.0,-2.8245,-2.7478,-2.6615,-2.5767,-2.5946,-2.5691,-2.5078,-2.541,-2.5742,-2.6025,-2.6172,-2.6172,-2.6005,-2.584,-2.5859,-2.5986,-2.5371,-2.4961,-2.4609,-2.2793,-2.1465,-2.0586,-2.0605,-2.0683,-2.0742,-2.0527,-2.0507,-2.0586,0.0,0.0,0.0,0.0,0.0,0.0,0.0,0.0,0.0,0.0,0.0,0.0,0.0,0.0,-3.0779,-3.2331,-3.0854,-2.9754,0.0,0.0,0.0,0.0,-2.7687,-2.7987,-2.8024,-3.0102,-3.1656,-3.2602,-3.4459,-3.5934,-3.6914,-3.623,-3.5053,-3.3473,-3.1751,-2.9424,-2.6738,-2.5059,-2.4336,-2.4258,-2.3393,0.0,0.0,0.0,0.0,0.0,0.0,0.0,0.0,0.0,0.0,0.0,0.0,0.0,0.0,0.0,0.0,0.0,0.0,0.0,0.0,0.0,0.0,0.0,0.0,0.0,0.0,0.0,0.0,0.0,0.0,0.0,0.0,0.0,0.0,0.0,0.0,0.0,0.0,-2.4657,-2.6832,0.0,0.0,0.0,0.0,-2.9332,-3.0221,-3.0418,-2.9911,-2.8657,-2.7603,-2.6937,-2.6584,-2.6534,-2.6875,-2.6914,-2.6934,-2.6953,-2.7363,-2.7363,-2.6973,-2.7363,-2.7324,-2.6953,-2.6914,-2.6426,-2.546,-2.3315,-2.2441,-2.2266,-2.1075,-2.082,-2.1054,-2.0254,-2.0215,-2.0546,0.0,0.0,0.0,0.0,0.0,0.0,0.0,0.0,0.0,0.0,0.0,0.0,0.0,-3.2997,-3.37,-3.4339,-3.3496,-3.2215,-3.0432,0.0,0.0,0.0,-2.8487,-2.9302,-3.0708,-3.1278,-3.2734,-3.5053,-3.5868,-3.7168,-3.8793,-3.7536,-3.6144,-3.4696,-3.3124,-3.099,-2.8535,-2.6523,-2.5195,-2.4336,-2.3496,-2.3066,0.0,0.0,0.0,0.0,0.0,0.0,0.0,0.0,0.0,0.0,0.0,0.0,0.0,0.0,0.0,0.0,0.0,0.0,0.0,0.0,0.0,0.0,0.0,0.0,0.0,0.0,0.0,0.0,0.0,0.0,0.0,0.0,0.0,0.0,0.0,0.0,0.0,-2.9619,-2.9943,0.0,-2.7839,-2.7415,-2.7863,-2.9397,-2.9415,-2.951,-2.9934,-2.9064,-2.8608,-2.8652,-2.8242,-2.8086,-2.8242,-2.7969,-2.7832,-2.7832,-2.7988,-2.7988,-2.7832,-2.7715,-2.7734,-2.7812,-2.7246,-2.6836,-2.6484,-2.543,-2.4512,-2.3691,-2.3223,-2.2969,-2.2832,-2.2519,-2.2324,-2.2207,0.0,0.0,0.0,0.0,0.0,0.0,0.0,0.0,0.0,0.0,0.0,-2.9538,-3.3014,-3.4427,-3.5349,-3.5908,-3.4876,-3.3395,-3.1562,0.0,0.0,-2.8674,-2.8988,-3.0134,-3.205,-3.2856,-3.436,-3.6554,-3.7502,-3.8307,-3.8921,-3.8147,-3.665,-3.4515,-3.3678,-3.2142,-3.0117,-2.8574,-2.6816,-2.5,-2.416,-2.3887,-2.3783,0.0,0.0,0.0,0.0,0.0,0.0,0.0,0.0,0.0,0.0,0.0,0.0,0.0,0.0,0.0,0.0,0.0,0.0,0.0,0.0,0.0,0.0,0.0,0.0,0.0,0.0,0.0,0.0,0.0,0.0,0.0,0.0,0.0,0.0,0.0,-3.2868,-3.2341,-3.195,-3.1164,-2.983,-2.9212,-2.93,-3.0421,-3.0179,-3.0254,-3.0963,-2.9973,-2.9492,-2.9766,-2.9219,-2.8926,-2.8926,-2.8496,-2.8301,-2.8301,-2.8301,-2.8301,-2.8281,-2.8008,-2.8027,-2.8262,-2.7695,-2.7363,-2.7207,-2.6777,-2.5996,-2.5059,-2.4746,-2.4375,-2.3984,-2.3848,-2.3613,-2.3296,0.0,0.0,0.0,0.0,0.0,0.0,0.0,0.0,0.0,0.0,-2.6643,-2.9127,-3.305,-3.4438,-3.5653,-3.7056,-3.4695,-3.3111,-3.3043,-2.993,0.0,-2.8172,-2.9277,-3.0565,-3.1964,-3.4831,-3.6431,-3.6768,-3.9164,-3.9357,-3.7471,-3.797,-3.6392,-3.314,-3.3524,-3.2881,-3.1504,-3.1113,-2.9238,-2.6465,-2.5527,-2.5391,-2.5518,0.0,0.0,0.0,0.0,0.0,0.0,0.0,0.0,0.0,0.0,0.0,0.0,0.0,0.0,0.0,0.0,0.0,0.0,0.0,0.0,0.0,0.0,0.0,0.0,0.0,0.0,0.0,0.0,0.0,0.0,0.0,0.0,0.0,-3.2037,-3.369,-3.4156,-3.2561,-3.2825,-3.2055,-2.927,-3.0953,-3.226,-3.2392,-3.2678,-3.2907,-3.3042,-3.1231,-3.0215,-3.0215,-2.9394,-2.8965,-2.8965,-2.8535,-2.832,-2.832,-2.8301,-2.8301,-2.8301,-2.8301,-2.8301,-2.8301,-2.8301,-2.8047,-2.7689,-2.7207,-2.6777,-2.6309,-2.543,-2.4805,-2.4355,-2.3965,-2.3789,-2.3711,0.0,0.0,0.0,0.0,0.0,0.0,0.0,0.0,0.0,0.0,-2.7418,-3.0228,-3.292,-3.5238,-3.6593,-3.6606,-3.4469,-3.2893,-3.2491,0.0,0.0,-2.9854,-3.1361,-3.2808,-3.4122,-3.4175,-3.4841,-3.6154,-3.6116,-3.6362,-3.6816,-3.5905,-3.4984,-3.4026,-3.3012,-3.2395,-3.1973,-3.1875,-3.1152,-2.9922,-2.7865,-2.666,-2.6094,0.0,0.0,0.0,0.0,0.0,0.0,0.0,0.0,0.0,0.0,0.0,0.0,0.0,0.0,0.0,0.0,0.0,0.0,0.0,0.0,0.0,0.0,0.0,0.0,0.0,0.0,0.0,0.0,0.0,0.0,0.0,0.0,-3.3432,-3.4007,-3.3912,-3.3759,-3.3671,-3.3886,-3.342,-3.1898,-3.1999,-3.2197,-3.2256,-3.2018,-3.1898,-3.1957,-3.1151,-3.0703,-3.0703,-3.0137,-2.9844,-2.9844,-2.9121,-2.875,-2.875,-2.8437,-2.8301,-2.8301,-2.8301,-2.8301,-2.8301,-2.8301,-2.8047,-2.7708,-2.7539,-2.7051,-2.6328,-2.5762,-2.5078,-2.4414,-2.4277,-2.3848,-2.3257,0.0,0.0,0.0,0.0,0.0,0.0,0.0,0.0,0.0,0.0,-2.7218,-3.0181,-3.2164,-3.4424,-3.568,-3.5353,-3.352,-3.1938,-3.0909,0.0,0.0,-3.1185,-3.2893,-3.4462,-3.5916,-3.517,-3.5482,-3.6842,-3.5813,-3.5475,-3.5671,-3.5045,-3.4295,-3.3435,-3.2751,-3.2422,-3.2422,-3.2422,-3.2285,-3.1914,-3.041,-2.9199,-2.8125,-2.6699,-2.6367,-2.6543,-2.5508,-2.5508,-2.5859,-2.4922,0.0,0.0,0.0,0.0,0.0,0.0,0.0,0.0,0.0,0.0,0.0,0.0,0.0,0.0,0.0,0.0,0.0,0.0,0.0,0.0,0.0,0.0,0.0,0.0,-3.253,-3.4187,-3.5268,-3.459,-3.4361,-3.5307,-3.4718,-3.4,-3.3426,-3.2949,-3.2617,-3.2441,-3.2031,-3.1719,-3.1523,-3.1113,-3.0898,-3.0898,-3.043,-3.0195,-3.0195,-2.9531,-2.9199,-2.918,-2.875,-2.8555,-2.8555,-2.8379,-2.8301,0.0,-2.8301,-2.8164,-2.791,-2.7787,-2.7266,0.0,0.0,0.0,0.0,0.0,-2.3984,-2.3379,0.0,0.0,0.0,0.0,0.0,0.0,0.0,0.0,0.0,0.0,0.0,-2.9252,-3.0859,-3.2516,-3.352,-3.352,-3.2039,-3.0507,0.0,0.0,-3.0217,-3.2416,-3.4098,-3.5615,-3.6899,-3.672,-3.6908,-3.7409,-3.6645,-3.5561,-3.425,-3.4768,-3.4064,-3.2324,-3.2695,-3.2871,-3.2871,-3.291,-3.2949,-3.2949,-3.2988,-3.2187,-3.0762,-2.8828,-2.8496,-2.8906,-2.7676,-2.7051,-2.6738,-2.6211,0.0,0.0,0.0,0.0,0.0,0.0,0.0,0.0,0.0,0.0,0.0,0.0,0.0,0.0,0.0,0.0,0.0,0.0,0.0,0.0,0.0,0.0,0.0,0.0,-3.3353,-3.3703,-3.5894,-3.5376,-3.5294,-3.6704,-3.524,-3.4121,-3.4082,-3.373,-3.332,-3.2891,-3.2422,-3.1992,-3.1621,0.0,0.0,0.0,0.0,-3.0273,-3.0273,-2.9863,-2.9609,-2.957,-2.9121,-2.8906,-2.8828,-2.8457,-2.8301,-2.8301,-2.8301,-2.8301,-2.8262,-2.7891,-2.7441,-2.6973,-2.6445,-2.5977,-2.544,-2.4648,-2.4082,-2.3652,0.0,0.0,0.0,0.0,0.0,0.0,0.0,0.0,0.0,-2.297,-2.536,-2.7429,-2.8624,-3.0231,-3.126,-3.126,-3.0131,-2.9478,0.0,-3.0859,-3.2365,-3.4173,-3.583,-3.6332,-3.5519,-3.5863,-3.5181,-3.3352,-3.3518,-3.3435,-3.3149,-3.3585,-3.3556,-3.3184,-3.3262,-3.3301,-3.332,-3.3672,-3.3828,-3.3867,-3.4199,-3.3144,-3.1348,-3.0937,-3.043,-2.9824,-2.8887,-2.8945,-2.9297,-2.8164,-2.791,-2.7891,-2.707,0.0,0.0,0.0,0.0,0.0,0.0,0.0,0.0,0.0,0.0,0.0,0.0,0.0,0.0,0.0,0.0,0.0,0.0,0.0,0.0,-3.265,-3.4351,-3.556,-3.5554,-3.5106,-3.4848,-3.5106,-3.4825,-3.4453,-3.4101,-3.4004,-3.3769,-3.334,-3.2598,-3.2129,-3.2051,-3.1309,-3.0898,-3.0898,-3.0801,-3.0762,-3.0762,-3.0293,-2.9902,-2.957,0.0,0.0,-2.8418,-2.834,-2.8301,-2.8301,-2.8301,-2.8301,-2.8281,-2.8203,-2.7715,-2.6894,-2.5762,-2.5059,-2.4609,-2.4102,-2.3633,-2.3198,0.0,0.0,0.0,0.0,0.0,0.0,0.0,0.0,0.0,0.0,-2.4255,-2.6063,-2.7168,-2.8047,-2.8423,-2.8122,-2.7308,0.0,-3.0055,-3.1461,-3.3319,-3.5855,-3.7563,-3.7802,-3.6356,-3.6092,-3.5135,-3.3315,-3.279,-3.2695,-3.3105,-3.332,-3.3418,-3.3418,-3.3418,-3.3418,-3.3457,-3.3887,-3.4082,-3.4101,-3.4531,-3.3945,-3.2773,-3.2559,-3.1934,-3.1094,-3.0449,-3.0351,-3.0371,-2.9297,-2.8926,-2.8769,-2.793,-2.7121,-2.6241,0.0,0.0,0.0,0.0,0.0,0.0,0.0,0.0,0.0,0.0,0.0,0.0,0.0,0.0,-2.7806,0.0,0.0,-3.2811,-3.3517,-3.5027,-3.5956,-3.5485,-3.5195,-3.5137,-3.5332,-3.4785,-3.4394,-3.4394,-3.4004,-3.3652,-3.3437,-3.2637,-3.2229,-3.2229,-3.1348,-3.0898,-3.0898,-3.0898,-3.0898,-3.0898,-3.0664,-3.0449,-3.0215,-2.9766,-2.9453,-2.9238,-2.9023,-2.8809,-2.8613,-2.8613,-2.8496,-2.8262,-2.7832,-2.7285,-2.6621,-2.5742,-2.5273,-2.4953,-2.4336,-2.3965,-2.3666,0.0,0.0,0.0,0.0,0.0,0.0,0.0,0.0,0.0,0.0,-2.2924,-2.4506,-2.5418,-2.5619,-2.5544,0.0,0.0,0.0,-3.0532,-3.1989,-3.4148,-3.7362,-3.8919,-3.9072,-3.7816,-3.6557,-3.547,-3.4589,-3.2955,-3.2559,-3.3301,-3.3379,-3.3418,-3.3418,-3.3418,-3.3418,-3.3457,-3.3887,-3.4121,-3.4219,-3.457,-3.4492,-3.4141,-3.3613,-3.2949,-3.2226,-3.1699,-3.1133,-3.0547,-2.9902,-2.9355,-2.8828,-2.832,-2.8047,-2.7617,-2.6182,-2.5898,0.0,0.0,0.0,0.0,0.0,0.0,0.0,0.0,0.0,-2.7078,-2.8066,-2.8945,-2.9941,-3.1269,-3.25,-3.3633,-3.4668,-3.543,-3.5781,-3.5449,-3.5234,-3.5254,-3.5605,-3.4785,-3.4297,-3.4551,-3.3945,-3.3516,-3.3437,-3.2637,-3.2229,-3.2229,-3.1348,-3.0898,-3.0898,-3.0898,-3.0898,-3.0898,-3.0898,-3.084,-3.0762,-3.0371,-3.0156,-3.0059,-2.9726,-2.9336,-2.8906,-2.8828,-2.8613,-2.8242,-2.7461,-2.6894,-2.6465,-2.6035,-2.5771,-2.5596,-2.4844,-2.4434,-2.4199,0.0,0.0,0.0,0.0,0.0,0.0,0.0,0.0,0.0,0.0,0.0,0.0,0.0,0.0,0.0,0.0,0.0,-2.8222,-3.111,-3.3269,-3.5705,-3.8567,-3.932,-3.9417,-3.8753,-3.6557,-3.5316,-3.511,-3.3155,-3.2402,-3.2871,-3.3242,-3.3418,-3.3418,-3.3418,-3.3418,-3.3457,-3.3887,-3.4297,-3.4629,-3.4687,-3.4668,-3.4531,-3.373,-3.3125,-3.2617,-3.1816,-3.0742,-2.9822,-3.0039,-2.959,-2.9043,-2.9707,-2.9394,-2.8672,-2.8086,0.0,-2.5254,-2.5362,-2.5293,-2.5556,-2.7043,-2.6836,-2.7305,0.0,0.0,-3.123,-3.2461,-3.3379,-3.3926,-3.375,-3.4473,-3.5156,-3.5293,-3.5391,-3.5449,-3.541,-3.4707,-3.4238,-3.4277,-3.4492,-3.4492,-3.418,-3.4062,-3.3848,-3.3457,-3.2637,-3.2229,-3.2229,-3.1348,-3.0898,-3.0898,-3.0898,-3.0898,-3.0898,-3.0898,-3.0684,-3.0273,-3.0215,-3.0,-2.9704,-2.959,-2.9336,-2.8906,-2.8516,-2.834,-2.8262,-2.7793,-2.7344,-2.6894,-2.6484,-2.6074,-2.5635,-2.5176,-2.4512,-2.3848,0.0,0.0,0.0,0.0,0.0,0.0,0.0,0.0,0.0,0.0,0.0,0.0,0.0,0.0,0.0,0.0,-2.423,-2.7168,-3.0256,-3.3144,-3.5956,-3.8793,-3.9697,-3.912,-3.6838,-3.6115,-3.5027,-3.3478,-3.2611,-3.2519,-3.3164,-3.334,-3.3418,-3.3418,-3.3418,-3.3418,-3.3457,-3.3887,-3.418,-3.4316,-3.4062,-3.3945,-3.3769,-3.2168,-3.1289,-3.0879,-3.0508,-2.9863,0.0,0.0,-2.8437,-2.8613,-2.8984,-2.8848,-2.8418,-2.7754,-2.709,0.0,-2.7663,-2.7053,0.0,0.0,-2.9465,-2.9902,-3.1953,-3.2539,-3.291,-3.3945,-3.4668,-3.5137,-3.5195,-3.5723,-3.6055,0.0,-3.5762,-3.5586,-3.5059,-3.4238,-3.3516,-3.3027,-3.3125,-3.3359,-3.3672,-3.3476,-3.3359,-3.3418,-3.2871,-3.2422,-3.2187,-3.1582,-3.1133,-3.0898,-3.0898,-3.0898,-3.0898,-3.0898,-3.0801,-3.0605,-3.0605,-3.0508,-3.0332,-3.0332,-2.9961,-2.9258,-2.8594,-2.8164,-2.791,-2.7787,-2.7266,-2.6641,-2.6465,-2.6113,-2.5635,-2.5234,-2.4687,-2.4121,0.0,0.0,0.0,0.0,0.0,0.0,0.0,0.0,0.0,0.0,0.0,0.0,0.0,0.0,0.0,0.0,-2.2824,-2.5711,-2.89,-3.2064,-3.5102,-3.8089,-3.9245,-3.8575,-3.5945,-3.5924,-3.4891,-3.2855,-3.2273,-3.2363,-3.3066,-3.3066,-3.3144,-3.3242,-3.3242,-3.332,-3.3437,-3.3633,-3.3789,-3.3848,-3.3301,-3.3066,-3.2851,-3.0801,-2.9629,-2.9023,-2.8769,-2.8262,0.0,0.0,-2.6719,-2.7266,-2.7519,-2.7754,-2.7832,-2.7344,-2.7422,-2.7858,-2.8452,0.0,0.0,-3.0628,-3.1696,-3.2422,-3.3223,-3.3965,-3.4668,-3.5293,-3.5684,-3.5937,-3.6016,-3.6191,-3.6211,-3.5898,-3.5644,-3.5254,-3.4609,-3.3691,-3.2754,-3.1914,-3.1699,-3.1914,-3.2656,-3.2656,-3.2793,-3.3223,-3.2754,-3.2363,-3.2187,-3.1641,-3.1211,-3.0898,-3.0898,-3.0898,-3.0898,-3.0898,-3.0898,-3.0898,-3.0898,-3.0898,-3.0879,-3.0644,-3.0176,-2.9531,-2.8672,-2.8125,-2.7865,-2.763,-2.7129,-2.6543,-2.6309,-2.6016,-2.5635,-2.5234,-2.4785,-2.4355,0.0,0.0,0.0,0.0,0.0,0.0,0.0,0.0,0.0,0.0,0.0,0.0,0.0,0.0,0.0,-1.9836,-2.1866,-2.4349,-2.7168,-2.9955,-3.2968,-3.6329,-3.7487,-3.7887,-3.7453,-3.6077,-3.5053,-3.4442,-3.2475,-3.1758,-3.2268,-3.2268,-3.2422,-3.2812,-3.2812,-3.3047,-3.3398,-3.3008,-3.3066,-3.3379,-3.2539,-3.2268,-3.2012,-3.0311,-2.8809,-2.7669,-2.6777,0.0,0.0,0.0,-2.4512,-2.4687,-2.5499,-2.6337,0.0,-2.7519,-2.7708,-2.7532,0.0,0.0,-2.9959,-3.17,-3.3109,-3.4434,-3.6152,-3.6875,-3.7187,-3.7207,-3.7226,-3.6992,-3.6172,-3.5703,-3.543,-3.541,-3.4687,-3.4121,-3.4101,-3.3008,-3.1894,-3.1035,-3.0527,-3.0449,0.0,-3.1719,-3.2363,-3.2793,-3.2031,-3.1738,-3.2209,-3.1367,-3.0898,-3.0898,-3.0898,-3.0898,-3.0898,-3.0898,-3.0898,-3.0898,-3.0898,-3.0898,-3.0859,-3.0,-2.9646,-2.9531,-2.8672,-2.8281,-2.8203,-2.7383,-2.7031,-2.6914,-2.6025,-2.5693,-2.5635,-2.5234,-2.4785,-2.4355,0.0,0.0,0.0,0.0,0.0,0.0,0.0,0.0,0.0,0.0,0.0,0.0,0.0,0.0,0.0,0.0,-2.1518,-2.3301,-2.4983,-2.8373,-3.116,-3.2993,-3.5203,-3.5478,-3.3536,-3.3366,-3.2641,-3.1248,-3.0559,-3.0605,-3.1328,-3.1601,-3.1816,-3.1953,-3.2246,-3.2461,-3.2578,-3.2441,-3.2285,-3.209,-3.1211,-3.0684,-3.0291,-2.8223,-2.6816,-2.581,0.0,0.0,0.0,-2.293,-2.3105,-2.3569,-2.3881,0.0,-2.5078,-2.6094,-2.6992,-2.8062,-2.9748,0.0,-3.2352,-3.4889,-3.5898,-3.6523,-3.7676,-3.7812,-3.7559,-3.6992,-3.5957,-3.4902,-3.4043,-3.3535,-3.334,-3.3613,-3.3887,-3.4082,-3.4082,-3.3457,-3.248,-3.1055,-3.0762,0.0,0.0,0.0,0.0,-3.2324,-3.2363,-3.2305,-3.2229,-3.1894,-3.1601,-3.1328,-3.1035,-3.0898,-3.0898,-3.0898,-3.0898,-3.0898,-3.0898,-3.0723,-3.041,-2.9844,-2.9414,-2.9101,-2.8535,-2.8125,-2.7851,-2.7559,-2.7109,-2.6562,-2.6289,-2.5996,-2.5635,-2.5234,-2.4785,-2.4355,0.0,0.0,0.0,0.0,0.0,0.0,0.0,0.0,0.0,0.0,0.0,0.0,0.0,0.0,0.0,0.0,0.0,0.0,-2.3326,-2.6113,-2.8298,-2.9578,-3.1464,-3.1557,-2.9661,-2.9916,-2.9395,-2.8022,-2.8125,-2.8574,-2.9297,-2.9707,-3.0078,-3.0371,-3.0664,-3.0957,-3.123,-3.0918,-3.0527,-3.0059,-2.918,-2.8476,-2.7826,-2.6094,-2.4922,0.0,0.0,0.0,0.0,-2.1836,-2.2207,-2.2906,-2.3042,-2.3705,-2.4687,-2.5684,-2.709,-2.9006,-3.1822,-3.3231,-3.455,-3.7051,-3.7858,-3.8086,-3.8476,-3.8008,-3.7148,-3.5976,-3.4355,-3.2793,-3.1621,-3.1074,-3.0976,-3.1543,-3.2226,-3.2851,-3.332,-3.2891,-3.2109,-3.1016,-3.0742,0.0,0.0,0.0,0.0,-3.1894,-3.2187,-3.2285,-3.2168,-3.2229,-3.1973,-3.1523,-3.125,-3.1055,-3.0898,-3.0898,-3.0898,-3.0898,-3.0898,-3.0644,-3.0176,-2.9766,-2.9336,-2.8906,-2.8476,-2.8047,-2.7708,-2.75,-2.7012,-2.6367,-2.6211,-2.5996,-2.5635,-2.5234,-2.4785,-2.4355,0.0,0.0,0.0,0.0,0.0,0.0,0.0,0.0,0.0,0.0,0.0,0.0,0.0,0.0,0.0,0.0,0.0,0.0,-2.2063,-2.3215,-2.4575,-2.6189,-2.6638,-2.6626,-2.6095,-2.5913,-2.555,-2.4949,-2.5352,-2.5801,-2.623,-2.666,-2.7305,-2.8086,-2.8125,-2.8594,-2.9372,-2.8516,-2.791,-2.7513,-2.6621,-2.5781,-2.4949,-2.4043,0.0,0.0,0.0,0.0,0.0,0.0,0.0,0.0,0.0,-2.4387,-2.5888,-2.6445,-2.8086,-3.0332,-3.2891,-3.4883,-3.6601,-3.8242,-3.8926,-3.9082,-3.8613,-3.748,-3.6035,-3.4277,-3.2519,-3.0801,0.0,0.0,-2.8516,-2.9394,-2.998,-3.0781,-3.209,-3.1601,-3.1094,0.0,0.0,0.0,0.0,0.0,0.0,-3.1562,0.0,-3.1738,-3.2187,-3.2207,-3.2012,-3.1562,-3.1523,-3.1328,-3.0898,-3.0898,-3.0898,-3.0898,-3.0898,-3.0644,-3.0156,-2.9746,-2.9316,-2.8867,-2.8457,-2.8047,-2.765,-2.7187,-2.6758,-2.6309,-2.5849,-2.5693,-2.5635,-2.5254,-2.4824,-2.4394,0.0,0.0,0.0,0.0,0.0,0.0,0.0,0.0,0.0,0.0,0.0,0.0,0.0,0.0,0.0,0.0,0.0,0.0,-1.9555,-2.1069,-2.2116,-2.2504,-2.4198,-2.4399,-2.2832,-2.3477,0.0,-2.2738,-2.3125,-2.3555,-2.403,-2.4414,-2.4902,-2.541,-2.5742,-2.6191,-2.668,-2.6465,-2.6133,-2.5732,0.0,-2.459,-2.4023,0.0,0.0,0.0,0.0,0.0,0.0,0.0,0.0,0.0,0.0,-2.5781,-2.7441,-2.8828,-3.0742,-3.293,-3.5215,-3.7344,-3.9004,-3.9453,-3.9375,-3.8926,-3.7871,-3.6133,-3.416,-3.2129,-3.0078,-2.8223,0.0,0.0,0.0,-2.8887,-3.0801,0.0,-3.3457,-3.3965,0.0,-3.2891,0.0,-3.248,-3.2168,-3.1953,0.0,0.0,-3.2187,-3.2187,-3.2617,-3.2637,-3.2441,-3.2012,-3.168,-3.1328,-3.0898,-3.0898,-3.0898,-3.0898,-3.0898,-3.0488,-2.9726,-2.9685,-2.916,-2.8437,-2.834,-2.7871,-2.7168,-2.707,-2.6582,-2.5898,-2.5732,-2.5693,-2.5674,-2.5557,-2.5293,-2.493,0.0,0.0,0.0,0.0,0.0,0.0,0.0,0.0,0.0,0.0,0.0,0.0,0.0,0.0,0.0,0.0,0.0,0.0,0.0,-1.9099,-1.9616,-1.9616,-2.0496,-2.0571,-1.9695,-2.0066,0.0,0.0,0.0,0.0,-2.1738,-2.2168,-2.2715,-2.332,-2.3555,-2.4004,-2.457,-2.4394,0.0,0.0,0.0,0.0,0.0,0.0,0.0,0.0,0.0,0.0,0.0,0.0,0.0,-2.5957,-2.6562,-2.8223,-3.0176,-3.1504,0.0,-3.5273,-3.7246,-3.8945,-4.0137,-3.9941,-3.9258,-3.8164,-3.6309,-3.4219,-3.2012,-2.9668,-2.7773,0.0,0.0,0.0,0.0,0.0,0.0,0.0,-3.3066,-3.3984,-3.4316,0.0,-3.3711,0.0,-3.3105,-3.2851,-3.2812,0.0,-3.2676,-3.2539,-3.2793,-3.2969,-3.2793,-3.2248,-3.1934,-3.1504,-3.0898,-3.0898,-3.0898,-3.0898,-3.0898,-3.0527,-2.9844,-2.9648,-2.9199,-2.8555,0.0,-2.7812,-2.7012,-2.7012,-2.6504,-2.5693,-2.5693,-2.5693,-2.5693,-2.5693,-2.5449,-2.5145,0.0,0.0,0.0,0.0,0.0,0.0,0.0,0.0,0.0,0.0,0.0,0.0,0.0,0.0,0.0,0.0,0.0,0.0,0.0,0.0,0.0,0.0,-1.6849,-1.6642,0.0,0.0,0.0,0.0,0.0,0.0,0.0,0.0,0.0,0.0,0.0,0.0,0.0,0.0,0.0,0.0,0.0,0.0,0.0,0.0,0.0,0.0,0.0,0.0,0.0,0.0,-2.6836,-2.8164,-2.9062,-3.1094,-3.332,-3.4238,-3.5644,-3.7285,-3.8926,-3.998,-4.0488,-3.9941,-3.8769,-3.707,-3.4414,-3.207,-2.9746,-2.7187,0.0,-2.4617,-2.3769,-2.4062,-2.4902,-2.6406,0.0,-3.0311,-3.2287,-3.3125,-3.3769,-3.4277,-3.4336,-3.418,-3.3809,-3.3711,-3.3652,-3.3594,-3.3203,-3.2949,-3.2871,-3.3164,-3.2949,-3.2109,-3.2031,-3.1641,-3.0898,-3.0898,-3.0898,-3.0898,-3.0898,-3.0644,-3.0176,-2.9766,-2.9336,-2.8906,0.0,0.0,-2.7109,-2.7109,-2.6602,-2.5771,-2.5771,-2.5732,-2.5693,-2.5693,-2.5488,-2.5215,0.0,0.0,0.0,0.0,0.0,0.0,0.0,0.0,0.0,0.0,-1.4297,-1.3224,0.0,0.0,0.0,0.0,0.0,0.0,0.0,0.0,0.0,0.0,-1.6567,-1.6239,0.0,0.0,0.0,0.0,0.0,0.0,0.0,0.0,0.0,0.0,0.0,0.0,0.0,0.0,0.0,0.0,0.0,0.0,0.0,0.0,0.0,0.0,0.0,0.0,0.0,0.0,-2.8125,-3.0,-3.1211,-3.3144,-3.5176,-3.6387,-3.7461,-3.8535,-3.9922,-4.0664,-4.0781,-3.9609,-3.8086,-3.6113,-3.3164,-3.0331,0.0,0.0,0.0,-2.334,-2.2832,-2.3652,-2.5195,-2.7578,0.0,0.0,0.0,0.0,-3.4785,0.0,0.0,0.0,0.0,0.0,0.0,0.0,0.0,-3.3691,-3.334,-3.3047,-3.2519,-3.166,-3.1289,-3.1035,-3.0898,-3.0898,-3.0898,-3.0898,-3.0898,-3.0644,-3.0176,-2.9766,-2.9336,-2.8906,-2.8476,0.0,-2.7559,-2.7559,-2.7051,-2.6269,-2.6269,-2.6055,-2.5693,-2.5693,-2.5635,-2.5625,0.0,0.0,0.0,0.0,0.0,0.0,0.0,-1.4827,-1.5338,-1.6467,-1.5594,-1.4707,-1.4219,-1.3938,-1.3958,0.0,0.0,0.0,0.0,0.0,0.0,0.0,0.0,0.0,0.0,0.0,0.0,0.0,0.0,0.0,0.0,0.0,0.0,0.0,0.0,0.0,0.0,0.0,0.0,0.0,0.0,0.0,0.0,0.0,0.0,0.0,0.0,0.0,0.0,0.0,-2.7578,-2.998,-3.2402,-3.4648,-3.6601,-3.7656,-3.8574,-3.9492,-4.0566,-4.1016,-4.0801,-3.9258,-3.7246,-3.4805,-3.1562,0.0,0.0,0.0,-2.3086,-2.2559,-2.2793,0.0,0.0,0.0,0.0,0.0,0.0,0.0,0.0,0.0,0.0,0.0,0.0,0.0,0.0,0.0,0.0,-3.3633,-3.3437,-3.2812,-3.2168,-3.1543,-3.1113,-3.0898,-3.0898,-3.0898,-3.0898,-3.0898,-3.0898,-3.0781,-3.0547,-3.0098,-2.9668,-2.9238,-2.8809,0.0,-2.7728,-2.7728,-2.7285,-2.6719,-2.6719,-2.6582,-2.6317,-2.6152,-2.6074,-2.6055,0.0,0.0,0.0,0.0,0.0,0.0,0.0,-1.5504,-1.6168,-1.7335,-1.7017,-1.6317,-1.5312,-1.4434,-1.3919,0.0,0.0,0.0,0.0,0.0,0.0,0.0,0.0,0.0,0.0,0.0,0.0,0.0,0.0,0.0,0.0,0.0,0.0,0.0,0.0,0.0,0.0,0.0,0.0,0.0,0.0,0.0,0.0,0.0,0.0,0.0,0.0,0.0,0.0,0.0,-2.6133,-2.8398,-3.166,-3.457,-3.6894,-3.7656,-3.8711,-3.9824,-4.0781,-4.1035,-4.0625,-3.8867,-3.6348,-3.3437,-3.0176,-2.6953,0.0,0.0,-2.2402,-2.2109,-2.2828,0.0,-2.4004,0.0,0.0,0.0,0.0,0.0,0.0,0.0,0.0,0.0,0.0,0.0,0.0,0.0,0.0,0.0,-3.3164,-3.2519,-3.1934,-3.1406,-3.1055,-3.0898,-3.0898,-3.0528,-3.0528,-3.0898,-3.0528,-3.0587,-3.0879,-3.0312,-2.9883,-2.9607,-2.9004,0.0,0.0,-2.7865,-2.7539,-2.7148,-2.7148,-2.709,-2.6973,-2.6641,-2.6465,-2.6348,0.0,0.0,0.0,0.0,0.0,0.0,0.0,-1.6643,-1.7606,-1.9782,-1.8108,-1.6648,-1.6531,-1.5732,-1.4785,0.0,0.0,0.0,0.0,0.0,0.0,0.0,0.0,0.0,0.0,0.0,0.0,0.0,0.0,0.0,0.0,0.0,0.0,0.0,0.0,0.0,0.0,0.0,0.0,0.0,0.0,0.0,0.0,0.0,0.0,0.0,0.0,0.0,0.0,0.0,0.0,-2.4727,-2.7454,-3.1328,-3.5039,-3.5547,0.0,0.0,-4.0234,-4.0586,-4.0176,-3.8418,-3.5449,-3.2266,-2.959,0.0,0.0,-2.2676,-2.2207,-2.2031,-2.248,-2.2867,-2.3705,0.0,0.0,0.0,0.0,0.0,0.0,0.0,0.0,0.0,0.0,0.0,0.0,0.0,0.0,0.0,-3.2324,-3.2268,-3.1797,-3.0976,-3.0918,-3.0898,-3.0898,-2.9394,-2.9394,-3.0898,-2.9353,-2.9412,-3.0859,-3.0019,-2.9609,-2.9531,-2.8711,0.0,0.0,-2.8242,-2.7988,-2.7669,-2.7669,-2.7363,-2.7012,-2.6973,-2.6719,-2.6387,0.0,0.0,0.0,0.0,0.0,0.0,-1.5664,-1.6387,-1.7416,-1.9109,-1.8454,-1.7662,-1.7187,-1.6328,-1.5176,-1.3633,0.0,0.0,0.0,0.0,0.0,0.0,0.0,0.0,0.0,0.0,0.0,0.0,0.0,0.0,0.0,0.0,0.0,0.0,0.0,0.0,0.0,0.0,0.0,0.0,0.0,0.0,0.0,0.0,0.0,0.0,0.0,0.0,0.0,0.0,0.0,0.0,-2.3945,-2.6543,0.0,0.0,-3.498,-3.6699,-3.8789,-3.9531,-3.9258,-3.7266,-3.4375,-3.1348,-2.875,0.0,-2.3042,-2.2886,-2.2363,-2.209,-2.2711,-2.2769,-2.3023,0.0,0.0,0.0,0.0,0.0,0.0,0.0,0.0,0.0,0.0,0.0,0.0,0.0,0.0,0.0,-3.2207,-3.2229,-3.1777,-3.0918,-3.0898,-3.0392,-2.9412,-2.8724,-2.8247,-2.7931,-2.7254,-2.7811,-2.9394,-2.8816,-2.8937,-2.9531,-2.8926,0.0,0.0,-2.8301,-2.8203,-2.8047,-2.8047,-2.793,-2.7754,-2.75,-2.7129,-2.6738,0.0,0.0,0.0,0.0,0.0,-1.4348,-1.5117,-1.6044,-1.7077,-1.8091,-1.811,-1.7818,-1.7246,-1.6172,-1.5,-1.3763,-1.3477,0.0,0.0,0.0,0.0,0.0,0.0,0.0,0.0,0.0,0.0,-1.5605,0.0,0.0,0.0,0.0,0.0,0.0,0.0,0.0,0.0,0.0,0.0,0.0,0.0,0.0,0.0,0.0,0.0,0.0,0.0,0.0,0.0,0.0,0.0,0.0,0.0,0.0,0.0,0.0,-3.2266,-3.4258,-3.6601,-3.7656,-3.7676,-3.6035,-3.3164,-3.0215,0.0,0.0,-2.2945,-2.3081,-2.2559,-2.2246,-2.2808,-2.2769,-2.2711,0.0,0.0,-2.3555,0.0,0.0,0.0,0.0,0.0,0.0,0.0,0.0,0.0,0.0,0.0,0.0,0.0,-3.2051,-3.1641,-3.0918,-3.0898,-3.0079,-2.8426,-2.7931,-2.7134,-2.5984,-2.5497,-2.6106,-2.7674,-2.7776,-2.821,-2.884,0.0,0.0,0.0,-2.8301,-2.8301,-2.8301,-2.8301,-2.8301,-2.8262,-2.7969,-2.7578,-2.7168,0.0,0.0,0.0,0.0,0.0,0.0,-1.4727,-1.5868,-1.6863,-1.7344,-1.7031,-1.6726,-1.6707,-1.5167,-1.4114,-1.4094,-1.3359,0.0,0.0,0.0,0.0,0.0,0.0,0.0,0.0,0.0,-1.5625,-1.6085,-1.6085,-1.6289,0.0,0.0,0.0,0.0,0.0,0.0,0.0,0.0,0.0,0.0,0.0,0.0,0.0,0.0,0.0,0.0,0.0,0.0,0.0,0.0,0.0,0.0,0.0,0.0,0.0,0.0,-2.8867,-3.1934,-3.3652,-3.4766,-3.5312,-3.4824,-3.1797,-2.8711,0.0,0.0,-2.2637,-2.3003,-2.2769,-2.25,-2.2519,-2.2808,-2.2945,-2.2578,-2.3223,0.0,0.0,0.0,0.0,0.0,0.0,0.0,0.0,0.0,0.0,0.0,0.0,0.0,0.0,-3.1758,-3.1328,-3.0898,-3.0898,-3.0079,-2.8426,-2.6832,-2.6045,-2.5984,-2.4425,-2.4486,-2.6089,-2.7228,-2.7557,0.0,0.0,0.0,0.0,-2.8301,-2.8301,-2.8301,-2.8301,-2.8301,-2.8301,-2.8281,-2.8027,-2.7708,0.0,0.0,0.0,0.0,0.0,0.0,0.0,-1.4941,-1.5547,-1.5977,-1.5918,-1.579,-1.579,-1.4796,-1.4114,-1.4114,-1.3359,0.0,0.0,0.0,0.0,0.0,0.0,0.0,0.0,0.0,-1.572,-1.5428,-1.5702,-1.6083,-1.6486,-1.5823,0.0,0.0,0.0,0.0,0.0,0.0,0.0,0.0,0.0,0.0,0.0,0.0,0.0,0.0,0.0,0.0,0.0,0.0,0.0,0.0,0.0,0.0,0.0,-2.2637,0.0,0.0,-3.0449,-3.1406,-3.166,-3.0937,-2.8945,-2.6953,-2.6143,-2.4355,-2.2945,-2.3062,-2.2984,-2.2808,-2.2559,-2.2617,-2.2773,-2.293,-2.3164,0.0,0.0,0.0,0.0,0.0,0.0,0.0,0.0,0.0,0.0,0.0,0.0,0.0,0.0,-3.1328,-3.1035,-3.0898,-2.9785,-2.8426,-2.6772,-2.5146,-2.3807,-2.264,-2.2153,-2.2764,-2.4332,-2.4225,0.0,0.0,0.0,0.0,0.0,-2.7887,-2.8301,-2.8301,-2.8301,-2.8301,-2.8301,-2.8301,-2.8027,-2.7728,0.0,0.0,0.0,0.0,0.0,0.0,0.0,-1.4258,-1.457,-1.4687,-1.4687,-1.4824,-1.5137,-1.4277,-1.3763,-1.4075,-1.3359,0.0,0.0,0.0,0.0,0.0,0.0,0.0,0.0,-1.5459,-1.5712,-1.5965,-1.6352,-1.6585,-1.6634,-1.6204,-1.6332,-1.6837,0.0,0.0,0.0,0.0,0.0,0.0,0.0,0.0,-2.0195,0.0,0.0,0.0,0.0,0.0,0.0,0.0,0.0,0.0,0.0,0.0,0.0,0.0,-2.2754,-2.4902,0.0,-2.8184,-2.8672,-2.8301,-2.7031,0.0,0.0,-2.3945,-2.2847,-2.2847,-2.273,-2.2539,-2.2068,-2.2168,-2.2363,-2.2637,-2.2812,0.0,0.0,0.0,0.0,0.0,0.0,0.0,0.0,0.0,0.0,0.0,0.0,0.0,0.0,-3.1113,-3.0587,-2.9962,-2.892,-2.7632,-2.6045,-2.5024,-2.3683,-2.2027,-2.2027,-2.2278,-2.2625,-2.2703,0.0,0.0,0.0,0.0,0.0,-2.7672,-2.8301,-2.8301,-2.8301,-2.8301,-2.8301,-2.8301,-2.8125,-2.791,0.0,0.0,0.0,0.0,0.0,0.0,0.0,-1.3841,-1.3938,-1.3594,-1.3555,-1.3848,-1.4609,-1.3659,-1.3223,-1.3958,0.0,0.0,0.0,0.0,0.0,0.0,0.0,0.0,0.0,-1.4883,-1.5712,-1.7323,-1.7809,-1.7713,-1.7134,-1.7452,-1.6761,-1.5202,-1.5023,-1.5559,-1.6698,-1.8018,-1.8831,-1.9277,-1.9687,-2.0117,0.0,0.0,0.0,0.0,0.0,0.0,0.0,0.0,0.0,0.0,0.0,0.0,0.0,0.0,0.0,0.0,0.0,-2.5078,0.0,0.0,0.0,0.0,-2.4891,-2.3613,0.0,-2.2461,-2.2168,-2.1758,-2.1307,-2.1621,-2.1894,-2.1973,0.0,0.0,0.0,0.0,0.0,0.0,0.0,0.0,0.0,0.0,0.0,0.0,0.0,0.0,0.0,-3.1094,-3.0079,-2.8289,-2.8212,-2.7459,-2.5935,-2.5725,-2.4947,-2.3544,-2.342,-2.2548,-2.1132,-2.2328,0.0,0.0,0.0,0.0,0.0,-2.7672,-2.8301,-2.8301,-2.8301,-2.8301,-2.8301,-2.8301,-2.8301,-2.8301,0.0,0.0,0.0,0.0,0.0,0.0,0.0,0.0,0.0,0.0,-1.3958,-1.3919,-1.3828,-1.3535,-1.3301,0.0,0.0,0.0,0.0,0.0,0.0,0.0,0.0,0.0,-1.5254,-1.5907,-1.6395,-1.6656,-1.7715,-1.8335,-1.8503,-1.7236,-1.6835,-1.7128,-1.5433,-1.541,-1.6698,-1.8018,-1.8656,-1.8792,-1.9258,-1.9492,0.0,0.0,0.0,0.0,-2.0488,-2.0605,0.0,0.0,0.0,0.0,0.0,0.0,0.0,0.0,-2.0469,-2.084,-2.1368,0.0,-2.2969,-2.3066,-2.2852,-2.2637,0.0,-2.2324,-2.2031,-2.2031,-2.1953,-2.1855,-2.1758,-2.1816,-2.209,0.0,0.0,0.0,0.0,0.0,0.0,0.0,0.0,0.0,0.0,0.0,0.0,0.0,0.0,0.0,0.0,-3.0937,-2.9589,-2.6651,-2.638,-2.599,-2.5436,-2.3301,-2.2525,-2.3078,-2.1925,-2.121,-2.0762,-2.0651,0.0,0.0,0.0,0.0,-2.4544,-2.7222,-2.8301,-2.8301,-2.8301,-2.8301,-2.8301,-2.8301,-2.8301,-2.8301,0.0,0.0,0.0,0.0,0.0,0.0,0.0,0.0,0.0,0.0,0.0,0.0,0.0,0.0,0.0,0.0,0.0,0.0,0.0,0.0,0.0,0.0,0.0,-1.4406,-1.5117,-1.5781,-1.653,-1.7409,-1.8508,-1.9229,-1.9539,-1.8053,-1.7162,-1.6706,-1.4964,-1.4841,-1.6018,-1.7197,-1.8053,-1.8617,-1.8887,0.0,0.0,0.0,0.0,0.0,-2.037,-2.0468,0.0,-2.0742,-2.1035,-2.1112,0.0,0.0,0.0,0.0,-2.0391,-2.0605,-2.0605,-2.1251,-2.1894,-2.1894,-2.2031,-2.2168,-2.2168,-2.1875,-2.1582,-2.1582,0.0,0.0,-2.1582,0.0,0.0,0.0,0.0,0.0,0.0,0.0,0.0,0.0,0.0,0.0,0.0,0.0,0.0,0.0,0.0,0.0,0.0,-3.0025,-2.841,-2.5917,-2.4795,-2.4281,-2.4319,-2.3323,-2.3187,-2.3785,-2.3022,-2.2253,-2.1479,-2.0359,-1.98,0.0,0.0,0.0,-2.3989,-2.6336,-2.7672,-2.8301,-2.8301,-2.8301,-2.8301,-2.8301,-2.8301,-2.8301,0.0,0.0,0.0,0.0,0.0,0.0,0.0,0.0,0.0,0.0,0.0,0.0,0.0,0.0,0.0,0.0,0.0,0.0,0.0,0.0,0.0,0.0,0.0,-1.4531,-1.5156,-1.5469,-1.6648,-1.8792,-1.9629,-2.0156,-2.0424,-1.9256,-1.7498,-1.5248,-1.4223,-1.4217,-1.5048,-1.614,-1.7265,-1.8325,-1.843,0.0,0.0,0.0,0.0,0.0,0.0,0.0,0.0,-2.0722,-2.0995,-2.0995,-2.0995,0.0,0.0,0.0,0.0,0.0,-2.0683,-2.1309,-2.1953,-2.1816,-2.2109,-2.2422,-2.2422,0.0,0.0,0.0,0.0,0.0,0.0,-2.1777,0.0,0.0,0.0,0.0,0.0,0.0,0.0,0.0,0.0,0.0,0.0,0.0,0.0,0.0,0.0,0.0,0.0,-2.8925,-2.7152,-2.5195,-2.3495,-2.2587,-2.2629,-2.3629,-2.4412,-2.4812,-2.4363,-2.3544,-2.2394,-2.0565,-1.9733,0.0,0.0,0.0,-2.3933,-2.5717,-2.7168,-2.8301,-2.8301,-2.8301,-2.8301,-2.8301,-2.8301,-2.8301,0.0,0.0,0.0,0.0,0.0,0.0,0.0,0.0,0.0,0.0,0.0,0.0,0.0,0.0,0.0,0.0,0.0,0.0,0.0,0.0,0.0,-1.5195,-1.4863,-1.541,-1.6985,-1.6648,-1.7545,-1.9707,-2.0215,-2.0878,-2.1585,-2.007,-1.7539,-1.4309,-1.4195,-1.4044,-1.4063,-1.5825,-1.6698,-1.698,-1.7777,0.0,0.0,0.0,0.0,0.0,0.0,0.0,0.0,-1.9941,-2.0117,-2.0117,-2.0117,0.0,0.0,0.0,0.0,0.0,-2.1035,-2.1758,-2.2246,-2.1483,-2.166,-2.1973,-2.1973,-2.1875,0.0,0.0,0.0,0.0,0.0,0.0,0.0,0.0,0.0,0.0,0.0,0.0,0.0,0.0,0.0,0.0,0.0,0.0,0.0,0.0,0.0,0.0,0.0,-2.8177,-2.6503,-2.3257,-2.2553,-2.1657,-2.0337,-2.0722,-2.2083,-2.4335,-2.1818,-2.1128,-2.2022,-2.0247,-1.9439,0.0,0.0,-2.3599,-2.4044,-2.6825,-2.8121,-2.8301,-2.8301,-2.8301,-2.8301,-2.8301,-2.8301,-2.8301,0.0,0.0,0.0,0.0,0.0,0.0,0.0,0.0,0.0,0.0,0.0,0.0,0.0,0.0,0.0,0.0,0.0,0.0,0.0,0.0,0.0,-1.6063,-1.5937,-1.6328,-1.7396,-1.7603,-1.8792,-2.0977,-2.1406,-2.207,-2.2847,-1.9893,-1.6869,-1.3814,-1.3369,-1.3374,-1.3738,-1.4657,-1.5649,-1.6627,0.0,0.0,0.0,0.0,0.0,0.0,0.0,0.0,0.0,0.0,-2.0078,-2.0273,-2.0273,0.0,0.0,0.0,0.0,0.0,-2.082,-2.1504,-2.207,-2.168,-2.209,-2.2562,-2.2285,-2.2051,-2.1894,0.0,0.0,0.0,0.0,0.0,0.0,0.0,0.0,0.0,0.0,0.0,0.0,0.0,0.0,0.0,0.0,0.0,0.0,0.0,0.0,0.0,0.0,0.0,-2.414,-2.2479,-2.1307,-2.035,-1.9573,-1.9693,-2.0782,-2.2824,-2.1422,-2.1133,-2.1738,-2.0153,-1.943,-1.9533,0.0,-2.3039,-2.3989,-2.6209,-2.7565,-2.8301,-2.8301,-2.8301,-2.8301,-2.8301,-2.8301,-2.8301,0.0,0.0,0.0,0.0,0.0,0.0,0.0,0.0,0.0,0.0,0.0,0.0,0.0,0.0,0.0,0.0,0.0,0.0,0.0,0.0,-1.5762,-1.6543,-1.6777,-1.7285,-1.814,-1.8652,-1.9923,-2.2031,-2.2363,-2.2573,-2.2617,-1.9496,-1.6411,-1.356,-1.2896,-1.2879,-1.339,-1.3608,-1.455,-1.5983,0.0,0.0,0.0,0.0,0.0,0.0,0.0,0.0,0.0,0.0,0.0,0.0,0.0,0.0,0.0,-2.0703,-2.0605,-2.0625,-2.0684,-2.1367,-2.2012,-2.1914,-2.2519,-2.3125,-2.2988,-2.2793,-2.2656,0.0,0.0,0.0,0.0,0.0,0.0,0.0,0.0,0.0,0.0,0.0,0.0,0.0,0.0,0.0,0.0,0.0,0.0,0.0,0.0,0.0,0.0,0.0,-2.1976,-2.1569,-2.015,-1.943,-1.943,-1.9764,-2.0472,-2.1586,-2.1586,-2.1586,-2.1586,-2.0415,-1.9924,-1.9982,-2.1472,-2.2983,-2.4433,-2.5991,-2.7276,-2.8301,-2.8301,-2.8301,-2.8301,-2.8301,-2.8301,-2.8301,0.0,0.0,0.0,0.0,0.0,0.0,0.0,0.0,0.0,0.0,0.0,0.0,0.0,0.0,0.0,0.0,0.0,0.0,0.0,0.0,-1.5625,-1.6124,-1.6926,-1.8316,-2.0331,-2.0,-2.0703,-2.2461,-2.25,-2.1429,-1.9417,-1.9082,-1.7015,-1.3601,-1.3488,-1.3025,-1.2452,-1.3317,-1.3774,-1.4093,-1.6293,0.0,0.0,0.0,0.0,0.0,0.0,0.0,0.0,0.0,0.0,0.0,0.0,0.0,-2.0644,-2.0625,-2.0605,-2.0703,-2.1074,-2.1775,-2.2383,-2.1973,-2.2519,-2.3296,-2.4102,-2.457,-2.4961,-2.5371,0.0,0.0,0.0,0.0,0.0,0.0,0.0,0.0,0.0,0.0,0.0,0.0,0.0,0.0,0.0,0.0,0.0,0.0,0.0,0.0,0.0,0.0,0.0,-1.9689,-1.9488,-1.943,-1.943,-2.0759,-2.1472,-2.1586,-2.1586,-2.1586,-2.1586,-2.1472,-2.1415,-2.1529,-2.2983,-2.4488,-2.6045,-2.7511,-2.8174,-2.8301,-2.8301,-2.8301,-2.8301,-2.8301,-2.8301,-2.8301,0.0,0.0,0.0,0.0,0.0,0.0,0.0,0.0,0.0,0.0,0.0,0.0,0.0,0.0,0.0,0.0,0.0,0.0,0.0,-1.541,-1.5723,-1.6445,-1.7051,-1.8125,-1.9764,-2.041,-2.1582,-2.3301,-2.3027,-2.2045,-2.0456,-1.925,-1.7237,-1.4626,-1.3924,-1.3249,-1.2596,-1.2778,-1.3286,-1.4111,-1.5438,-1.621,0.0,0.0,0.0,0.0,0.0,0.0,0.0,0.0,-1.9062,-1.9394,-1.998,-2.039,-2.0605,-2.0605,-2.0371,-2.0254,-2.0703,-2.1465,-2.209,-2.1934,-2.2715,-2.3691,-2.4277,-2.4746,-2.5321,-2.5996,-2.6133,0.0,0.0,0.0,0.0,0.0,0.0,0.0,0.0,0.0,0.0,0.0,0.0,0.0,0.0,0.0,0.0,0.0,0.0,0.0,0.0,0.0,0.0,-1.943,-1.943,-1.943,-1.943,-2.0859,-2.1586,-2.1643,-2.2533,-2.2983,-2.2983,-2.2983,-2.2983,-2.3039,-2.4544,-2.5535,-2.6209,-2.7672,-2.8301,-2.8301,-2.8301,-2.8301,-2.8301,-2.8301,-2.8301,-2.8301,0.0,0.0,0.0,0.0,0.0,0.0,0.0,0.0,0.0,0.0,0.0,0.0,0.0,0.0,0.0,0.0,0.0,0.0,-1.541,-1.541,-1.5742,-1.6484,-1.6953,-1.7773,-1.9043,-2.0177,-2.1523,-2.2988,-2.2832,-2.2035,-2.075,-1.9519,-1.7873,-1.5966,-1.5162,-1.4402,-1.3607,-1.3163,-1.3257,-1.3855,-1.4637,-1.5218,0.0,0.0,0.0,0.0,0.0,0.0,0.0,0.0,-1.8792,-1.918,-1.9746,-2.0117,-2.039,-2.039,-2.0156,-1.9941,-2.0155,-2.0898,-2.1641,-2.1504,-2.2637,-2.4004,-2.4844,-2.5371,-2.5977,-2.6973,-2.6973,0.0,0.0,0.0,0.0,0.0,0.0,0.0,0.0,0.0,0.0,0.0,0.0,0.0,0.0,0.0,0.0,0.0,0.0,0.0,0.0,0.0,0.0,0.0,-1.9225,-1.9513,-1.9945,-2.1541,-2.2533,-2.3039,-2.4544,-2.471,-2.3822,-2.4322,-2.4544,-2.4599,-2.5645,-2.6372,-2.6879,-2.7887,-2.8301,-2.8301,-2.8301,-2.8301,-2.8301,-2.8301,-2.8301,-2.8301,0.0,0.0,0.0,0.0,0.0,0.0,0.0,0.0,0.0,0.0,0.0,0.0,0.0,0.0,0.0,0.0,0.0,0.0,-1.541,-1.541,-1.5605,-1.6065,-1.6484,-1.7291,-1.8559,-1.9416,-2.0294,-2.119,-2.166,-2.1088,-1.9598,-1.9792,-1.9044,-1.7486,-1.7303,-1.6563,-1.5437,-1.4706,-1.3795,-1.2898,-1.3968,-1.4111,-1.3964,0.0,0.0,0.0,0.0,0.0,0.0,0.0,-1.8598,-1.8754,-1.9629,-1.9902,-1.9922,-1.9922,-1.9922,-1.9824,-1.9414,-2.0254,-2.1093,-2.0742,-2.2249,0.0,-2.5996,-2.6719,-2.7383,-2.8652,-2.8262,-2.7728,0.0,0.0,0.0,0.0,0.0,0.0,0.0,0.0,0.0,0.0,0.0,0.0,0.0,0.0,0.0,0.0,0.0,0.0,0.0,0.0,0.0,0.0,-1.8918,-1.9625,-2.1148,-2.2919,-2.4527,-2.6082,-2.7599,-2.6717,-2.3877,-2.5426,-2.61,-2.61,-2.61,-2.6933,-2.8301,-2.8301,-2.8301,-2.8301,-2.8301,-2.8301,-2.8301,-2.8301,-2.8301,-2.8301,0.0,0.0,0.0,0.0,0.0,0.0,0.0,0.0,0.0,0.0,0.0,0.0,0.0,0.0,0.0,0.0,0.0,0.0,-1.587,-1.5586,-1.5469,-1.5605,-1.6035,-1.6445,-1.6816,-1.7969,-1.9416,-2.119,-2.1327,-2.1031,-2.029,-2.0023,-1.8877,-1.7119,-1.782,-1.6519,-1.3889,-1.4235,-1.3795,-1.2871,-1.3623,-1.3827,-1.3934,0.0,0.0,0.0,0.0,0.0,0.0,0.0,0.0,0.0,-1.889,-1.9629,-2.0312,-2.0,-2.0137,-2.041,-2.0605,-2.0898,-2.1385,-2.2207,0.0,0.0,0.0,-2.6699,0.0,0.0,-2.8711,0.0,0.0,0.0,0.0,0.0,0.0,0.0,0.0,0.0,0.0,0.0,0.0,0.0,0.0,0.0,0.0,0.0,0.0,0.0,0.0,0.0,0.0,0.0,-1.8624,-1.932,-2.0694,-2.2257,-2.3761,-2.5216,-2.6688,-2.7223,-2.7006,-2.7457,-2.7672,-2.7672,-2.7672,-2.7887,-2.8301,-2.8301,-2.8301,-2.8301,-2.8301,-2.8301,-2.8301,-2.8301,-2.8301,-2.8301,0.0,0.0,0.0,0.0,0.0,0.0,0.0,0.0,0.0,0.0,-1.4598,0.0,0.0,0.0,0.0,0.0,0.0,0.0,0.0,-1.5918,-1.5742,-1.5907,-1.6016,-1.6339,-1.6848,-1.7949,-1.9062,-2.0157,-2.0333,-2.041,-2.0312,-2.0215,-1.9462,-1.8187,-1.9344,-1.7923,-1.4682,-1.5324,-1.4676,-1.3158,-1.3421,-1.3434,-1.3505,0.0,0.0,0.0,0.0,0.0,0.0,0.0,0.0,0.0,-1.8559,-1.9143,-1.9785,-1.9687,-1.9727,-1.9922,-2.0508,-2.084,-2.1328,-2.2793,-2.3926,-2.5137,-2.6875,0.0,0.0,0.0,0.0,0.0,0.0,0.0,0.0,0.0,0.0,0.0,0.0,0.0,0.0,0.0,0.0,0.0,0.0,0.0,0.0,0.0,0.0,0.0,0.0,0.0,0.0,0.0,-1.8317,-1.9001,-2.042,-2.1402,-2.2908,-2.4873,-2.5185,-2.621,-2.7793,-2.7793,-2.7793,-2.7793,-2.7969,-2.8144,-2.8301,-2.8301,-2.8301,-2.8301,-2.8301,-2.8301,-2.8301,-2.8301,-2.8301,-2.8301,0.0,0.0,0.0,0.0,0.0,0.0,0.0,0.0,0.0,0.0,-1.4104,-1.478,0.0,0.0,0.0,0.0,0.0,0.0,0.0,0.0,-1.6309,-1.6687,-1.6348,-1.675,-1.7988,-1.8769,-1.8984,-1.8598,-1.9082,-1.9473,-1.9863,-2.0217,-2.02,-1.9811,-2.101,-1.9738,-1.6677,-1.708,-1.5888,-1.3696,-1.332,-1.3013,-1.2939,-1.3847,0.0,0.0,0.0,0.0,0.0,0.0,0.0,0.0,-1.8387,-1.8598,-1.8734,-1.9121,-1.9004,-1.8909,-1.9767,-2.0332,-2.1094,-2.2828,-2.4355,0.0,-2.7247,-2.8949,-2.9814,0.0,0.0,0.0,0.0,0.0,0.0,0.0,0.0,0.0,0.0,0.0,0.0,0.0,0.0,0.0,0.0,0.0,0.0,0.0,0.0,0.0,0.0,0.0,0.0,0.0,-1.7942,-1.8682,-2.0234,-2.0482,-2.2049,0.0,-2.3441,-2.4244,-2.6894,-2.682,-2.691,-2.7031,-2.748,-2.7943,-2.8242,-2.8281,-2.8301,-2.8301,-2.8301,-2.8301,-2.8301,-2.8301,-2.8301,-2.8301,0.0,0.0,0.0,0.0,0.0,0.0,0.0,0.0,0.0,0.0,0.0,0.0,0.0,0.0,0.0,0.0,0.0,0.0,0.0,0.0,-1.6609,-1.6687,-1.6609,-1.7031,-1.7988,-1.8184,-1.8364,-1.8598,-1.9082,-1.9336,-1.9397,-1.9215,-1.8669,-1.7927,-1.8752,-1.7861,-1.5624,-1.5455,-1.5045,-1.4448,-1.3347,-1.2998,-1.3197,-1.3934,-1.4313,0.0,0.0,0.0,0.0,0.0,0.0,0.0,-1.7865,-1.8613,-1.9102,-1.8812,-1.9143,-1.9787,-2.0664,-2.0976,0.0,-2.4062,-2.6133,-2.7511,-2.7048,-2.8404,-2.9573,0.0,0.0,0.0,0.0,0.0,0.0,0.0,0.0,0.0,0.0,0.0,0.0,0.0,0.0,0.0,0.0,0.0,0.0,0.0,0.0,0.0,0.0,0.0,0.0,-1.7393,-1.7569,-1.8348,-1.9732,-1.9807,-2.1222,0.0,-2.2605,-2.3382,-2.5986,-2.5595,-2.5999,-2.7031,-2.748,-2.7767,-2.7832,-2.8164,-2.8301,-2.8301,-2.8301,-2.8301,-2.8301,-2.8301,-2.8301,-2.8301,0.0,0.0,0.0,0.0,0.0,0.0,0.0,0.0,0.0,0.0,0.0,0.0,0.0,0.0,0.0,0.0,0.0,0.0,0.0,0.0,-1.7129,-1.7311,-1.7734,-1.8164,-1.8613,-1.8613,-1.873,-1.8945,-1.918,-1.9492,-1.9902,-1.9313,-1.9018,-1.8928,-1.8809,-1.7701,-1.6001,-1.5519,-1.4899,-1.4158,-1.3314,-1.3066,-1.3213,-1.3428,-1.3795,-1.4239,-1.4403,0.0,0.0,0.0,0.0,0.0,0.0,0.0,-1.8672,-1.8617,-1.8909,-1.9531,-2.0625,-2.1034,0.0,-2.448,0.0,-2.7946,-2.7576,-2.8243,0.0,0.0,0.0,0.0,0.0,0.0,0.0,0.0,0.0,0.0,0.0,0.0,0.0,0.0,0.0,0.0,0.0,0.0,0.0,0.0,0.0,0.0,0.0,-1.686,-1.6941,-1.6941,-1.7088,-1.7514,-1.8215,-1.8215,-1.925,-2.1296,-2.0109,-2.104,-2.38,-2.4839,-2.5831,-2.6738,-2.7168,-2.748,-2.7748,-2.8125,-2.8301,-2.8301,-2.8301,-2.8301,-2.8301,-2.8301,-2.8301,-2.8301,0.0,0.0,0.0,0.0,0.0,0.0,0.0,0.0,0.0,0.0,0.0,0.0,0.0,0.0,0.0,0.0,0.0,0.0,0.0,0.0,0.0,-1.832,-1.8945,-1.9316,-1.9394,-1.9394,-1.9434,-1.9512,-1.959,-2.0137,-2.1113,-1.9924,-1.9793,-2.0465,-1.9451,-1.8153,-1.6771,-1.6095,-1.5063,-1.3858,-1.34,-1.324,-1.324,-1.2918,-1.3265,-1.3901,-1.3579,-1.3991,-1.4728,-1.4871,0.0,0.0,0.0,0.0,-1.7655,-1.8279,-1.8375,-1.8576,-1.9982,-2.0937,-2.2129,-2.4473,-2.6319,0.0,-2.7651,-2.7907,0.0,0.0,0.0,0.0,0.0,0.0,0.0,0.0,0.0,0.0,0.0,0.0,0.0,0.0,0.0,0.0,0.0,0.0,0.0,0.0,0.0,0.0,-1.6553,-1.6607,-1.6633,-1.6633,-1.6687,-1.67,-1.67,-1.67,-1.7484,-1.9033,-1.8734,-1.9654,-2.1794,-2.4461,-2.5937,-2.6309,-2.6797,-2.7226,-2.7598,-2.8086,-2.8301,-2.8301,-2.8301,-2.8301,-2.8301,-2.8301,-2.8301,-2.8301,0.0,0.0,0.0,0.0,0.0,0.0,0.0,0.0,0.0,0.0,0.0,0.0,0.0,0.0,0.0,0.0,0.0,0.0,0.0,0.0,0.0,-1.9648,-1.9414,-1.9453,-1.9824,-1.9824,-2.0019,-2.0429,-2.0781,-2.1797,-2.332,-2.0629,-1.9506,-1.9714,-1.8854,-1.7886,-1.6828,-1.583,-1.5262,-1.4947,-1.3718,-1.332,-1.348,-1.2998,-1.2898,-1.2934,-1.2597,-1.2549,-1.2806,-1.3629,-1.3991,0.0,0.0,0.0,-1.5877,-1.7586,-1.7517,-1.7269,-1.9018,0.0,-2.3306,0.0,-2.582,-2.6357,0.0,0.0,0.0,0.0,0.0,0.0,0.0,0.0,0.0,0.0,0.0,0.0,0.0,0.0,0.0,0.0,0.0,0.0,0.0,0.0,0.0,0.0,0.0,0.0,-1.5965,-1.6192,-1.6326,-1.6326,-1.658,-1.67,-1.67,-1.67,-1.7916,-2.0377,-2.2841,-2.3237,-2.1794,-2.4461,-2.5713,-2.581,-2.666,-2.7051,-2.7168,-2.7969,-2.8301,-2.8301,-2.8301,-2.8301,-2.8301,-2.8301,-2.8301,-2.8301,0.0,0.0,0.0,0.0,0.0,0.0,0.0,0.0,0.0,0.0,0.0,0.0,0.0,0.0,0.0,0.0,0.0,0.0,0.0,0.0,0.0,-1.9902,-1.998,-2.0116,-2.0273,-2.0527,-2.0742,-2.0937,-2.1387,-2.2344,-2.3769,-2.2465,-2.2151,-2.2567,-2.0425,-1.8996,-1.8129,-1.637,-1.5139,-1.4291,-1.3519,-1.328,-1.3307,-1.2958,-1.2784,-1.277,-1.2636,-1.2438,-1.2405,-1.2977,-1.3425,-1.3846,-1.4692,0.0,0.0,0.0,-1.6668,-1.7386,-1.9464,-2.0879,-2.2112,0.0,-2.4297,-2.4664,-2.4903,0.0,0.0,0.0,0.0,0.0,0.0,0.0,0.0,0.0,0.0,0.0,0.0,0.0,0.0,0.0,0.0,0.0,0.0,0.0,0.0,0.0,0.0,-1.5965,-1.5784,-1.5952,-1.6019,-1.6019,-1.6152,-1.6219,-1.6219,-1.6219,-1.687,-1.8241,-2.0442,-2.1489,-2.1495,-2.3642,-2.4971,-2.5732,-2.6641,-2.7012,-2.709,-2.793,-2.8301,-2.8301,-2.8301,-2.8301,-2.8301,-2.8301,-2.8301,-2.8301,0.0,0.0,0.0,0.0,0.0,0.0,0.0,0.0,0.0,0.0,0.0,0.0,0.0,0.0,0.0,0.0,0.0,0.0,0.0,0.0,0.0,-2.0254,-2.0664,-2.0938,-2.0938,-2.123,-2.1405,-2.1522,-2.1894,-2.2754,-2.4121,-2.4238,-2.4687,-2.5304,-2.2441,-2.0529,-1.9272,-1.7269,-1.5718,-1.4512,-1.3586,-1.3358,-1.354,-1.2925,-1.2677,-1.2677,-1.2757,-1.2636,-1.2489,0.0,-1.3112,-1.3492,0.0,0.0,0.0,0.0,0.0,-1.7424,0.0,0.0,-2.0605,-2.2109,-2.2656,-2.3188,0.0,0.0,0.0,0.0,0.0,0.0,0.0,0.0,0.0,0.0,0.0,0.0,0.0,0.0,0.0,0.0,0.0,0.0,0.0,0.0,0.0,0.0,0.0,-1.5784,-1.5784,-1.5784,-1.5784,-1.5784,-1.5784,-1.5784,-1.5784,-1.6103,-1.6313,-1.6321,-1.8499,-2.0135,-2.1246,-2.3198,-2.4662,-2.5732,-2.6523,-2.6914,-2.707,-2.7832,-2.8203,-2.8301,-2.8301,-2.8301,-2.8301,-2.8301,-2.8301,-2.8301,0.0,0.0,0.0,0.0,0.0,0.0,0.0,0.0,0.0,0.0,0.0,0.0,0.0,0.0,-1.4827,-1.3736,0.0,0.0,0.0,0.0,0.0,-2.1132,-2.1582,0.0,-2.1816,-2.1836,-2.2051,-2.2441,-2.2461,-2.334,-2.5047,-2.543,-2.5879,-2.625,-2.4438,-2.2182,-1.967,-1.8421,-1.7648,-1.7049,-1.4294,-1.3817,-1.4534,-1.2944,-1.2318,0.0,0.0,0.0,0.0,0.0,0.0,0.0,0.0,0.0,0.0,0.0,0.0,0.0,0.0,-1.8336,0.0,-2.0507,-2.1368,0.0,0.0,0.0,0.0,0.0,0.0,0.0,0.0,0.0,0.0,0.0,0.0,0.0,0.0,0.0,0.0,0.0,0.0,0.0,0.0,0.0,0.0,0.0,0.0,-1.5784,-1.5784,-1.5784,-1.5784,-1.5784,-1.5784,-1.5784,-1.5784,-1.6998,-1.7155,-1.6321,-2.0074,-2.1595,-2.1295,-2.3847,-2.5284,-2.5713,-2.623,-2.6641,-2.7051,-2.7519,-2.793,-2.8301,-2.8301,-2.8301,-2.8301,-2.8301,-2.8301,-2.8301,0.0,0.0,0.0,0.0,0.0,0.0,0.0,0.0,0.0,0.0,0.0,0.0,0.0,-1.3899,-1.4117,-1.395,-1.5031,0.0,0.0,0.0,0.0,-2.1131,-2.1346,-2.1602,-2.1875,-2.2148,-2.2363,-2.2519,-2.2773,-2.3516,-2.4648,-2.4824,-2.498,-2.5117,-2.5059,-2.3668,-2.1269,-2.0293,-1.9212,0.0,0.0,0.0,0.0,0.0,0.0,0.0,0.0,0.0,0.0,0.0,0.0,0.0,0.0,0.0,0.0,0.0,0.0,0.0,0.0,0.0,0.0,-1.8975,-1.9755,-2.0449,0.0,0.0,0.0,0.0,0.0,0.0,0.0,0.0,0.0,0.0,0.0,0.0,0.0,0.0,0.0,0.0,0.0,0.0,0.0,0.0,0.0,0.0,0.0,0.0,-1.5784,-1.5784,-1.5784,-1.5784,-1.5784,-1.5784,-1.5784,-1.6244,-1.6299,-1.5992,-1.7596,-1.9255,-2.0962,-2.2073,-2.3761,-2.5693,-2.5898,-2.6211,-2.666,-2.7383,-2.7754,-2.791,-2.8184,-2.8301,-2.8301,-2.8301,-2.8301,-2.8301,0.0,0.0,0.0,0.0,0.0,0.0,0.0,0.0,0.0,0.0,0.0,0.0,0.0,0.0,-1.4162,-1.4362,-1.5376,-1.6492,-1.7711,-1.8754,-1.9968,-2.1364,-2.1541,-2.1855,-2.2305,-2.2578,-2.2672,-2.2672,-2.2964,-2.3471,-2.4219,-2.4355,-2.4414,-2.4434,-2.5039,-2.4228,-2.2423,0.0,0.0,-1.977,0.0,0.0,-1.7746,0.0,0.0,0.0,0.0,0.0,0.0,0.0,0.0,0.0,0.0,0.0,0.0,0.0,0.0,0.0,-1.4835,0.0,0.0,0.0,0.0,0.0,0.0,0.0,0.0,0.0,0.0,0.0,0.0,0.0,0.0,0.0,0.0,0.0,0.0,0.0,0.0,0.0,0.0,0.0,0.0,0.0,0.0,0.0,0.0,0.0,-1.5784,-1.5784,-1.5784,-1.5784,-1.5784,-1.5784,-1.5784,-1.5784,-1.5784,-1.5832,-1.645,-1.8115,-2.0595,-2.1349,-2.3057,-2.5527,-2.5615,-2.5996,-2.6426,-2.7012,-2.7454,-2.7748,-2.7969,-2.8164,-2.8301,-2.8301,-2.8301,-2.8301,0.0,0.0,0.0,0.0,0.0,0.0,0.0,0.0,0.0,-1.5651,0.0,0.0,0.0,0.0,0.0,-1.5022,-1.5961,-1.6896,-1.7735,-1.9116,-2.0484,-2.1812,0.0,0.0,0.0,-2.3101,-2.3101,-2.3101,-2.3101,-2.3315,-2.3769,-2.418,-2.4375,-2.4375,-2.4375,-2.3881,-2.3018,0.0,-2.1583,-2.2252,0.0,-1.8522,-1.9738,0.0,0.0,0.0,-1.8144,-1.796,0.0,0.0,0.0,0.0,0.0,0.0,0.0,0.0,0.0,0.0,0.0,0.0,0.0,0.0,0.0,0.0,0.0,0.0,0.0,0.0,0.0,0.0,0.0,0.0,0.0,0.0,0.0,0.0,0.0,0.0,0.0,0.0,0.0,0.0,0.0,0.0,0.0,0.0,0.0,-1.5784,-1.5784,-1.5784,-1.5784,-1.5784,-1.5784,-1.5784,-1.5784,-1.5784,-1.5784,-1.5832,-1.703,-1.8505,-2.0105,-2.1749,-2.3409,-2.507,-2.545,-2.5927,-2.6367,-2.6387,-2.6894,-2.7708,-2.7728,-2.793,-2.8301,-2.8301,-2.8301,-2.8301,0.0,0.0,0.0,0.0,0.0,0.0,0.0,0.0,0.0,0.0,0.0,0.0,-1.5594,-1.5445,-1.5284,-1.5284,-1.5386,-1.5974,-1.7143,-1.7401,-1.8609,-2.0949,-2.1145,-2.1795,-2.3081,-2.3101,-2.3101,-2.3101,-2.3101,-2.3159,-2.3276,-2.3393,-2.3452,-2.3452,-2.3452,-2.3315,-2.3081,-2.264,0.0,-2.3276,-2.1427,-2.1138,0.0,0.0,0.0,0.0,0.0,-1.907,-1.8528,0.0,-1.6809,-1.526,0.0,0.0,0.0,0.0,0.0,0.0,-1.2696,0.0,0.0,0.0,0.0,0.0,0.0,0.0,0.0,0.0,0.0,0.0,0.0,0.0,0.0,0.0,0.0,0.0,0.0,0.0,0.0,0.0,0.0,0.0,0.0,0.0,0.0,0.0,-1.5784,-1.5784,-1.5784,-1.5784,-1.5784,-1.5784,-1.5784,-1.5784,-1.5784,-1.5784,-1.5784,-1.5784,-1.615,-1.7318,-1.909,-1.9571,-2.1356,-2.4079,-2.419,-2.4881,-2.5908,-2.6582,-2.6992,-2.7266,-2.7871,-2.8184,-2.8301,-2.8301,-2.8301,-2.8301,0.0,0.0,0.0,0.0,0.0,0.0,0.0,-1.471,-1.498,0.0,0.0,0.0,-1.5551,-1.603,-1.6123,-1.5625,-1.5925,-1.6375,-1.698,-1.6847,-1.7929,-2.0576,-2.0706,-2.1429,-2.3038,-2.3101,-2.3101,-2.3101,-2.3101,-2.3101,-2.3101,0.0,0.0,0.0,0.0,0.0,0.0,0.0,0.0,0.0,-2.2519,0.0,0.0,-2.1975,-2.1681,0.0,0.0,0.0,-2.0379,-1.9701,-1.8408,0.0,0.0,0.0,0.0,0.0,0.0,0.0,0.0,0.0,0.0,0.0,0.0,0.0,-1.4699,-1.494,0.0,0.0,0.0,0.0,0.0,0.0,0.0,0.0,0.0,0.0,0.0,0.0,0.0,0.0,0.0,0.0,0.0,0.0,0.0,-1.5471,-1.5578,-1.5698,-1.5771,-1.5784,-1.5784,-1.5784,-1.5784,-1.5784,-1.5784,-1.5784,-1.5784,-1.5832,-1.6339,-1.7184,-1.83,-1.9526,-2.1247,-2.3311,-2.3962,-2.48,-2.5703,-2.5965,-2.6429,-2.709,-2.7773,-2.8144,-2.8301,-2.8301,-2.8301,-2.8301,0.0,0.0,0.0,0.0,0.0,0.0,0.0,0.0,0.0,0.0,-1.6206,-1.5645,-1.5851,-1.6881,0.0,0.0,-1.6871,-1.7333,-1.6872,-1.6857,-1.7928,-2.0254,-2.0517,-2.131,-2.2862,-2.3038,-2.3101,-2.3101,-2.3101,-2.3101,-2.3101,-2.3101,0.0,0.0,0.0,0.0,0.0,0.0,0.0,-2.3062,-2.2691,-2.2828,0.0,0.0,-2.3144,0.0,-2.3105,-2.2852,-2.234,-2.1361,-2.0141,0.0,0.0,0.0,0.0,0.0,-1.3267,0.0,0.0,0.0,0.0,0.0,0.0,0.0,-1.387,-1.3652,-1.3223,0.0,0.0,0.0,0.0,0.0,0.0,0.0,0.0,0.0,0.0,0.0,0.0,0.0,0.0,0.0,0.0,-1.5008,-1.5008,-1.5008,-1.5231,-1.5511,-1.5718,-1.5758,-1.5784,-1.5784,-1.5784,-1.5784,-1.5784,-1.5784,-1.5784,-1.5832,-1.7091,-1.7714,-1.7837,-2.042,-2.1888,-2.2506,-2.4013,-2.49,-2.5252,-2.4926,-2.567,-2.7019,-2.7383,-2.7843,-2.8301,-2.8301,-2.8301,-2.8301,0.0,0.0,0.0,0.0,0.0,0.0,0.0,0.0,-1.594,-1.6709,-1.6594,-1.6473,-1.6526,-1.657,0.0,0.0,-1.6204,-1.6123,-1.6021,-1.6007,-1.671,-1.8226,-1.9216,-2.0318,-2.1614,-2.258,-2.3101,-2.3101,-2.3101,-2.3101,-2.3101,-2.3101,0.0,0.0,0.0,0.0,0.0,0.0,0.0,-2.3081,-2.3003,0.0,-2.4082,-2.3354,-2.3101,-2.3042,-2.2754,-2.2578,-2.2236,0.0,-1.9743,-1.9023,0.0,0.0,0.0,0.0,0.0,0.0,0.0,0.0,0.0,0.0,0.0,0.0,-1.3067,-1.2993,-1.2842,0.0,0.0,0.0,0.0,0.0,0.0,0.0,0.0,0.0,0.0,0.0,0.0,0.0,0.0,0.0,0.0,-1.5008,-1.5008,-1.5008,-1.5231,-1.5418,-1.5484,-1.5698,-1.5784,-1.5784,-1.5784,-1.5784,-1.5784,-1.5784,-1.5784,-1.5832,-1.7091,-1.7819,-1.8025,-1.8609,-1.9782,-2.1342,-2.1769,-2.2295,-2.2929,-2.426,-2.567,-2.6987,-2.6595,-2.7201,-2.8301,-2.8301,-2.8301,-2.8301,0.0,0.0,0.0,0.0,0.0,0.0,0.0,0.0,-1.642,-1.6874,-1.7048,-1.7034,-1.674,0.0,0.0,0.0,0.0,0.0,0.0,-1.5784,-1.6386,-1.7638,-1.8272,-1.9177,-2.0387,-2.1569,-2.2208,-2.2208,-2.2818,-2.3101,-2.3101,-2.3315,0.0,0.0,0.0,0.0,0.0,0.0,-2.3906,-2.4043,-2.3354,0.0,-2.3686,-2.3257,-2.3101,-2.3062,-2.2847,-2.2695,-2.2272,-2.0739,-2.0463,0.0,0.0,-1.6426,-1.6329,0.0,-1.3881,-1.3654,0.0,0.0,0.0,-1.3654,0.0,0.0,0.0,-1.2663,-1.2435,0.0,0.0,0.0,0.0,0.0,0.0,0.0,0.0,0.0,0.0,0.0,0.0,0.0,0.0,0.0,0.0,-1.4309,-1.4429,-1.4723,-1.4883,-1.5084,-1.5378,-1.5538,-1.5685,-1.5784,-1.5784,-1.5784,-1.5784,-1.5784,-1.5784,-1.5832,-1.7716,-1.8039,-1.7037,-1.9036,-1.9909,-1.9919,-2.1425,-2.2028,-2.1973,-2.3148,-2.4594,-2.6022,-2.6062,-2.6987,-2.8301,-2.8301,-2.8301,-2.8301,0.0,0.0,0.0,0.0,0.0,0.0,0.0,0.0,-1.6754,-1.7152,-1.7447,-1.7408,0.0,0.0,0.0,0.0,0.0,0.0,0.0,0.0,-1.6499,-1.7223,-1.7561,-1.8103,-1.9018,-2.0307,-2.1078,-2.1302,-2.2271,-2.2901,-2.3218,0.0,0.0,0.0,0.0,0.0,0.0,0.0,0.0,-2.4773,0.0,-2.3315,-2.3496,-2.3276,-2.3218,-2.3198,-2.312,-2.2886,-2.2489,-2.154,0.0,-2.1457,-1.8202,-1.7732,0.0,0.0,0.0,0.0,0.0,0.0,0.0,0.0,0.0,-1.3613,0.0,0.0,0.0,-1.1797,0.0,0.0,0.0,0.0,0.0,0.0,0.0,0.0,0.0,0.0,0.0,0.0,0.0,0.0,0.0,-1.3653,-1.388,-1.4402,-1.4482,-1.4723,-1.5204,-1.5337,-1.5511,-1.5738,-1.5758,-1.5784,-1.5784,-1.5784,-1.5784,-1.5832,-1.8303,-1.8349,-1.6305,-1.983,-2.057,-1.9195,-2.1357,-2.2059,-2.1808,-2.231,-2.3525,-2.5106,-2.5487,-2.6717,-2.8301,-2.8301,-2.8301,-2.8301,-1.4683,-1.4798,0.0,0.0,0.0,0.0,0.0,0.0,-1.6576,-1.7125,-1.7447,0.0,0.0,0.0,0.0,0.0,0.0,0.0,-1.7144,0.0,0.0,-1.5735,-1.6979,-1.7627,-1.7447,-1.8907,-2.0223,-2.1302,-2.1436,-2.2262,0.0,0.0,0.0,0.0,-2.3965,0.0,0.0,0.0,-2.3887,0.0,-2.3769,-2.418,0.0,-2.4004,-2.3711,-2.3672,-2.3237,-2.3062,-2.2964,0.0,-2.2395,-2.2167,0.0,-2.0072,0.0,0.0,0.0,0.0,0.0,0.0,0.0,0.0,-1.4255,0.0,0.0,0.0,-1.3013,-1.2703,0.0,0.0,0.0,0.0,0.0,0.0,0.0,0.0,0.0,0.0,0.0,0.0,0.0,0.0,0.0,0.0,-1.4068,-1.4135,-1.4376,-1.4549,-1.4616,-1.511,-1.5404,-1.5444,-1.5698,-1.5784,-1.5784,-1.5784,-1.5784,-1.5832,-1.8303,-1.8764,-1.7559,-1.9317,-2.0223,-2.0345,-1.9831,-2.0566,-2.2084,-2.2531,-2.3732,-2.5254,-2.4374,-2.5772,-2.8301,-2.8301,-2.8301,-2.8301,-1.483,-1.5017,0.0,0.0,0.0,0.0,0.0,0.0,0.0,-1.9584,0.0,0.0,0.0,0.0,0.0,0.0,0.0,-1.8487,0.0,0.0,0.0,0.0,-1.6463,0.0,-1.6678,-1.7839,-1.8688,-1.9222,-1.9889,-2.0987,0.0,0.0,0.0,0.0,-2.4277,0.0,-2.4102,0.0,-2.4922,0.0,0.0,0.0,0.0,-2.4023,-2.3418,-2.3379,-2.3159,-2.3101,-2.3062,0.0,-2.2828,0.0,0.0,0.0,0.0,0.0,0.0,0.0,0.0,0.0,0.0,0.0,0.0,0.0,0.0,0.0,-1.3373,0.0,0.0,0.0,0.0,0.0,0.0,0.0,0.0,0.0,0.0,0.0,0.0,0.0,0.0,0.0,0.0,0.0,0.0,0.0,0.0,-1.4039,-1.4255,-1.483,-1.5217,-1.5391,-1.5671,-1.615,-1.6904,-1.615,-1.615,-1.6904,-1.7948,-1.7809,-1.6636,-1.8351,-1.8798,-1.8425,-1.9984,-2.0645,-2.0737,-2.1869,-2.3441,-2.5038,-2.3976,-2.5522,-2.8301,-2.8301,-2.8301,-2.8301,-1.5244,0.0,0.0,0.0,0.0,0.0,0.0,0.0,0.0,0.0,0.0,0.0,-2.2073,-2.1212,0.0,0.0,0.0,-1.9102,0.0,0.0,-1.7524,0.0,0.0,0.0,0.0,0.0,-1.7504,-1.7819,-1.895,-2.0235,0.0,0.0,0.0,0.0,0.0,-2.4844,-2.4219,0.0,0.0,-2.5362,-2.584,-2.5957,-2.5684,-2.4082,-2.3374,-2.3257,-2.314,-2.3101,-2.3101,-2.3101,-2.3101,0.0,-2.0448,0.0,0.0,0.0,0.0,0.0,-1.5458,0.0,0.0,0.0,0.0,0.0,0.0,0.0,0.0,0.0,0.0,0.0,0.0,0.0,0.0,0.0,0.0,0.0,0.0,0.0,0.0,0.0,0.0,0.0,0.0,0.0,0.0,0.0,0.0,0.0,-1.4068,-1.4687,-1.5142,-1.5391,-1.6,-1.6763,-1.7684,-1.7124,-1.7264,-1.818,-1.818,-1.7544,-1.6366,-1.7824,-1.8015,-1.7377,-1.9633,-2.0436,-2.0277,-2.1755,-2.3357,-2.4961,-2.4827,-2.6189,-2.8301,-2.8301,-2.8301,-2.832,-1.5758,-1.5578,0.0,0.0,0.0,0.0,0.0,0.0,0.0,0.0,0.0,0.0,0.0,0.0,0.0,0.0,0.0,-2.1344,-2.0764,0.0,-1.7914,0.0,0.0,-1.642,0.0,0.0,0.0,-1.8115,-1.9031,0.0,0.0,0.0,0.0,0.0,0.0,-2.5449,-2.5106,-2.5527,-2.5187,-2.4492,-2.4941,-2.4863,-2.4473,0.0,-2.4121,-2.3711,-2.3257,0.0,0.0,-2.3101,-2.3101,0.0,0.0,0.0,0.0,0.0,0.0,0.0,0.0,0.0,0.0,-1.5156,0.0,0.0,0.0,0.0,-1.4068,0.0,0.0,0.0,0.0,0.0,0.0,0.0,0.0,0.0,0.0,0.0,0.0,0.0,0.0,0.0,0.0,0.0,0.0,0.0,0.0,0.0,-1.4068,-1.4687,-1.5142,-1.5391,-1.6872,-1.7638,-1.7684,-1.881,-1.9405,-1.9451,-1.9451,-1.881,-1.7667,-1.826,-1.8557,-1.8587,-1.7988,-1.9213,-2.1709,-2.254,-2.3685,-2.5206,-2.7328,-2.8228,-2.8301,-2.8301,-2.8301,-2.8359,0.0,0.0,0.0,0.0,0.0,0.0,0.0,-1.8921,0.0,0.0,0.0,0.0,0.0,0.0,-2.3103,0.0,0.0,-2.1632,-2.097,-2.0106,0.0,0.0,0.0,-1.7007,0.0,0.0,0.0,0.0,0.0,0.0,0.0,0.0,0.0,0.0,0.0,-2.3862,0.0,0.0,0.0,0.0,0.0,-2.5859,-2.5586,0.0,0.0,-2.3641,-2.2358,-2.2403,0.0,-2.1275,-2.1257,-2.1702,-2.0477,-2.0133,-1.9798,-1.818,-1.7684,0.0,0.0,0.0,-1.5778,-1.5578,0.0,0.0,0.0,0.0,0.0,0.0,0.0,0.0,0.0,0.0,0.0,0.0,0.0,0.0,0.0,0.0,0.0,0.0,0.0,0.0,0.0,0.0,0.0,0.0,0.0,0.0,0.0,-1.5219,-1.5871,-1.5156,-1.7568,-1.8902,-1.8902,-1.9314,-1.9906,-2.0657,-1.9906,-1.8983,-1.798,-1.8364,-1.823,-1.777,-1.8574,-1.9472,-2.0364,-2.0829,-2.2623,-2.5032,-2.5023,-2.6387,-2.8301,-2.8301,-2.8301,-2.8398,-1.6308,0.0,0.0,0.0,0.0,0.0,0.0,0.0,0.0,0.0,-2.5304,0.0,-2.7245,0.0,-2.376,0.0,-2.2711,-2.1653,-2.1364,-2.0446,0.0,-1.7661,-1.7796,0.0,0.0,0.0,0.0,0.0,0.0,-1.8503,0.0,0.0,0.0,0.0,0.0,-2.3494,-2.4102,0.0,-2.5527,0.0,0.0,-2.6152,0.0,0.0,-2.4238,-2.4023,0.0,-2.1939,-2.2183,-2.0178,-2.0025,-2.0432,-1.9222,-1.9131,-1.9177,-1.7498,-1.7358,-1.7404,-1.615,-1.5784,0.0,-1.5784,-1.5618,0.0,-1.5524,0.0,0.0,0.0,0.0,0.0,0.0,0.0,0.0,0.0,0.0,0.0,0.0,-1.2502,0.0,0.0,0.0,0.0,0.0,0.0,0.0,0.0,0.0,0.0,0.0,0.0,-1.6049,-1.5805,-1.819,-1.9724,-2.0116,-2.0584,-2.1168,-2.1943,-2.0268,-1.9168,-1.8565,-1.8106,-1.7546,-1.7109,-1.833,-1.8916,-1.8997,-2.0476,-2.2323,-2.4333,-2.4915,-2.6441,-2.8301,-2.8301,-2.8476,-2.8828,0.0,0.0,0.0,0.0,-1.7221,0.0,0.0,0.0,-2.2961,0.0,-2.4276,-2.5203,-2.5225,-2.3593,-2.324,-2.5166,-2.2767,0.0,-2.2199,-2.076,0.0,0.0,-1.8223,-1.8103,-1.7246,0.0,0.0,0.0,0.0,0.0,0.0,0.0,0.0,0.0,-2.4564,0.0,-2.438,-2.5801,-2.5625,-2.4551,-2.5343,-2.5693,-2.5674,-2.5273,-2.5145,-2.4839,-2.2704,-2.168,-2.1141,-1.9786,-1.9376,-1.9222,-1.8056,-1.8457,-1.8856,-1.656,-1.6716,-1.7358,-1.6103,-1.5784,-1.5784,-1.5784,0.0,0.0,0.0,0.0,-1.5418,0.0,0.0,0.0,0.0,0.0,0.0,0.0,0.0,0.0,0.0,0.0,0.0,0.0,0.0,0.0,0.0,0.0,0.0,0.0,0.0,0.0,0.0,0.0,-1.5746,-1.7116,-1.8739,-2.0116,-2.1302,-2.2492,-2.3101,-2.3057,-2.0719,-1.9559,-1.9471,-1.7644,-1.6764,-1.678,-1.7341,-1.7595,-1.786,-2.129,-2.2749,-2.3274,-2.6635,-2.8067,-2.8174,-2.832,-2.8828,-2.9551,-1.6951,-1.7341,-1.7649,0.0,-1.7635,-1.7862,0.0,0.0,0.0,0.0,-2.3999,-2.4496,-2.6324,-2.468,-2.3942,-2.5225,-2.3158,0.0,0.0,0.0,0.0,-1.8637,-1.8945,-1.8611,-1.7502,-1.7916,0.0,-1.7355,0.0,0.0,-1.999,0.0,0.0,0.0,0.0,0.0,-2.2631,-2.49,-2.5654,-2.5362,-2.5596,-2.5937,0.0,0.0,-2.5566,-2.5141,-2.2065,-2.1334,-2.1341,-1.817,-1.7596,-1.8102,-1.7777,-1.7264,-1.6796,-1.7124,-1.6763,-1.6197,-1.5879,-1.5784,-1.5784,-1.5784,-1.5765,-1.5738,0.0,0.0,0.0,0.0,0.0,0.0,0.0,0.0,0.0,0.0,0.0,0.0,0.0,0.0,0.0,0.0,0.0,0.0,0.0,0.0,0.0,0.0,0.0,0.0,0.0,0.0,0.0,-1.6891,-1.9463,-2.0989,-2.1302,-2.2492,-2.3101,-2.3101,-2.1569,-2.0589,-2.0115,-1.8664,-1.7787,-1.7368,-1.7515,-1.7716,-1.801,-1.9124,-2.1091,-2.3249,-2.3308,-2.471,-2.6808,-2.8234,-2.8906,-2.918,-1.738,0.0,0.0,-1.8715,0.0,0.0,-1.9439,0.0,0.0,-2.3565,-2.4349,0.0,-2.537,-2.4479,-2.3936,-2.4252,-2.2846,0.0,0.0,0.0,0.0,-1.9345,-1.9345,-1.8865,-1.7809,-1.7862,0.0,-1.7447,0.0,0.0,-1.9576,0.0,0.0,0.0,0.0,-2.1523,0.0,-2.4784,-2.5664,-2.5996,-2.5771,0.0,0.0,-2.5791,-2.5693,-2.5305,-2.2183,-2.1202,-2.087,-1.7452,-1.6636,-1.7075,-1.6947,-1.6763,-1.6669,-1.681,-1.6763,-1.6527,-1.5974,-1.5784,-1.5784,-1.5784,-1.5784,-1.5784,-1.5784,-1.5784,-1.5778,0.0,0.0,0.0,0.0,0.0,0.0,0.0,0.0,0.0,0.0,0.0,0.0,0.0,0.0,0.0,0.0,0.0,0.0,0.0,0.0,0.0,0.0,0.0,0.0,-1.6755,-1.9595,-2.1144,-2.1302,-2.2853,-2.3471,-2.3101,-2.1346,-2.0377,-2.0148,-1.8483,-1.7599,-1.7447,-1.7528,-1.7689,-1.7929,-1.8987,-2.0937,-2.3274,-2.4175,-2.5255,-2.6591,-2.8473,-2.9199,-2.9297,0.0,0.0,0.0,0.0,0.0,0.0,0.0,-2.2429,0.0,-2.2633,0.0,-2.555,-2.3547,-2.3581,-2.3474,-2.2859,0.0,-2.175,-2.1203,-2.1136,-2.0735,-1.9893,-1.9586,-1.9011,-1.8075,-1.7595,0.0,0.0,0.0,0.0,-1.9338,0.0,0.0,0.0,0.0,0.0,0.0,-2.505,-2.5586,0.0,-2.5869,-2.5732,-2.5771,-2.5713,-2.5693,-2.5333,-2.2667,-2.1263,-2.0248,-1.7337,-1.6348,-1.6233,-1.5965,-1.663,-1.729,-1.6171,-1.663,-1.7276,-1.6116,-1.5784,-1.5784,-1.5784,-1.5784,-1.5784,-1.5784,-1.5784,-1.5784,-1.5784,-1.5631,-1.5378,0.0,0.0,0.0,0.0,0.0,0.0,0.0,0.0,0.0,0.0,0.0,0.0,0.0,0.0,0.0,0.0,0.0,0.0,0.0,0.0,0.0,-1.7193,-1.9434,0.0,-2.1689,0.0,-2.3745,-2.3257,-2.0915,-1.9899,-1.9919,-1.7929,-1.713,-1.7273,-1.7671,-1.7833,-1.7902,-2.0052,-2.178,-2.3375,-2.6943,-2.7706,-2.6936,-2.8951,-2.9704,-2.9707,0.0,0.0,0.0,0.0,0.0,-2.1256,-2.1937,-2.2809,-2.3323,-2.3153,-2.3998,-2.4354,-2.3799,-2.3514,-2.3166,-2.2552,-2.2191,0.0,0.0,0.0,0.0,-2.0187,-1.988,-1.9319,-1.8437,-1.8303,-1.8143,0.0,-1.7836,-1.8023,-1.8279,0.0,0.0,0.0,0.0,0.0,-2.4018,-2.4766,0.0,-2.6348,-2.5869,-2.5957,-2.623,-2.583,-2.5693,-2.5333,-2.2667,-2.1428,-2.0655,-1.7647,-1.6473,-1.6308,-1.6206,-1.6386,-1.6483,-1.6289,-1.6386,-1.6429,-1.5946,-1.5784,-1.5784,-1.5784,-1.5784,-1.5784,-1.5784,-1.5784,-1.5784,-1.5784,-1.5744,-1.5738,-1.5685,0.0,0.0,0.0,0.0,0.0,0.0,0.0,0.0,0.0,0.0,0.0,0.0,0.0,0.0,0.0,0.0,0.0,0.0,0.0,0.0,0.0,-1.9681,0.0,0.0,0.0,-2.2651,-2.4134,-2.2401,-2.1124,-2.0295,-1.9243,-1.8286,-1.7607,-1.8731,-1.8901,-1.855,-2.1256,-2.2879,-2.4005,-2.7433,-2.7952,-2.6973,-2.9277,-3.0078,-3.0156,0.0,0.0,0.0,0.0,0.0,0.0,0.0,-2.3714,0.0,-2.3594,-2.3674,-2.3634,-2.3327,-2.3313,-2.302,-2.2258,-2.2071,-2.179,-2.1349,-2.1189,-2.0922,-2.0481,-2.004,0.0,-1.8731,-1.8263,-1.8036,-1.7995,-1.7729,-1.7742,0.0,0.0,0.0,0.0,0.0,-2.1601,0.0,0.0,0.0,-2.6367,-2.6152,-2.6055,-2.6035,-2.5771,-2.5693,-2.5333,-2.2667,-2.1577,-2.0979,-1.7972,-1.6898,-1.675,-1.654,-1.65,-1.6473,-1.6313,-1.6321,-1.6206,-1.5912,-1.5784,-1.5784,-1.5784,-1.5784,-1.5784,-1.5784,-1.5784,-1.5784,-1.5784,-1.5784,-1.5784,-1.5784,-1.5471,0.0,0.0,0.0,0.0,0.0,0.0,0.0,0.0,0.0,0.0,0.0,0.0,0.0,0.0,0.0,0.0,0.0,0.0,0.0,0.0,0.0,0.0,0.0,0.0,0.0,-2.3148,-2.2593,-2.176,-2.0704,-2.039,-1.976,-1.9055,-2.0404,-2.0891,-2.0954,-2.3268,-2.4051,-2.4117,-2.7321,-2.7952,-2.7246,-2.92,-3.0156,-3.0586,0.0,-2.1122,0.0,0.0,-2.302,0.0,-2.4008,-2.4409,-2.4476,-2.4022,-2.3701,-2.3394,-2.3086,-2.322,-2.2966,-2.2071,-2.1991,-2.1737,-2.1149,-2.1109,-2.0975,-2.0695,-2.0174,-1.9613,-1.9025,-1.8196,-1.7889,0.0,-1.7609,-1.7609,0.0,0.0,0.0,0.0,0.0,0.0,0.0,0.0,-2.509,-2.6218,-2.6345,-2.623,-2.5947,-2.5752,-2.5693,-2.5333,-2.2667,-2.1693,-2.1255,-1.8269,-1.7246,-1.7166,-1.6874,-1.6807,-1.674,-1.6446,-1.6366,-1.6286,-1.5925,-1.5784,-1.5784,-1.5784,-1.5784,-1.5784,-1.5784,-1.5784,-1.5784,-1.5784,-1.5784,-1.5784,-1.5784,-1.5458,0.0,0.0,0.0,0.0,0.0,0.0,0.0,0.0,0.0,0.0,0.0,0.0,0.0,0.0,0.0,-1.4448,-1.6168,-1.6614,0.0,0.0,0.0,-2.0143,-1.9301,0.0,-2.291,0.0,-2.3017,-2.2542,-2.1459,-2.1625,-2.1374,-2.0808,-2.2152,-2.3184,-2.4016,-2.5201,-2.5324,-2.5003,-2.7592,-2.8231,-2.7955,-2.9371,-3.0293,-3.0898,0.0,0.0,0.0,0.0,0.0,0.0,0.0,-2.4275,-2.4549,-2.4569,-2.4302,-2.4008,-2.3714,-2.3474,-2.2966,-2.2071,-2.1991,-2.1737,-2.1149,-2.1109,-2.0975,-2.0695,-2.0361,-1.992,-1.939,-1.8718,-1.8424,0.0,0.0,-1.813,0.0,0.0,0.0,0.0,0.0,0.0,0.0,-2.3513,-2.5017,-2.5552,-2.6155,-2.6602,-2.6816,-2.5986,-2.5693,-2.5333,-2.2667,-2.1693,-2.1288,-1.8523,-1.742,-1.7192,-1.7166,-1.7166,-1.7099,-1.6754,-1.666,-1.654,-1.5979,-1.5784,-1.5784,-1.5784,-1.5784,-1.5784,-1.5784,-1.5784,-1.5784,-1.5784,-1.5784,-1.5784,-1.5784,-1.5744,-1.5671,0.0,0.0,0.0,0.0,0.0,0.0,0.0,0.0,0.0,0.0,0.0,0.0,0.0,0.0,-1.5233,-1.8018,-1.7293,-1.8382,-2.185,0.0,-2.1159,-2.4392,-2.2908,-2.3224,-2.5354,-2.5033,-2.4145,-2.2814,-2.3269,-2.2958,-2.222,-2.3545,-2.5297,-2.7199,-2.6387,-2.6788,-2.7983,-2.9085,-2.9436,-2.948,-3.0411,-3.082,-3.0898,0.0,0.0,0.0,0.0,0.0,0.0,0.0,-2.4596,-2.4636,-2.4636,-2.4235,-2.3901,-2.3781,-2.334,-2.2832,-2.2298,-2.2084,-2.1817,-2.1403,-2.1203,-2.1056,-2.0935,-2.0481,-2.004,-1.9639,-1.9052,-1.8664,0.0,0.0,0.0,0.0,0.0,0.0,0.0,0.0,-2.0277,-2.2059,-2.3389,-2.4915,-2.6399,-2.6962,-2.709,-2.6871,-2.5622,-2.5186,-2.4794,-2.1797,-2.082,-2.0658,-1.8545,-1.7662,-1.746,-1.746,-1.746,-1.7407,-1.7112,-1.7018,-1.6874,-1.6473,-1.6233,-1.6099,-1.6099,-1.5965,-1.5784,-1.5784,-1.5784,-1.5784,-1.5784,-1.5784,-1.5784,-1.5784,-1.5784,-1.5744,0.0,0.0,0.0,0.0,0.0,0.0,0.0,0.0,0.0,0.0,0.0,0.0,0.0,0.0,0.0,-1.8278,-1.8272,-1.9198,-2.133,0.0,-2.1344,-2.2084,-2.2546,-2.3272,-2.4253,-2.5073,-2.4887,-2.3809,-2.4858,-2.5389,-2.5611,-2.6375,-2.7223,-2.8047,-2.7596,-2.7933,-2.8711,-2.9043,-2.9492,-2.998,-3.0351,-3.0644,-3.0898,-2.3207,0.0,-2.3968,0.0,-2.4796,-2.4796,-2.5037,-2.4903,-2.473,-2.4649,-2.4128,-2.3768,-2.3768,-2.3313,-2.2846,-2.2458,-2.2151,-2.1857,-2.1641,-2.1269,-2.1109,-2.1109,-2.0628,0.0,-1.9933,-1.9359,-1.8918,-1.8624,-1.8624,0.0,0.0,0.0,0.0,0.0,-1.9194,-2.06,-2.2638,-2.372,-2.5201,-2.6812,-2.7422,-2.748,-2.7033,-2.5396,-2.4821,-2.4402,-2.129,-2.0366,-2.0258,-1.8659,-1.8036,-1.7836,-1.7742,-1.7662,-1.7528,-1.7286,-1.7206,-1.7139,-1.678,-1.6553,-1.6393,-1.6393,-1.6246,-1.6059,-1.5979,-1.5965,-1.5939,-1.5798,-1.5784,-1.5784,-1.5784,-1.5784,-1.5784,-1.5784,0.0,0.0,0.0,0.0,0.0,0.0,0.0,-1.5524,-1.5524,0.0,0.0,0.0,0.0,0.0,0.0,-1.8974,0.0,0.0,0.0,0.0,0.0,-2.3056,-2.3959,-2.4219,-2.5371,-2.5618,-2.5122,-2.6275,-2.709,-2.7748,-2.8105,-2.8359,-2.8476,-2.8476,-2.873,-2.9121,-2.9238,-2.9668,-3.0215,-3.0351,-3.0605,-3.0898,-2.4008,-2.4422,-2.481,-2.5398,-2.5745,-2.5745,-2.517,-2.5077,-2.497,-2.4676,-2.4128,-2.3768,-2.3768,-2.35,-2.3073,-2.2472,-2.2151,-2.1857,-2.1641,-2.1269,-2.1109,0.0,0.0,-2.0535,-2.0167,-1.9653,-1.9212,-1.8918,0.0,0.0,-1.8918,0.0,-1.9199,-1.8988,-2.0771,-2.1391,-2.1329,-2.4648,-2.6082,-2.6209,-2.7285,-2.7708,-2.7493,-2.5558,-2.4821,-2.4437,-2.1502,-2.0491,-2.0288,-1.8961,-1.8477,-1.8424,-1.8075,-1.7822,-1.7528,-1.7286,-1.7206,-1.7139,-1.678,-1.67,-1.67,-1.67,-1.67,-1.662,-1.6339,-1.6273,-1.6179,-1.5885,-1.5784,-1.5784,-1.5784,-1.5784,-1.5784,-1.5784,0.0,0.0,0.0,0.0,0.0,0.0,-1.5784,-1.5784,-1.5784,0.0,0.0,0.0,0.0,0.0,0.0,0.0,0.0,-2.366,-2.2619,0.0,-2.5039,-2.5059,-2.5508,-2.6367,-2.6387,-2.6602,-2.6961,-2.7461,-2.7708,-2.7748,-2.8105,-2.8535,-2.8906,-2.8906,-2.916,-2.9609,-3.0019,-3.0176,-3.0254,-3.0703,-3.0879,-3.0898,-2.4182,-2.4596,-2.493,-2.4917,-2.5157,-2.5224,-2.4836,-2.4783,-2.4743,-2.4649,-2.4302,-2.3995,-2.3794,-2.3313,-2.2846,0.0,-2.2151,-2.1857,0.0,-2.1269,-2.1109,-2.1109,-2.0828,-2.0628,-2.0535,-2.016,-1.972,-1.9225,0.0,0.0,0.0,-1.9225,-1.9212,-1.8988,-2.0771,-2.2076,-2.3102,-2.5208,-2.6662,-2.7599,-2.7985,-2.8086,-2.7907,-2.633,-2.5019,-2.3825,-2.1735,-2.0439,-1.9664,-1.9021,-1.8651,-1.8477,-1.8384,-1.8143,-1.7836,-1.7528,-1.7448,-1.7474,-1.7328,-1.7154,-1.7058,-1.7058,-1.686,-1.6687,-1.6593,-1.6567,-1.654,-1.6446,-1.6273,-1.6126,-1.6126,-1.5965,-1.5784,-1.5784,-1.5784,0.0,0.0,0.0,0.0,0.0,-1.5784,-1.5784,0.0,-1.5784,0.0,0.0,0.0,0.0,0.0,0.0,0.0,0.0,-2.4013,0.0,-2.3684,-2.5207,-2.563,-2.4955,-2.6205,-2.7051,-2.748,-2.7891,-2.8086,-2.8125,-2.8535,-2.8789,-2.8945,-2.9238,-2.9609,-3.0,-3.0137,-3.0391,-3.0684,-3.084,-3.0898,-3.0898,-2.4569,-2.501,-2.5344,-2.517,-2.5291,-2.5304,-2.501,-2.4877,-2.4756,-2.4649,-2.4289,-2.3968,-2.3794,-2.322,0.0,-2.2605,-2.2218,-2.1911,-2.1789,-2.1336,-2.1109,-2.1109,-2.0935,-2.0788,-2.0681,0.0,0.0,-1.9533,-1.9599,-1.9452,-1.9092,-1.9885,-2.0101,-2.0033,-2.227,-2.3822,-2.4765,-2.6264,-2.7438,-2.8301,-2.8301,-2.8301,-2.8121,-2.6662,-2.548,-2.4344,-2.2131,-2.087,-2.0113,-1.9374,-1.8971,-1.8784,-1.8557,-1.837,-1.813,-1.7702,-1.7582,-1.7582,-1.7582,-1.7501,-1.7367,-1.7367,-1.7168,-1.7007,-1.6901,-1.678,-1.67,-1.67,-1.6567,-1.6433,-1.6433,-1.6286,-1.6126,-1.6019,-1.5992,-1.5952,-1.5798,0.0,0.0,0.0,0.0,0.0,0.0,-1.5984,0.0,0.0,0.0,0.0,0.0,0.0,0.0,-2.4258,-2.4941,0.0,-2.4517,-2.5929,-2.6275,-2.5573,-2.7006,-2.7871,-2.8144,-2.8574,-2.8769,-2.8789,-2.9043,-2.9258,-2.9414,-2.9687,-3.0059,-3.0449,-3.0449,-3.0644,-3.0898,-3.0898,-3.0898,-3.0898,-2.5077,-2.5518,0.0,0.0,-2.5956,0.0,-2.5491,-2.5224,-2.4957,-2.4676,-2.4155,-2.3794,-2.3768,-2.3247,-2.2886,-2.2928,0.0,0.0,0.0,-2.1416,-2.1109,-2.1109,-2.1109,-2.0989,-2.0708,-2.0708,-2.0428,-1.9867,-1.9546,-1.9457,-1.9457,-2.0816,-2.1472,-2.1586,-2.4488,-2.5827,-2.6045,-2.7511,-2.8228,-2.8301,-2.8301,-2.8301,-2.8121,-2.6771,-2.6209,-2.5717,-2.2814,-2.1699,-2.1358,-1.9924,-1.9359,-1.9239,-1.8691,-1.849,-1.8343,-1.7756,-1.7582,-1.7582,-1.7582,-1.7582,-1.7582,-1.7582,-1.7582,-1.7515,-1.7286,-1.7018,-1.6767,-1.6767,-1.6754,-1.674,-1.674,-1.6727,-1.6607,-1.6326,-1.6321,-1.6166,-1.5872,0.0,0.0,0.0,0.0,0.0,0.0,-1.638,-1.7015,0.0,0.0,0.0,0.0,0.0,-2.4316,-2.5145,-2.5586,-2.6112,-2.6839,-2.7,-2.7285,-2.7806,-2.8535,-2.8945,-2.8984,-2.9394,-2.9626,-2.9626,-2.9646,-2.9844,-3.0195,-3.0234,-3.0508,-3.0898,-3.0898,-3.0898,-3.0898,-3.0898,-3.0898,-3.0898,0.0,0.0,-2.5291,-2.5291,-2.5104,-2.493,-2.485,-2.4783,-2.4716,-2.4649,-2.4329,-2.4022,-2.3794,-2.3434,-2.3113,-2.2954,-2.2325,-2.1897,-2.1735,-2.1309,-2.1109,-2.1109,-2.1109,-2.1082,-2.1002,-2.1002,-2.0828,-2.0468,-1.9947,-1.9693,-1.9693,-1.986,-1.9924,-1.9982,-2.187,-2.3319,-2.4433,-2.5991,-2.7276,-2.8301,-2.8301,-2.8301,-2.8247,-2.7906,-2.7114,-2.5882,-2.3933,-2.2533,-2.1358,-1.9924,-1.9212,-1.8998,-1.8865,-1.8517,-1.8022,-1.7689,-1.7582,-1.7582,-1.7582,-1.7582,-1.7582,-1.7582,-1.7582,-1.7569,-1.7502,-1.7422,-1.7368,-1.7368,-1.7194,-1.7099,-1.7099,-1.686,-1.6607,-1.6326,-1.6321,-1.6166,-1.5872,-1.5784,0.0,0.0,-1.6233,-1.6339,-1.6486,-1.662,-1.7227,0.0,0.0,0.0,0.0,-2.4819,-2.5723,-2.5586,-2.6309,-2.627,-2.5496,-2.6858,-2.7891,-2.8633,-2.8828,-2.9101,-2.9414,-2.9531,-2.9626,-2.9646,-2.9902,-3.0098,-3.0234,-3.0586,-3.0801,-3.0898,-3.0898,-3.0898,-3.0898,-3.0898,-3.0898,-3.0898,-2.5077,-2.5184,-2.5277,-2.5277,-2.5037,-2.4836,-2.4836,-2.473,-2.4636,-2.4636,-2.4262,-2.3941,-2.3794,-2.338,-2.3046,-2.2873,-2.2445,-2.2058,-2.1764,-2.1483,-2.1256,-2.1122,-2.1109,-2.1109,-2.1109,-2.1109,-2.0962,-2.0681,-2.0227,-1.9933,-1.98,-2.0316,-2.0582,-2.0684,-2.2724,-2.3891,-2.43,-2.5584,-2.6263,-2.6536,-2.7081,-2.7276,-2.7384,-2.8067,-2.778,-2.6825,-2.4599,-2.3766,-2.3207,-2.0371,-1.9699,-1.9976,-1.9185,-1.8704,-1.8302,-1.7929,-1.7689,-1.7582,-1.7582,-1.7582,-1.7582,-1.7582,-1.7582,-1.7582,-1.7582,-1.7582,-1.7793,-1.8408,-1.7918,-1.7549,-1.8156,-1.7561,-1.682,-1.6513,-1.6366,-1.6166,-1.5872,-1.5784,0.0,-1.6233,-1.6563,-1.679,-1.6901,-1.7275,-1.7984,-1.9081,0.0,0.0,-2.3702,-2.5548,-2.6479,-2.6298,-2.6973,-2.7168,-2.6774,-2.7979,-2.8769,-2.9219,-2.9414,-2.9629,-2.9863,-3.0078,-3.0176,-3.0195,-3.041,-3.0508,-3.0527,-3.0781,-3.0898,-3.0898,-3.0898,-3.0898,-3.082,-3.002,-3.0274,-3.0762,-2.5077,-2.5277,-2.5451,-2.5451,-2.5211,-2.501,-2.501,-2.4796,-2.4636,-2.4636,-2.4168,-2.3821,-2.3768,-2.3273,-2.2913,-2.2928,-2.2632,-2.2338,-2.2004,-2.1775,-2.1416,-2.1122,-2.1109,-2.1109,-2.1109,-2.1109,-2.0989,-2.0735,-2.0441,-2.0174,-1.9993,-2.1144,-2.1788,-2.2107,-2.4138,-2.4901,-2.4581,-2.5207,-2.4988,-2.4407,-2.5363,-2.5917,-2.63,-2.753,-2.8121,-2.796,-2.5168,-2.482,-2.5151,-2.1102,-2.0429,-2.0987,-1.9451,-1.8958,-1.8824,-1.8275,-1.7956,-1.7702,-1.7609,-1.7582,-1.7595,-1.7635,-1.7649,-1.7662,-1.7702,-1.7716,-1.8087,-1.9217,-1.8506,-1.8018,-1.913,-1.8184,-1.7099,-1.6754,-1.646,-1.6166,-1.5872,0.0,-1.6019,-1.6415,-1.6938,-1.73,-1.7393,-1.8076,-1.8892,-1.9708,-2.0852,-2.2407,0.0,-2.5865,-2.6865,-2.7273,-2.7715,-2.8301,-2.9004,-2.9394,-2.9609,-2.9668,-3.0019,-3.0234,-3.0312,-3.0703,-3.0898,-3.0898,-3.0898,-3.0898,-3.0898,-3.0898,-3.0898,-3.0898,-3.0898,-3.0898,-3.0704,-2.935,-2.9742,-3.0801,-2.5077,-2.5117,-2.5144,-2.5144,-2.4903,-2.4703,-2.4703,-2.4663,-2.4636,-2.4636,-2.4342,-2.4035,-2.3794,-2.346,-2.3153,-2.2954,-2.2819,-2.2565,-2.2017,-2.1775,-2.1416,-2.1122,-2.1109,-2.1109,-2.1109,-2.1109,-2.1082,-2.1042,-2.0748,-2.0588,-2.0535,-2.0267,-2.0822,-2.1933,-2.0902,-2.1717,-2.3875,-2.2749,-2.3076,-2.4277,-2.4194,-2.5082,-2.6421,-2.6464,-2.7222,-2.8067,-2.6372,-2.5041,-2.3877,-2.1926,-2.0587,-1.9693,-1.9421,-1.9132,-1.8905,-1.8811,-1.8584,-1.8237,-1.7716,-1.7582,-1.7649,-1.7849,-1.7916,-1.7982,-1.829,-1.8343,-1.8398,-1.8618,-1.8252,-1.8023,-1.8211,-1.7659,-1.7099,-1.6754,-1.646,-1.6166,-1.5872,0.0,-1.6455,-1.7005,-1.7367,-1.7716,-1.8237,-1.8637,-1.9569,-2.1328,-2.264,-2.4211,-2.617,-2.6477,-2.7197,-2.8579,-2.9043,-2.9391,-2.9473,-2.9531,-2.9746,-3.0098,-3.0176,-3.041,-3.0781,-3.0859,-3.0898,-3.0898,-3.0898,-3.0898,-3.0898,-3.0898,-3.0898,-3.0898,-3.0898,-3.0898,-3.0937,-3.0974,-3.1169,-3.1405,-2.4836,-2.4836,-2.4836,-2.4836,-2.473,-2.4636,-2.4636,-2.4636,-2.4636,-2.4636,-2.4382,-2.4155,-2.4022,-2.3594,-2.3273,-2.3126,-2.2953,-2.2686,-2.2245,-2.1951,-2.1577,-2.1122,-2.1109,-2.1109,-2.1109,-2.1109,-2.1109,-2.1109,-2.0975,-2.0828,-2.0668,-2.0401,-2.1087,-2.2602,-2.2449,-2.2846,-2.3685,-2.3483,-2.3006,-2.2394,-2.2686,-2.3365,-2.4146,-2.468,-2.5827,-2.6933,-2.5371,-2.4931,-2.471,-2.2363,-2.1145,-2.0429,-1.9649,-1.9279,-1.9132,-1.8971,-1.8597,-1.8183,-1.7903,-1.7716,-1.7662,-1.7916,-1.7995,-1.8075,-1.8424,-1.849,-1.8698,-1.9442,-1.8851,-1.8442,-1.9006,-1.819,-1.7341,-1.7194,-1.6673,0.0,0.0,-1.6526,-1.6727,-1.7367,-1.7929,-1.8477,-1.8918,-1.9372,-2.0372,-2.2182,-2.2879,-2.4327,-2.6909,-2.6364,-2.7011,-2.9222,-2.9687,-2.9902,-2.9902,-3.0156,-3.0371,-3.0566,-3.0566,-3.0684,-3.0898,-3.0898,-3.0898,-3.0898,-3.0898,-3.0898,-3.0898,-3.0898,-3.0898,-3.0898,-3.0898,-3.1035,-3.1132,-3.0452,-3.0901,-3.1774,-2.4636,-2.4636,-2.4636,-2.4636,-2.4636,-2.4636,-2.4636,-2.4636,-2.4636,-2.4636,-2.4436,-2.4275,-2.4209,-2.3741,-2.3407,-2.334,-2.3046,-2.2739,-2.2432,-2.2151,-2.175,-2.1229,-2.1149,-2.1109,-2.1109,-2.1109,-2.1109,-2.1109,-2.1109,-2.0989,-2.0775,-2.0708,-2.1519,-2.3066,-2.4016,-2.3979,-2.3381,-2.4095,-2.2946,-2.0752,-2.1299,-2.1715,-2.2197,-2.2972,-2.4267,-2.5426,-2.4654,-2.4654,-2.4765,-2.2758,-2.1643,-2.0859,-1.9764,-1.943,-1.9319,-1.9092,-1.8651,-1.8182,-1.8115,-1.7969,-1.7862,-1.8115,-1.8195,-1.8275,-1.8624,-1.8691,-1.9125,-2.0454,-1.9873,-1.9484,-2.0673,-1.9396,-1.8177,-1.8108,0.0,0.0,0.0,-1.733,-1.7389,-1.8342,-1.878,-1.9172,-1.9533,-2.0027,-2.0989,-2.2647,-2.311,-2.4515,-2.7265,-2.6603,-2.7082,-2.9221,-2.9907,-3.0254,-3.0351,-3.0703,-3.0898,-3.0898,-3.0898,-3.0898,-3.0898,-3.0898,-3.0898,-3.0898,-3.0898,-3.0898,-3.0898,-3.0898,-3.0898,-3.0898,-3.0996,-3.123,-3.1345,-3.0354,-3.094,-3.2202,-2.4636,-2.4636,-2.4636,-2.4636,-2.4636,-2.4636,-2.4636,-2.4636,-2.4636,-2.4636,-2.4549,-2.4502,-2.4235,-2.3928,-2.3621,-2.3354,-2.3046,-2.2739,-2.2432,-2.2151,-2.1844,-2.1601,-2.1256,-2.1109,-2.1109,-2.1109,-2.1109,-2.1109,-2.1109,-2.1096,-2.1069,-2.0802,-2.1519,-2.2883,-2.2856,-2.2736,-2.2602,-2.2796,-2.2014,-2.069,-2.0147,-2.0945,-2.2423,-2.194,-2.2702,-2.4156,-2.5426,-2.4194,-2.2081,-2.3263,-2.1828,-1.9533,-1.9417,-1.943,-1.9417,-1.9345,-1.9105,-1.8798,-1.8531,-1.8437,-1.849,-1.8784,-1.8851,-1.8931,-1.9239,-1.9305,-1.9754,-2.1242,-2.1216,-2.138,-2.2885,-2.1478,-1.9986,-1.9672,0.0,0.0,-1.9078,-1.8475,-1.8632,-2.0693,-2.0004,-1.9559,-2.0107,-2.0454,-2.1307,-2.2929,-2.4332,-2.5881,-2.7678,-2.7696,-2.7935,-2.8437,-2.9622,-3.041,-3.084,-3.0879,-3.0898,-3.0898,-3.0898,-3.0898,-3.0898,-3.0898,-3.0898,-3.0898,-3.0898,-3.0898,-3.0898,-3.0898,-3.0898,-3.0937,-3.1328,-3.1484,-3.1542,-3.228,-3.2591,-3.2793,-2.4636,-2.4636,-2.4636,-2.4636,-2.4636,-2.4636,-2.4636,-2.4636,-2.4636,-2.4636,-2.4636,-2.4596,-2.4489,-2.4048,-2.3728,-2.3607,-2.3153,-2.2887,-2.2699,-2.2245,-2.1777,-2.1296,-2.1162,-2.1109,-2.1109,-2.1109,-2.1109,-2.1109,-2.1109,-2.1109,-2.1109,-2.1002,-2.1797,-2.3318,-2.326,-2.3794,-2.4627,-2.3673,-2.2968,-2.2377,-2.0924,-2.0659,-2.1018,-2.0645,-2.132,-2.2533,-2.3095,-2.3151,-2.2927,-2.2533,-2.1699,-2.0587,-1.9707,-1.943,-1.943,-1.943,-1.9292,-1.9172,-1.9065,-1.8771,-1.8557,-1.8851,-1.8918,-1.9052,-1.9533,-1.9492,-1.9587,-2.0333,-2.038,-2.0413,-2.0843,-2.043,-1.9919,-1.9808,0.0,-1.8509,-1.9501,-1.8999,-1.9023,-2.0183,-2.0237,-2.0267,-2.0481,-2.0775,-2.2032,-2.4696,-2.5408,-2.6927,-2.9598,-2.8741,-2.7312,-2.5513,-2.6816,-2.8637,-3.0898,-3.0898,-3.0898,-3.0898,-3.0898,-3.0898,-3.0898,-3.0898,-3.0898,-3.0898,-3.0898,-3.0898,-3.0898,-3.0898,-3.1055,-3.1289,-3.1445,-3.1836,-3.2344,-3.2676,-3.2969,-3.3203,-2.4636,-2.4636,-2.4636,-2.4636,-2.4636,-2.4636,-2.4636,-2.4636,-2.4636,-2.4636,-2.4636,-2.4636,-2.4636,-2.4115,-2.3768,-2.3768,-2.3289,-2.2928,-2.2928,-2.2311,-2.1724,-2.1136,-2.1109,-2.1109,-2.1109,-2.1109,-2.1109,-2.1109,-2.1109,-2.1109,-2.1109,-2.1109,-2.1727,-2.2841,-2.3387,-2.3931,-2.4394,-2.3869,-2.3325,-2.2688,-2.1286,-2.0548,-2.0347,-2.004,-2.0437,-2.122,-2.1726,-2.2169,-2.2477,-2.1907,-2.1332,-2.0759,-1.9707,-1.943,-1.9475,-1.9924,-2.0153,-2.0396,-2.0859,-2.0787,-2.033,-1.9388,-1.9655,-2.0181,-2.0597,-2.0586,-2.062,-2.1274,-2.0977,-2.0743,-2.0987,-2.0836,-2.0607,-2.0496,-1.9649,-1.9385,-2.0354,-1.9811,-1.9695,-2.0658,-2.0733,-2.0956,-2.1534,-2.1791,-2.2999,-2.5802,-2.647,-2.7991,-3.0762,-2.9844,-2.8188,-2.5956,-2.647,-2.7811,-3.0079,-3.0079,-3.0079,-3.0138,-3.0645,-3.0898,-3.0898,-3.0898,-3.0898,-3.0898,-3.0898,-3.0957,-3.1094,-3.1094,-3.1348,-3.1738,-3.1875,-3.2285,-3.2812,-3.2949,-3.3184,-3.3418,-2.4636,-2.4636,-2.4636,-2.4636,-2.4636,-2.4636,-2.4636,-2.4636,-2.4636,-2.4636,-2.4636,-2.4636,-2.4636,-2.4115,-2.3768,-2.3768,-2.3289,-2.2928,-2.2928,-2.2311,-2.1724,-2.1136,-2.1109,-2.1109,-2.1109,-2.1109,-2.1109,-2.1109,-2.1109,-2.1109,-2.1109,-2.1109,-2.1109,-2.1172,-2.2841,-2.2654,-2.1235,-2.2904,-2.2654,-2.1082,-2.0802,-2.0681,-2.0641,-2.0347,-2.018,-2.0409,-2.1946,-2.1341,-2.0023,-2.1496,-2.0843,-1.943,-1.943,-1.943,-1.9707,-2.1202,-2.1925,-2.2586,-2.4081,-2.4803,-2.423,-2.0743,-2.1299,-2.2706,-2.2721,-2.2721,-2.3121,-2.462,-2.3638,-2.2944,-2.4444,-2.3461,-2.2364,-2.208,-2.103,-2.0602,-2.1832,-2.097,-2.0882,-2.2686,-2.1581,-2.1458,-2.342,-2.3636,-2.4301,-2.5924,-2.7512,-2.9157,-3.0762,-3.0898,-3.0879,-3.084,-2.9216,-2.8367,-2.8367,-2.8408,-2.8426,-2.8426,-3.0079,-3.0898,-3.0898,-3.0898,-3.0898,-3.0898,-3.0898,-3.1133,-3.1523,-3.1523,-3.1777,-3.2207,-3.2637,-3.2793,-3.2851,-3.3262,-3.3418,-3.3418,-2.4636,-2.4636,-2.4636,-2.4636,-2.4636,-2.4636,-2.4636,-2.4636,-2.4636,-2.4636,-2.4636,-2.4636,-2.4636,-2.4302,-2.3995,-2.3794,-2.342,-2.3006,-2.2579,-2.2392,-2.2124,-2.1737,-2.1323,-2.1109,-2.1109,-2.1109,-2.1109,-2.1109,-2.1109,-2.1109,-2.1109,-2.1109,-2.1109,-2.1109,-2.1601,-2.2215,-2.2841,-2.2153,-2.2215,-2.2764,-2.1505,-2.0855,-2.0668,-2.0575,-2.0414,-2.0227,-2.0698,-2.1244,-2.1712,-2.192,-2.2351,-2.285,-2.2965,-2.2965,-2.3126,-2.3809,-2.4127,-2.4324,-2.4804,-2.5186,-2.5133,-2.3837,-2.3954,-2.445,-2.4709,-2.4563,-2.4215,-2.3772,-2.4162,-2.44,-2.3698,-2.3414,-2.3245,-2.314,-2.1695,-2.0759,-2.13,-2.091,-2.1259,-2.3148,-2.3007,-2.3392,-2.513,-2.5253,-2.5924,-2.7572,-2.9216,-2.9844,-2.9157,-2.9157,-2.8605,-2.7512,-2.6953,-2.6712,-2.6712,-2.7871,-2.8426,-2.8426,-3.0079,-3.0898,-3.0898,-3.0898,-3.0898,-3.0898,-3.0898,-3.1133,-3.1523,-3.1523,-3.1953,-3.2617,-3.2734,-3.2969,-3.3242,-3.3379,-3.3418,-3.3418,-2.4636,-2.4636,-2.4636,-2.4636,-2.4636,-2.4636,-2.4636,-2.4636,-2.4636,-2.4636,-2.4636,-2.4636,-2.4636,-2.4275,-2.3968,-2.3781,-2.338,-2.2993,-2.2619,-2.2485,-2.2338,-2.2164,-2.171,-2.1403,-2.1283,-2.1283,-2.1229,-2.1109,-2.1109,-2.1109,-2.1109,-2.1109,-2.1109,-2.1109,-2.1109,-2.1664,-2.2529,-2.1538,-2.1664,-2.2529,-2.1475,-2.1002,-2.0842,-2.0842,-2.0735,-2.0575,-2.0575,-2.1107,-2.1744,-2.1544,-2.2039,-2.2683,-2.28,-2.28,-2.2948,-2.3794,-2.4188,-2.4596,-2.5829,-2.6454,-2.6814,-2.7293,-2.6871,-2.6454,-2.6695,-2.6557,-2.616,-2.5381,-2.5474,-2.5414,-2.4403,-2.4392,-2.4532,-2.4532,-2.3579,-2.2842,-2.3032,-2.2901,-2.3212,-2.4394,-2.4532,-2.5208,-2.6772,-2.6953,-2.7632,-2.9275,-3.0333,-3.045,-2.9471,-2.9394,-2.892,-2.8009,-2.747,-2.7236,-2.7236,-2.8382,-2.8805,-2.8721,-3.0558,-3.1387,-3.1387,-3.1387,-3.1387,-3.1387,-3.1387,-3.1641,-3.2031,-3.2031,-3.2422,-3.3047,-3.3047,-3.3203,-3.3418,-3.3418,-3.3418,-3.3418,-2.4636,-2.4636,-2.4636,-2.4636,-2.4636,-2.4636,-2.4636,-2.4636,-2.4636,-2.4636,-2.4636,-2.4636,-2.4636,-2.4168,-2.3834,-2.3808,-2.326,-2.2954,-2.2928,-2.2605,-2.2458,-2.2458,-2.2205,-2.1924,-2.1695,-2.1641,-2.1403,-2.1109,-2.1109,-2.1109,-2.1109,-2.1109,-2.1109,-2.1109,-2.1109,-2.1109,-2.1109,-2.1109,-2.1109,-2.1109,-2.1109,-2.1109,-2.1109,-2.1109,-2.1109,-2.1109,-2.1109,-2.0935,-2.077,-2.0867,-2.0774,-2.0591,-2.0618,-2.0678,-2.092,-2.2378,-2.3067,-2.402,-2.687,-2.7902,-2.8545,-3.0136,-2.9331,-2.8283,-2.8545,-2.8486,-2.8367,-2.823,-2.7048,-2.5956,-2.5802,-2.594,-2.5956,-2.5802,-2.5924,-2.5924,-2.5802,-2.5802,-2.5863,-2.6167,-2.6106,-2.6712,-2.8426,-2.8486,-2.9116,-3.082,-3.082,-3.084,-3.0996,-3.1016,-3.1016,-3.1016,-2.9938,-2.9319,-2.9137,-2.9701,-2.9701,-2.9197,-3.1207,-3.2229,-3.2229,-3.2229,-3.2229,-3.2229,-3.2229,-3.2402,-3.2793,-3.2793,-3.3047,-3.3418,-3.3418,-3.3418,-3.3418,-3.3418,-3.3418,-3.3355,-2.4676,-2.4636,-2.4636,-2.4636,-2.4636,-2.4636,-2.4636,-2.4636,-2.4636,-2.4636,-2.4636,-2.4636,-2.4636,-2.4529,-2.4356,-2.4128,-2.3567,-2.3126,-2.2873,-2.2806,-2.2766,-2.2766,-2.2767,-2.2539,-2.2231,-2.1777,-2.1403,-2.1109,-2.1109,-2.1109,-2.1109,-2.1109,-2.1109,-2.1109,-2.1109,-2.1109,-2.1109,-2.1109,-2.1109,-2.1109,-2.1109,-2.1109,-2.1109,-2.1109,-2.1109,-2.1109,-2.1109,-2.1069,-2.1164,-2.2082,-2.3037,-2.3787,-2.4114,-2.4193,-2.43,-2.5069,-2.5319,-2.5505,-2.6231,-2.6463,-2.6658,-2.7251,-2.7074,-2.7435,-2.9801,-2.9353,-2.8051,-2.6772,-2.6383,-2.5883,-2.4409,-2.5292,-2.5821,-2.4332,-2.5192,-2.5558,-2.4301,-2.4116,-2.5085,-2.7572,-2.6772,-2.7134,-3.0079,-2.9157,-2.9227,-3.1229,-3.0197,-3.0208,-3.1815,-3.1894,-3.1894,-3.1894,-3.1651,-3.0879,-2.9411,-3.1213,-3.1275,-2.9596,-3.1359,-3.2229,-3.2229,-3.2229,-3.2229,-3.2229,-3.2229,-3.2402,-3.2793,-3.2793,-3.3047,-3.3418,-3.3418,-3.3418,-3.3418,-3.3418,-3.3418,-3.3228,-2.4877,-2.473,-2.4636,-2.4636,-2.4636,-2.4636,-2.4636,-2.4636,-2.4636,-2.4636,-2.4636,-2.4636,-2.4636,-2.4516,-2.4315,-2.4022,-2.3714,-2.3407,-2.31,-2.3086,-2.302,-2.2941,-2.2928,-2.2726,-2.2432,-2.2124,-2.175,-2.1323,-2.1323,-2.1256,-2.1109,-2.1109,-2.1109,-2.1109,-2.1109,-2.1109,-2.1109,-2.1109,-2.1109,-2.1109,-2.1109,-2.1109,-2.1109,-2.1109,-2.1109,-2.1109,-2.1109,-2.1109,-2.1209,-2.1846,-2.2465,-2.3005,-2.323,-2.329,-2.332,-2.3623,-2.3668,-2.3854,-2.4655,-2.495,-2.5248,-2.6153,-2.652,-2.7056,-2.8613,-2.8315,-2.7439,-2.6575,-2.6536,-2.6602,-2.6421,-2.7221,-2.7847,-2.7737,-2.8437,-2.8681,-2.7825,-2.7702,-2.8315,-2.999,-2.9489,-2.961,-3.1365,-3.0749,-3.0645,-3.1737,-3.1073,-3.1047,-3.2148,-3.2229,-3.1783,-3.095,-3.1138,-3.0406,-2.8547,-2.9903,-3.0502,-3.0221,-3.1139,-3.1989,-3.2754,-3.1927,-3.1989,-3.2773,-3.2773,-3.2891,-3.3086,-3.3086,-3.3223,-3.3418,-3.3418,-3.2892,-3.2237,-3.3082,-3.3555,-3.3622,-2.509,-2.4836,-2.4636,-2.4636,-2.4676,-2.469,-2.4649,-2.4676,-2.469,-2.4649,-2.4636,-2.4636,-2.4636,-2.4422,-2.4155,-2.3875,-2.3848,-2.3701,-2.3354,-2.3327,-2.3193,-2.2873,-2.2928,-2.2752,-2.2498,-2.2498,-2.2191,-2.1614,-2.1614,-2.1403,-2.1109,-2.1109,-2.1109,-2.1109,-2.1109,-2.1109,-2.1109,-2.1109,-2.1109,-2.1109,-2.1109,-2.1109,-2.1109,-2.1109,-2.1109,-2.1109,-2.1109,-2.1109,-2.1109,-2.1109,-2.1299,-2.1538,-2.1538,-2.1727,-2.1978,-2.2034,-2.2048,-2.23,-2.3473,-2.3933,-2.4459,-2.5817,-2.6373,-2.6696,-2.7017,-2.6999,-2.69,-2.69,-2.7013,-2.7474,-2.8852,-2.9404,-3.0,-3.1153,-3.1844,-3.2107,-3.1783,-3.1783,-3.1905,-3.2168,-3.2229,-3.2229,-3.2229,-3.1966,-3.1944,-3.2266,-3.2082,-3.2041,-3.2383,-3.2118,-3.128,-2.9797,-2.9806,-2.9008,-2.7198,-2.7818,-2.8952,-3.0384,-3.0384,-3.1433,-3.3355,-3.1899,-3.2027,-3.3418,-3.3418,-3.3418,-3.3418,-3.3418,-3.3418,-3.3418,-3.3418,-3.2492,-3.1451,-3.2969,-3.3617,-3.3746,-2.513,-2.4836,-2.4636,-2.4636,-2.485,-2.493,-2.4676,-2.485,-2.493,-2.4676,-2.4636,-2.4636,-2.4636,-2.4596,-2.4462,-2.4168,-2.4142,-2.3915,-2.3367,-2.3327,-2.3193,-2.2873,-2.2928,-2.2914,-2.2806,-2.2806,-2.2459,-2.1614,-2.1614,-2.1403,-2.1109,-2.1109,-2.1109,-2.1109,-2.1109,-2.1109,-2.1109,-2.1109,-2.1109,-2.1109,-2.1109,-2.1109,-2.1109,-2.1109,-2.1109,-2.1109,-2.1109,-2.1109,-2.1109,-2.1109,-2.2041,-2.3263,-2.3263,-2.4224,-2.5439,-2.5746,-2.5859,-2.5673,-2.4705,-2.4505,-2.466,-2.5141,-2.5328,-2.5812,-2.7622,-2.7536,-2.709,-2.709,-2.7338,-2.7582,-2.7584,-2.899,-2.9618,-2.8215,-3.0316,-3.1703,-3.0236,-3.005,-3.0562,-3.2046,-3.2229,-3.2229,-3.2229,-3.0888,-3.0754,-3.2552,-3.1415,-3.1421,-3.316,-3.1795,-3.0883,-3.0609,-2.9241,-2.7637,-2.5777,-2.7421,-2.8295,-2.8558,-2.8558,-3.0272,-3.3418,-3.3165,-3.3165,-3.3418,-3.3418,-3.3418,-3.3418,-3.3418,-3.3418,-3.3418,-3.3418,-3.3292,-3.314,-3.3784,-3.3244,-3.2138,-2.5598,-2.5331,-2.513,-2.513,-2.5237,-2.5224,-2.493,-2.4997,-2.497,-2.4676,-2.4636,-2.4636,-2.4636,-2.4636,-2.4583,-2.4449,-2.4449,-2.4262,-2.3848,-2.3821,-2.3607,-2.314,-2.3126,-2.3046,-2.2928,-2.2928,-2.2592,-2.2031,-2.2031,-2.1804,-2.1363,-2.1363,-2.1269,-2.1109,-2.1109,-2.1109,-2.1109,-2.1109,-2.1109,-2.1109,-2.1109,-2.1203,-2.1363,-2.1363,-2.1456,-2.1577,-2.1416,-2.1256,-2.1109,-2.1109,-2.1601,-2.2215,-2.2215,-2.2832,-2.3606,-2.3754,-2.3932,-2.3916,-2.3284,-2.3257,-2.3426,-2.3553,-2.3722,-2.4348,-2.6275,-2.6405,-2.6514,-2.7507,-2.7882,-2.8274,-2.9072,-2.9176,-2.9439,-3.0556,-3.0284,-3.0012,-3.0248,-3.0311,-3.0962,-3.2665,-3.2871,-3.2871,-3.2871,-3.221,-3.2142,-3.3062,-3.2497,-3.2049,-3.1963,-3.124,-3.0384,-2.9409,-2.8624,-2.7304,-2.5517,-2.6306,-2.6816,-2.7004,-2.7799,-3.0012,-3.3355,-3.2365,-3.2492,-3.3418,-3.3418,-3.3418,-3.3418,-3.3418,-3.3418,-3.3418,-3.3418,-3.3418,-3.3243,-3.1888,-3.1617,-3.1814]},{"header":{"parameterUnit":"m.s-1","parameterCategory":1,"la1":30.6,"la2":28.766,"lo1":-90.7593,"lo2":-88.6598,"dy":0.0162,"dx":0.0183,"nx":116,"ny":114,"refTime":"2023-04-18T12:00:00:Z","depth":0,"parameterNumber":3,"parameterNumberName":"V-component_of_WINDS"},"data":[0.0,0.0,0.0,0.0,0.0,0.0,0.0,0.0,0.0,0.0,0.0,0.0,0.0,0.0,0.0,0.0,0.0,0.0,0.0,0.0,0.0,0.0,0.0,0.0,0.0,0.0,0.0,0.0,0.0,0.0,0.0,0.0,0.0,0.0,0.0,0.0,0.0,0.0,0.0,0.0,0.0,0.0,0.0,0.0,0.0,0.0,0.0,0.0,0.0,0.0,0.0,0.0,0.0,0.0,0.0,0.0,0.0,0.0,0.0,0.0,0.0,0.0,0.0,0.0,0.0,0.0,0.0,0.0,0.0,0.0,0.0,0.0,0.0,0.0,0.0,0.0,0.0,0.0,0.0,0.0,0.0,0.0,0.0,0.0,0.0,0.0,0.0,0.0,0.0,0.0,0.0,0.0,0.0,0.0,0.0,0.0,0.0,0.0,0.0,0.0,0.0,0.0,0.0,0.0,0.0,0.0,0.0,0.0,0.0,0.0,0.0,0.0,0.0,0.0,0.0,0.0,0.0,0.0,0.0,0.0,0.0,0.0,0.0,0.0,0.0,0.0,0.0,0.0,0.0,0.0,0.0,0.0,0.0,0.0,0.0,0.0,0.0,0.0,0.0,0.0,0.0,0.0,0.0,0.0,0.0,0.0,0.0,0.0,0.0,0.0,0.0,0.0,0.0,0.0,0.0,0.0,0.0,0.0,0.0,0.0,0.0,0.0,0.0,0.0,0.0,0.0,0.0,0.0,0.0,0.0,0.0,0.0,0.0,0.0,0.0,0.0,0.0,0.0,0.0,0.0,0.0,0.0,0.0,0.0,0.0,0.0,0.0,0.0,0.0,0.0,0.0,0.0,0.0,0.0,0.0,0.0,0.0,0.0,0.0,0.0,0.0,0.0,0.0,0.0,0.0,0.0,0.0,0.0,0.0,0.0,0.0,0.0,0.0,0.0,0.0,0.0,0.0,0.0,0.0,0.0,0.0,0.0,0.0,0.0,0.0,0.0,0.0,0.0,0.0,0.0,0.0,0.0,0.0,0.0,0.0,0.0,0.0,0.0,0.0,0.0,0.0,0.0,0.0,0.0,0.0,0.0,0.0,0.0,0.0,0.0,0.0,0.0,0.0,0.0,0.0,0.0,0.0,0.0,0.0,0.0,0.0,0.0,0.0,0.0,0.0,0.0,0.0,0.0,0.0,0.0,0.0,0.0,0.0,0.0,0.0,0.0,0.0,0.0,0.0,0.0,0.0,0.0,0.0,0.0,0.0,0.0,0.0,0.0,0.0,0.0,0.0,0.0,0.0,0.0,0.0,0.0,0.0,0.0,0.0,0.0,0.0,0.0,0.0,0.0,0.0,0.0,0.0,0.0,0.0,0.0,0.0,0.0,0.0,0.0,0.0,0.0,0.0,0.0,0.0,0.0,0.0,0.0,0.0,0.0,0.0,0.0,0.0,0.0,0.0,0.0,0.0,0.0,0.0,0.0,0.0,0.0,0.0,0.0,0.0,0.0,0.0,0.0,0.0,0.0,0.0,0.0,0.0,0.0,0.0,0.0,0.0,0.0,0.0,0.0,0.0,0.0,0.0,0.0,0.0,0.0,0.0,0.0,0.0,0.0,0.0,0.0,0.0,0.0,0.0,0.0,0.0,0.0,0.0,0.0,0.0,0.0,0.0,0.0,0.0,0.0,0.0,0.0,0.0,0.0,0.0,0.0,0.0,0.0,0.0,0.0,0.0,0.0,0.0,0.0,0.0,0.0,0.0,0.0,0.0,0.0,0.0,0.0,0.0,0.0,0.0,0.0,0.0,0.0,0.0,0.0,0.0,0.0,0.0,0.0,0.0,0.0,0.0,0.0,0.0,0.0,0.0,0.0,0.0,0.0,0.0,0.0,0.0,0.0,0.0,0.0,0.0,0.0,0.0,0.0,0.0,0.0,0.0,0.0,0.0,0.0,0.0,0.0,0.0,0.0,0.0,0.0,0.0,0.0,0.0,0.0,0.0,0.0,0.0,0.0,0.0,0.0,0.0,0.0,0.0,0.0,0.0,0.0,0.0,0.0,0.0,0.0,0.0,0.0,0.0,0.0,0.0,0.0,0.0,0.0,0.0,0.0,0.0,0.0,0.0,0.0,0.0,0.0,0.0,0.0,0.0,0.0,0.0,0.0,0.0,0.0,0.0,0.0,0.0,0.0,0.0,0.0,0.0,0.0,0.0,0.0,0.0,0.0,0.0,0.0,0.0,0.0,0.0,0.0,0.0,0.0,0.0,0.0,0.0,0.0,0.0,0.0,0.0,0.0,0.0,0.0,0.0,0.0,0.0,0.0,0.0,0.0,0.0,0.0,0.0,0.0,0.0,0.0,0.0,0.0,0.0,0.0,0.0,0.0,0.0,0.0,0.0,0.0,0.0,0.0,0.0,0.0,0.0,0.0,0.0,0.0,0.0,0.0,0.0,0.0,0.0,0.0,0.0,0.0,0.0,0.0,0.0,0.0,0.0,0.0,0.0,0.0,0.0,0.0,0.0,0.0,0.0,0.0,0.0,0.0,0.0,0.0,0.0,0.0,0.0,0.0,0.0,0.0,0.0,0.0,0.0,0.0,0.0,0.0,0.0,0.0,0.0,0.0,0.0,0.0,0.0,0.0,0.0,0.0,0.0,0.0,0.0,0.0,0.0,0.0,0.0,0.0,0.0,0.0,0.0,0.0,0.0,0.0,0.0,0.0,0.0,0.0,0.0,0.0,0.0,0.0,0.0,0.0,0.0,0.0,0.0,0.0,0.0,0.0,0.0,0.0,0.0,0.0,0.0,0.0,0.0,0.0,0.0,0.0,0.0,0.0,0.0,0.0,0.0,0.0,0.0,0.0,0.0,0.0,0.0,0.0,0.0,0.0,0.0,0.0,0.0,0.0,0.0,0.0,0.0,0.0,0.0,0.0,0.0,0.0,0.0,0.0,0.0,0.0,0.0,0.0,0.0,0.0,0.0,0.0,0.0,0.0,0.0,0.0,0.0,0.0,0.0,0.0,0.0,0.0,0.0,0.0,0.0,0.0,0.0,0.0,0.0,0.0,0.0,0.0,0.0,0.0,0.0,0.0,0.0,0.0,0.0,0.0,0.0,0.0,0.0,0.0,0.0,0.0,0.0,0.0,0.0,0.0,0.0,0.0,0.0,0.0,0.0,0.0,0.0,0.0,0.0,0.0,0.0,0.0,0.0,0.0,0.0,0.0,0.0,0.0,0.0,0.0,0.0,0.0,0.0,0.0,0.0,0.0,0.0,0.0,0.0,0.0,0.0,0.0,0.0,0.0,0.0,0.0,0.0,0.0,0.0,0.0,0.0,0.0,0.0,0.0,0.0,0.0,0.0,0.0,0.0,0.0,0.0,0.0,0.0,0.0,0.0,0.0,0.0,0.0,0.0,0.0,0.0,0.0,0.0,0.0,0.0,0.0,0.0,0.0,0.0,0.0,0.0,0.0,0.0,0.0,0.0,0.0,0.0,0.0,0.0,0.0,0.0,0.0,0.0,0.0,0.0,0.0,0.0,0.0,0.0,0.0,0.0,0.0,0.0,0.0,0.0,0.0,0.0,0.0,0.0,0.0,0.0,0.0,0.0,0.0,0.0,0.0,0.0,0.0,0.0,0.0,0.0,0.0,0.0,0.0,0.0,0.0,0.0,0.0,0.0,0.0,0.0,0.0,0.0,0.0,0.0,0.0,0.0,0.0,0.0,0.0,0.0,0.0,0.0,0.0,0.0,0.0,0.0,0.0,0.0,0.0,0.0,0.0,0.0,0.0,0.0,0.0,0.0,0.0,0.0,0.0,0.0,0.0,0.0,0.0,0.0,0.0,0.0,0.0,0.0,0.0,0.0,0.0,0.0,0.0,0.0,0.0,0.0,0.0,0.0,0.0,0.0,0.0,0.0,0.0,0.0,0.0,0.0,0.0,0.0,0.0,0.0,0.0,0.0,0.0,0.0,0.0,0.0,0.0,0.0,0.0,0.0,0.0,0.0,0.0,0.0,0.0,0.0,0.0,0.0,0.0,0.0,0.0,0.0,0.0,0.0,0.0,0.0,0.0,0.0,0.0,0.0,0.0,0.0,0.0,0.0,0.0,0.0,0.0,0.0,0.0,0.0,0.0,0.0,0.0,0.0,0.0,0.0,0.0,0.0,0.0,0.0,0.0,0.0,0.0,0.0,0.0,0.0,0.0,0.0,0.0,0.0,0.0,0.0,0.0,0.0,0.0,0.0,0.0,0.0,0.0,0.0,0.0,0.0,0.0,0.0,0.0,0.0,0.0,0.0,0.0,0.0,0.0,0.0,0.0,0.0,0.0,0.0,0.0,0.0,0.0,0.0,0.0,0.0,0.0,0.0,0.0,0.0,0.0,0.0,0.0,0.0,0.0,0.0,0.0,0.0,0.0,0.0,0.0,0.0,0.0,0.0,0.0,0.0,0.0,0.0,0.0,0.0,0.0,0.0,0.0,0.0,0.0,0.0,0.0,0.0,0.0,0.0,0.0,0.0,0.0,0.0,0.0,0.0,0.0,0.0,0.0,0.0,0.0,0.0,0.0,0.0,0.0,0.0,0.0,0.0,0.0,0.0,0.0,0.0,0.0,0.0,0.0,0.0,0.0,0.0,0.0,0.0,0.0,0.0,0.0,0.0,0.0,0.0,0.0,0.0,0.0,0.0,0.0,0.0,0.0,0.0,0.0,0.0,0.0,0.0,0.0,0.0,0.0,0.0,0.0,0.0,0.0,0.0,0.0,0.0,0.0,0.0,0.0,0.0,0.0,0.0,0.0,0.0,0.0,0.0,0.0,0.0,0.0,0.0,0.0,0.0,0.0,0.0,0.0,0.0,0.0,0.0,0.0,0.0,0.0,0.0,0.0,0.0,0.0,0.0,0.0,0.0,0.0,0.0,0.0,0.0,0.0,0.0,0.0,0.0,0.0,0.0,0.0,0.0,0.0,0.0,0.0,0.0,0.0,0.0,0.0,0.0,0.0,0.0,0.0,0.0,0.0,0.0,0.0,0.0,0.0,0.0,0.0,0.0,0.0,0.0,0.0,0.0,0.0,0.0,0.0,0.0,0.0,0.0,0.0,0.0,0.0,0.0,0.0,0.0,0.0,0.0,0.0,0.0,0.0,0.0,0.0,0.0,0.0,0.0,0.0,0.0,0.0,0.0,0.0,0.0,0.0,0.0,0.0,0.0,0.0,0.0,0.0,0.0,0.0,0.0,0.0,0.0,0.0,0.0,0.0,0.0,0.0,0.0,0.0,0.0,0.0,0.0,0.0,0.0,0.0,0.0,0.0,0.0,0.0,0.0,0.0,0.0,0.0,0.0,0.0,0.0,0.0,0.0,0.0,0.0,0.0,0.0,0.0,0.0,0.0,0.0,0.0,0.0,0.0,0.0,0.0,0.0,0.0,0.0,0.0,0.0,0.0,0.0,0.0,0.0,0.0,0.0,0.0,0.0,0.0,0.0,0.0,0.0,0.0,0.0,0.0,0.0,0.0,0.0,0.0,0.0,0.0,0.0,0.0,0.0,0.0,0.0,0.0,0.0,0.0,0.0,0.0,0.0,0.0,0.0,0.0,0.0,0.0,0.0,0.0,0.0,0.0,0.0,0.0,0.0,0.0,0.0,0.0,0.0,0.0,0.0,0.0,0.0,0.0,0.0,0.0,0.0,0.0,0.0,0.0,0.0,0.0,0.0,0.0,0.0,0.0,0.0,0.0,0.0,0.0,0.0,0.0,0.0,0.0,0.0,0.0,0.0,0.0,0.0,0.0,0.0,0.0,0.0,0.0,0.0,0.0,0.0,0.0,0.0,0.0,0.0,0.0,0.0,0.0,0.0,0.0,0.0,0.0,0.0,0.0,0.0,0.0,0.0,0.0,0.0,0.0,0.0,0.0,0.0,0.0,0.0,0.0,0.0,0.0,0.0,0.0,0.0,0.0,0.0,0.0,0.0,0.0,0.0,0.0,0.0,0.0,0.0,0.0,0.0,0.0,0.0,0.0,0.0,0.0,0.0,0.0,0.0,0.0,0.0,0.0,0.0,0.0,0.0,0.0,0.0,0.0,0.0,0.0,0.0,0.0,0.0,0.0,2.8607,0.0,0.0,0.0,0.0,0.0,0.0,0.0,0.0,0.0,0.0,0.0,0.0,0.0,0.0,0.0,0.0,0.0,0.0,0.0,0.0,0.0,0.0,0.0,0.0,0.0,0.0,0.0,0.0,0.0,0.0,0.0,0.0,0.0,0.0,0.0,0.0,0.0,0.0,0.0,3.6164,3.6004,3.6761,3.822,3.9149,3.9605,0.0,0.0,0.0,0.0,0.0,0.0,0.0,0.0,0.0,0.0,0.0,0.0,0.0,0.0,0.0,0.0,0.0,0.0,0.0,0.0,0.0,0.0,0.0,0.0,0.0,0.0,0.0,0.0,0.0,0.0,0.0,0.0,0.0,0.0,0.0,0.0,0.0,0.0,0.0,0.0,0.0,0.0,0.0,0.0,0.0,0.0,0.0,0.0,0.0,0.0,0.0,0.0,0.0,0.0,0.0,0.0,0.0,0.0,0.0,0.0,0.0,0.0,0.0,0.0,0.0,0.0,0.0,0.0,0.0,0.0,0.0,2.9883,0.0,0.0,0.0,0.0,0.0,0.0,0.0,0.0,0.0,0.0,0.0,0.0,0.0,0.0,0.0,0.0,0.0,0.0,0.0,0.0,0.0,0.0,0.0,0.0,0.0,0.0,0.0,0.0,0.0,0.0,0.0,0.0,0.0,0.0,0.0,0.0,0.0,3.7427,3.5707,3.5615,3.7135,3.8693,3.9475,3.9547,3.98,0.0,0.0,0.0,0.0,0.0,0.0,0.0,0.0,0.0,0.0,0.0,0.0,0.0,0.0,0.0,0.0,0.0,0.0,0.0,0.0,0.0,0.0,0.0,0.0,0.0,0.0,0.0,0.0,0.0,0.0,0.0,0.0,0.0,0.0,0.0,0.0,0.0,0.0,0.0,0.0,0.0,0.0,0.0,0.0,0.0,0.0,0.0,0.0,0.0,0.0,0.0,0.0,0.0,0.0,0.0,0.0,0.0,0.0,0.0,0.0,0.0,0.0,0.0,3.7313,3.7642,3.7405,3.8125,3.7719,3.6355,3.5514,3.2721,2.8926,0.0,0.0,0.0,0.0,0.0,0.0,0.0,0.0,0.0,0.0,0.0,0.0,0.0,0.0,0.0,0.0,0.0,0.0,0.0,0.0,0.0,0.0,0.0,0.0,0.0,0.0,0.0,0.0,0.0,0.0,0.0,0.0,0.0,0.0,3.5671,3.5728,3.591,3.6137,3.6939,3.8337,4.0554,4.1588,4.1539,3.9882,4.0189,4.188,0.0,0.0,0.0,0.0,0.0,0.0,0.0,0.0,0.0,0.0,0.0,0.0,0.0,0.0,0.0,0.0,0.0,0.0,0.0,0.0,0.0,0.0,0.0,0.0,0.0,0.0,0.0,0.0,0.0,0.0,0.0,0.0,0.0,0.0,0.0,0.0,0.0,0.0,0.0,0.0,0.0,3.1628,3.2136,0.0,0.0,0.0,0.0,0.0,0.0,0.0,0.0,0.0,0.0,0.0,0.0,0.0,3.7186,3.9217,3.9309,3.9402,3.9537,4.0899,4.0899,3.969,4.0426,4.029,3.9503,3.9374,0.0,3.2544,3.1055,0.0,0.0,0.0,0.0,0.0,0.0,0.0,0.0,0.0,0.0,0.0,0.0,0.0,0.0,0.0,0.0,0.0,0.0,0.0,0.0,0.0,0.0,0.0,0.0,0.0,0.0,0.0,0.0,0.0,0.0,0.0,0.0,3.504,3.5354,3.5738,3.6096,3.7822,3.9245,4.0276,4.1641,4.2815,4.3729,4.2444,4.1799,4.1576,4.0223,0.0,0.0,0.0,0.0,0.0,0.0,0.0,0.0,0.0,0.0,0.0,0.0,0.0,0.0,0.0,0.0,0.0,0.0,0.0,0.0,0.0,0.0,0.0,0.0,0.0,0.0,0.0,0.0,0.0,0.0,0.0,0.0,0.0,0.0,0.0,0.0,0.0,0.0,0.0,3.2577,3.3431,3.2437,3.4605,3.524,0.0,0.0,0.0,0.0,0.0,0.0,0.0,0.0,0.0,3.8745,3.9142,3.9967,4.1339,4.1745,4.2185,4.2651,4.3295,4.3234,4.2625,4.2489,4.2523,4.2584,4.1704,4.0223,3.8193,3.5588,3.41,3.3478,0.0,0.0,0.0,0.0,3.2388,3.2679,0.0,0.0,0.0,0.0,0.0,0.0,0.0,0.0,0.0,0.0,0.0,0.0,0.0,0.0,0.0,3.1588,0.0,0.0,0.0,0.0,0.0,0.0,0.0,3.4873,3.4264,3.5431,3.6714,3.8115,4.0004,4.1361,4.2291,4.3156,4.4449,4.5962,4.5472,4.4284,4.2557,4.1238,4.0358,3.9817,0.0,0.0,0.0,0.0,0.0,0.0,0.0,0.0,0.0,0.0,0.0,0.0,0.0,0.0,0.0,0.0,0.0,0.0,0.0,0.0,0.0,0.0,0.0,0.0,0.0,0.0,0.0,0.0,0.0,0.0,0.0,0.0,0.0,0.0,0.0,0.0,0.0,3.3862,3.4907,3.3028,3.569,3.6777,0.0,0.0,0.0,0.0,0.0,0.0,3.8433,3.9794,4.0983,4.1843,4.2237,4.2758,4.3436,4.4012,4.4587,4.519,4.5331,4.5331,4.5156,4.4756,4.479,4.5122,4.3944,4.3234,4.2625,3.9478,3.7178,3.5656,3.56,3.5735,3.5836,3.5464,3.543,3.5566,0.0,0.0,0.0,0.0,0.0,0.0,0.0,0.0,0.0,0.0,0.0,0.0,0.0,0.0,3.2505,3.5594,3.5651,3.5459,0.0,0.0,0.0,0.0,3.3216,3.3576,3.3546,3.6034,3.9005,4.2488,4.2364,4.292,4.4188,4.5752,4.7049,4.8139,4.8313,4.7665,4.6312,4.3403,4.2151,4.2016,4.062,0.0,0.0,0.0,0.0,0.0,0.0,0.0,0.0,0.0,0.0,0.0,0.0,0.0,0.0,0.0,0.0,0.0,0.0,0.0,0.0,0.0,0.0,0.0,0.0,0.0,0.0,0.0,0.0,0.0,0.0,0.0,0.0,0.0,0.0,0.0,0.0,0.0,0.0,3.4568,3.8054,0.0,0.0,0.0,0.0,3.8399,3.9833,4.1295,4.2717,4.3709,4.4933,4.6422,4.5814,4.5843,4.6549,4.6616,4.665,4.6684,4.7394,4.7394,4.6718,4.7394,4.7327,4.6684,4.6616,4.5771,4.4209,4.0485,3.887,3.8565,3.6411,3.6062,3.6558,3.5081,3.5013,3.5498,0.0,0.0,0.0,0.0,0.0,0.0,0.0,0.0,0.0,0.0,0.0,0.0,0.0,3.4924,3.6777,3.7887,3.8789,3.8392,3.6267,0.0,0.0,0.0,3.4024,3.4921,3.6596,3.9059,4.1245,4.319,4.4991,4.6001,4.6232,4.7507,4.8624,4.9667,5.0402,5.0325,4.9424,4.594,4.3639,4.2151,4.0696,3.9952,0.0,0.0,0.0,0.0,0.0,0.0,0.0,0.0,0.0,0.0,0.0,0.0,0.0,0.0,0.0,0.0,0.0,0.0,0.0,0.0,0.0,0.0,0.0,0.0,0.0,0.0,0.0,0.0,0.0,0.0,0.0,0.0,0.0,0.0,0.0,0.0,0.0,3.9846,4.1689,0.0,4.1862,4.1814,4.1799,4.1789,4.3202,4.4691,4.6094,4.7428,4.8568,4.9627,4.8917,4.8646,4.8917,4.8443,4.8206,4.8206,4.8477,4.8477,4.8206,4.8003,4.8037,4.8173,4.7192,4.6481,4.5872,4.4045,4.2455,4.1035,4.0223,3.9783,3.9546,3.9005,3.8667,3.8464,0.0,0.0,0.0,0.0,0.0,0.0,0.0,0.0,0.0,0.0,0.0,3.1954,3.4638,3.7489,3.9605,4.0676,4.0745,3.9798,3.7614,0.0,0.0,3.4173,3.4623,3.6313,3.949,4.1398,4.3196,4.484,4.6936,4.7943,4.7849,4.8716,4.9756,5.093,5.186,5.2322,5.2164,4.9492,4.6447,4.3301,4.1847,4.1373,4.1297,0.0,0.0,0.0,0.0,0.0,0.0,0.0,0.0,0.0,0.0,0.0,0.0,0.0,0.0,0.0,0.0,0.0,0.0,0.0,0.0,0.0,0.0,0.0,0.0,0.0,0.0,0.0,0.0,0.0,0.0,0.0,0.0,0.0,0.0,0.0,4.1786,4.3906,4.5629,4.664,4.6487,4.6186,4.5991,4.5961,4.7144,4.8299,4.9192,5.0256,5.1082,5.1555,5.0608,5.0101,5.0101,4.9357,4.9018,4.9018,4.9018,4.9018,4.8984,4.8511,4.8545,4.8951,4.797,4.7394,4.7124,4.638,4.5026,4.3403,4.2861,4.2219,4.1542,4.1305,4.0899,4.0451,0.0,0.0,0.0,0.0,0.0,0.0,0.0,0.0,0.0,0.0,2.9204,3.2278,3.6787,3.8585,4.0744,4.3967,4.1257,3.9373,3.9379,3.5669,0.0,3.3574,3.4891,3.7576,4.1845,4.2917,4.4889,4.7809,4.8256,4.8602,4.8944,4.9595,5.0668,5.202,5.2748,5.3656,5.4566,5.389,5.0642,4.5838,4.4215,4.3978,4.431,0.0,0.0,0.0,0.0,0.0,0.0,0.0,0.0,0.0,0.0,0.0,0.0,0.0,0.0,0.0,0.0,0.0,0.0,0.0,0.0,0.0,0.0,0.0,0.0,0.0,0.0,0.0,0.0,0.0,0.0,0.0,0.0,0.0,3.8692,4.2928,4.6159,4.6394,4.9711,5.1549,5.0443,5.076,5.1006,5.0968,5.1666,5.2029,5.199,5.2235,5.2334,5.2334,5.0913,5.0168,5.0168,4.9424,4.9052,4.9052,4.9018,4.9018,4.9018,4.9018,4.9018,4.9018,4.9018,4.8578,4.7838,4.7124,4.638,4.5568,4.4045,4.2963,4.2185,4.1508,4.1204,4.1068,0.0,0.0,0.0,0.0,0.0,0.0,0.0,0.0,0.0,0.0,3.196,3.5314,3.846,4.1258,4.313,4.3529,4.0988,3.92,3.8721,0.0,0.0,3.5579,3.7375,4.0334,4.467,4.629,4.8175,5.0454,5.182,5.2172,5.1614,5.2488,5.3106,5.354,5.4537,5.5132,5.5378,5.5209,5.3957,5.1826,4.8142,4.6177,4.5196,0.0,0.0,0.0,0.0,0.0,0.0,0.0,0.0,0.0,0.0,0.0,0.0,0.0,0.0,0.0,0.0,0.0,0.0,0.0,0.0,0.0,0.0,0.0,0.0,0.0,0.0,0.0,0.0,0.0,0.0,0.0,0.0,4.4065,4.392,4.6144,4.8891,5.1725,5.2935,5.3874,5.4834,5.4595,5.4387,5.4352,5.4085,5.3883,5.3848,5.3416,5.3179,5.3179,5.2198,5.1691,5.1691,5.0439,4.9796,4.9796,4.9255,4.9018,4.9018,4.9018,4.9018,4.9018,4.9018,4.8578,4.7872,4.7699,4.6853,4.5602,4.4621,4.3436,4.2286,4.2049,4.1305,4.0383,0.0,0.0,0.0,0.0,0.0,0.0,0.0,0.0,0.0,0.0,3.2437,3.5968,3.8332,4.1025,4.2521,4.2132,3.9948,3.8063,3.6836,0.0,0.0,3.7165,3.92,4.1806,4.5153,4.7206,4.9061,5.0825,5.2598,5.3343,5.3259,5.4093,5.4618,5.4828,5.5739,5.6156,5.6156,5.6156,5.5919,5.5277,5.2672,5.0574,4.8714,4.6244,4.5669,4.5974,4.4181,4.4181,4.479,4.3166,0.0,0.0,0.0,0.0,0.0,0.0,0.0,0.0,0.0,0.0,0.0,0.0,0.0,0.0,0.0,0.0,0.0,0.0,0.0,0.0,0.0,0.0,0.0,0.0,4.6892,4.9165,5.0602,5.1162,5.2534,5.5688,5.6103,5.6586,5.7606,5.707,5.6494,5.619,5.548,5.4938,5.46,5.389,5.3518,5.3518,5.2706,5.23,5.23,5.115,5.0574,5.0541,4.9796,4.9458,4.9458,4.9154,4.9018,0.0,4.9018,4.8781,4.8342,4.8007,4.7225,0.0,0.0,0.0,0.0,0.0,4.1542,4.0493,0.0,0.0,0.0,0.0,0.0,0.0,0.0,0.0,0.0,0.0,0.0,3.4861,3.6776,3.8751,3.9948,3.9948,3.8182,3.6357,0.0,0.0,3.6091,3.8631,4.0636,4.2728,4.4961,4.7105,4.8979,5.0555,5.2213,5.3474,5.4415,5.5104,5.5588,5.5987,5.663,5.6934,5.6934,5.7002,5.707,5.707,5.7137,5.575,5.3281,4.9932,4.9357,5.0067,4.7936,4.6853,4.6312,4.5399,0.0,0.0,0.0,0.0,0.0,0.0,0.0,0.0,0.0,0.0,0.0,0.0,0.0,0.0,0.0,0.0,0.0,0.0,0.0,0.0,0.0,0.0,0.0,0.0,5.1605,5.4067,5.7442,5.6752,5.6619,5.8455,5.894,5.9099,5.9032,5.8423,5.7712,5.6968,5.6156,5.5412,5.4769,0.0,0.0,0.0,0.0,5.2435,5.2435,5.1725,5.1285,5.1217,5.0439,5.0067,4.9932,4.9289,4.9018,4.9018,4.9018,4.9018,4.8951,4.8308,4.753,4.6718,4.5805,4.4993,4.4175,4.2692,4.1711,4.0967,0.0,0.0,0.0,0.0,0.0,0.0,0.0,0.0,0.0,2.7435,3.0223,3.2617,3.4113,3.6028,3.7255,3.7255,3.5908,3.513,0.0,3.6776,3.8571,4.0726,4.2701,4.5471,4.9226,5.0278,5.2035,5.4559,5.5509,5.606,5.6275,5.7015,5.7395,5.7476,5.7611,5.7679,5.7712,5.8321,5.8592,5.866,5.9235,5.7408,5.4296,5.3585,5.2706,5.1657,5.0033,5.0135,5.0744,4.8781,4.8342,4.8308,4.6887,0.0,0.0,0.0,0.0,0.0,0.0,0.0,0.0,0.0,0.0,0.0,0.0,0.0,0.0,0.0,0.0,0.0,0.0,0.0,0.0,5.1498,5.4444,5.7465,6.0208,5.9746,5.9309,5.9746,5.9865,5.9674,5.9066,5.8896,5.849,5.7746,5.6461,5.5649,5.5513,5.4228,5.3518,5.3518,5.3348,5.3281,5.3281,5.2469,5.1792,5.1217,0.0,0.0,4.9221,4.9086,4.9018,4.9018,4.9018,4.9018,4.8984,4.8849,4.8003,4.6583,4.4621,4.3403,4.2625,4.1745,4.0933,4.0282,0.0,0.0,0.0,0.0,0.0,0.0,0.0,0.0,0.0,0.0,2.8906,3.1061,3.2377,3.3425,3.3873,3.3514,3.2617,0.0,3.5818,3.7494,3.9709,4.2731,4.4766,4.6995,4.9584,5.0834,5.2584,5.4901,5.5806,5.663,5.734,5.7712,5.7881,5.7881,5.7881,5.7881,5.7949,5.8693,5.9032,5.9066,5.981,5.8795,5.6765,5.6393,5.531,5.3856,5.2739,5.257,5.2604,5.0744,5.0101,4.983,4.8376,4.6857,4.5336,0.0,0.0,0.0,0.0,0.0,0.0,0.0,0.0,0.0,0.0,0.0,0.0,0.0,0.0,4.768,0.0,0.0,5.4338,5.592,5.8294,6.0287,6.1153,6.096,6.0858,6.1197,6.025,5.9573,5.9573,5.8896,5.8287,5.7915,5.6528,5.5681,5.5681,5.4296,5.3518,5.3518,5.3518,5.3518,5.3518,5.3112,5.2739,5.2334,5.1555,5.1014,5.0642,5.027,4.9898,4.956,4.956,4.9357,4.8951,4.8206,4.7259,4.6109,4.4587,4.3775,4.3328,4.2151,4.1508,4.1094,0.0,0.0,0.0,0.0,0.0,0.0,0.0,0.0,0.0,0.0,2.732,2.9205,3.0225,3.0464,3.0374,0.0,0.0,0.0,3.6387,3.8123,4.0696,4.4526,4.6381,4.7928,4.9171,5.0549,5.2217,5.4293,5.5255,5.6393,5.7679,5.7814,5.7881,5.7881,5.7881,5.7881,5.7949,5.8693,5.9099,5.9268,5.9877,5.9742,5.9133,5.822,5.707,5.5818,5.4905,5.3923,5.2909,5.1792,5.0845,4.9932,4.9052,4.8578,4.7834,4.5235,4.4857,0.0,0.0,0.0,0.0,0.0,0.0,0.0,0.0,0.0,4.7018,4.8612,5.0135,5.186,5.416,5.6292,5.8254,6.0047,6.1366,6.1975,6.14,6.1028,6.1061,6.167,6.025,5.9404,5.9844,5.8795,5.8051,5.7915,5.6528,5.5681,5.5681,5.4296,5.3518,5.3518,5.3518,5.3518,5.3518,5.3518,5.3416,5.3281,5.2604,5.2232,5.2063,5.1488,5.0811,5.0067,4.9932,4.956,4.8917,4.7564,4.6583,4.5838,4.5094,4.475,4.4445,4.3031,4.232,4.1914,0.0,0.0,0.0,0.0,0.0,0.0,0.0,0.0,0.0,0.0,0.0,0.0,0.0,0.0,0.0,0.0,0.0,3.3634,3.7075,3.9649,4.2551,4.5963,4.686,4.8352,5.0618,5.0549,5.1991,5.498,5.5453,5.6122,5.6934,5.7577,5.7881,5.7881,5.7881,5.7881,5.7949,5.8693,5.9404,5.9979,6.008,6.0047,5.981,5.8423,5.7374,5.6494,5.5108,5.3247,5.1523,5.2029,5.1251,5.0304,5.1454,5.0913,4.9661,4.8646,0.0,4.3741,4.4039,4.3809,4.4153,4.6722,4.6481,4.7293,0.0,0.0,5.4093,5.6224,5.7814,5.8761,5.8457,5.9708,6.0892,6.1129,6.1298,6.14,6.1332,6.0114,5.9302,5.937,5.9742,5.9742,5.9201,5.8998,5.8626,5.7949,5.6528,5.5681,5.5681,5.4296,5.3518,5.3518,5.3518,5.3518,5.3518,5.3518,5.3145,5.2435,5.2334,5.1961,5.132,5.1251,5.0811,5.0067,4.939,4.9086,4.8951,4.8139,4.7361,4.6583,4.5872,4.5162,4.4513,4.3606,4.2455,4.1305,0.0,0.0,0.0,0.0,0.0,0.0,0.0,0.0,0.0,0.0,0.0,0.0,0.0,0.0,0.0,0.0,2.8876,3.2377,3.6058,3.9499,4.2851,4.613,4.7309,4.8743,5.0587,5.0866,5.2421,5.5442,5.5639,5.6325,5.7442,5.7746,5.7881,5.7881,5.7881,5.7881,5.7949,5.8693,5.9201,5.9438,5.8998,5.8795,5.849,5.5716,5.4194,5.3484,5.2841,5.1725,0.0,0.0,4.9255,4.956,5.0202,4.9965,4.9221,4.8071,4.6921,0.0,4.5811,4.5585,0.0,0.0,4.9649,5.1792,5.5344,5.6359,5.7002,5.8795,6.0047,6.0858,6.096,6.1873,6.2448,0.0,6.1941,6.1637,6.0723,5.9302,5.8051,5.7205,5.7374,5.778,5.8321,5.7983,5.778,5.7881,5.6934,5.6156,5.575,5.4702,5.3923,5.3518,5.3518,5.3518,5.3518,5.3518,5.3348,5.301,5.301,5.2841,5.2536,5.2536,5.1894,5.0676,4.9526,4.8781,4.8342,4.8007,4.7225,4.6143,4.5838,4.5229,4.4513,4.3707,4.276,4.1779,0.0,0.0,0.0,0.0,0.0,0.0,0.0,0.0,0.0,0.0,0.0,0.0,0.0,0.0,0.0,0.0,2.72,3.0642,3.4442,3.8212,4.1833,4.5293,4.677,4.8279,4.9931,5.0714,5.2465,5.5223,5.5339,5.6055,5.7273,5.7273,5.7408,5.7577,5.7577,5.7712,5.7915,5.8254,5.8524,5.8626,5.7679,5.7273,5.69,5.3348,5.1319,5.027,4.983,4.8951,0.0,0.0,4.6278,4.7225,4.7665,4.8071,4.8206,4.7361,4.7496,4.7649,4.6658,0.0,0.0,5.0226,5.3276,5.6156,5.7543,5.8829,6.0047,6.1129,6.1806,6.2245,6.2381,6.2685,6.2719,6.2178,6.1738,6.1061,5.9945,5.8355,5.6731,5.5277,5.4905,5.5277,5.6562,5.6562,5.6799,5.7543,5.6731,5.6055,5.575,5.4803,5.4059,5.3518,5.3518,5.3518,5.3518,5.3518,5.3518,5.3518,5.3518,5.3518,5.3484,5.3078,5.2266,5.115,4.9661,4.8714,4.8142,4.7736,4.6989,4.5974,4.5568,4.506,4.4513,4.3707,4.2929,4.2185,0.0,0.0,0.0,0.0,0.0,0.0,0.0,0.0,0.0,0.0,0.0,0.0,0.0,0.0,0.0,2.364,2.6117,2.9082,3.2377,3.5699,3.929,4.32,4.4676,4.6475,4.881,4.9884,5.1603,5.4063,5.445,5.5006,5.5749,5.5749,5.6156,5.6833,5.6833,5.7239,5.7848,5.7171,5.7273,5.7814,5.6359,5.5749,5.5446,5.2368,4.9898,4.7804,4.638,0.0,0.0,0.0,4.2455,4.276,4.4276,4.5732,0.0,4.7665,4.7872,4.7567,0.0,0.0,5.176,5.4768,5.7203,5.9641,6.2618,6.3869,6.441,6.4444,6.4478,6.4072,6.2651,6.1839,6.1366,6.1332,6.008,5.9099,5.9066,5.7171,5.5243,5.3754,5.2875,5.2739,0.0,5.4938,5.6055,5.6799,5.548,5.4972,5.5647,5.4329,5.3518,5.3518,5.3518,5.3518,5.3518,5.3518,5.3518,5.3518,5.3518,5.3518,5.345,5.1961,5.1219,5.115,4.9661,4.8984,4.8849,4.7428,4.6819,4.6616,4.519,4.4615,4.4513,4.3707,4.2929,4.2185,0.0,0.0,0.0,0.0,0.0,0.0,0.0,0.0,0.0,0.0,0.0,0.0,0.0,0.0,0.0,0.0,2.5644,2.7769,2.9774,3.3814,3.7135,3.932,4.1953,4.4303,4.637,4.7212,4.9082,5.2134,5.2269,5.301,5.4262,5.4735,5.5108,5.5344,5.5852,5.6224,5.6427,5.619,5.5919,5.5581,5.4059,5.3145,5.2334,4.8883,4.6447,4.4592,0.0,0.0,0.0,3.9715,4.002,4.0925,4.1467,0.0,4.3436,4.5196,4.6752,4.8118,4.9024,0.0,5.5474,5.7921,6.064,6.326,6.5256,6.5493,6.5053,6.4072,6.2279,6.0452,5.8964,5.8084,5.7746,5.822,5.8693,5.9032,5.9032,5.7949,5.6258,5.3788,5.3281,0.0,0.0,0.0,0.0,5.5987,5.6055,5.5953,5.5681,5.5243,5.4735,5.4262,5.3754,5.3518,5.3518,5.3518,5.3518,5.3518,5.3518,5.3213,5.2672,5.1691,5.0947,5.0405,4.9424,4.8714,4.824,4.7733,4.6955,4.6007,4.5534,4.5026,4.4513,4.3707,4.2929,4.2185,0.0,0.0,0.0,0.0,0.0,0.0,0.0,0.0,0.0,0.0,0.0,0.0,0.0,0.0,0.0,0.0,0.0,0.0,2.7799,3.112,3.3724,3.525,3.8,4.0481,4.2558,4.3427,4.5373,4.8413,4.8714,4.9492,5.0744,5.1454,5.2097,5.2604,5.3112,5.3619,5.4093,5.3551,5.2875,5.2063,5.0541,4.9323,4.8075,4.5196,4.3166,0.0,0.0,0.0,0.0,3.7821,3.8464,3.9774,4.0011,4.1162,4.276,4.4485,4.6921,4.9738,5.27,5.6135,5.9393,6.1817,6.411,6.5967,6.6643,6.5831,6.4343,6.2313,5.9505,5.6799,5.4769,5.3822,5.3653,5.4634,5.5818,5.69,5.7712,5.6968,5.5615,5.3721,5.3247,0.0,0.0,0.0,0.0,5.5243,5.575,5.5919,5.5716,5.5681,5.5378,5.46,5.4126,5.3788,5.3518,5.3518,5.3518,5.3518,5.3518,5.3078,5.2266,5.1555,5.0811,5.0067,4.9323,4.8578,4.7872,4.7631,4.6786,4.5669,4.5399,4.5026,4.4513,4.3707,4.2929,4.2185,0.0,0.0,0.0,0.0,0.0,0.0,0.0,0.0,0.0,0.0,0.0,0.0,0.0,0.0,0.0,0.0,0.0,0.0,2.6411,2.779,2.9352,3.121,3.3116,3.5254,3.7616,3.8873,4.069,4.3105,4.391,4.4688,4.5432,4.6177,4.7293,4.8646,4.8714,4.9526,5.0745,4.939,4.8342,4.7534,4.6109,4.4654,4.3105,4.1644,0.0,0.0,0.0,0.0,0.0,0.0,0.0,0.0,0.0,4.2347,4.4953,4.5805,4.8646,5.2536,5.6968,6.0419,6.3396,6.6237,6.7421,6.7692,6.688,6.4918,6.2415,5.937,5.6325,5.3348,0.0,0.0,4.939,5.0913,5.1928,5.3315,5.5581,5.4735,5.3856,0.0,0.0,0.0,0.0,0.0,0.0,5.4668,0.0,5.4972,5.575,5.5784,5.5446,5.4668,5.46,5.4262,5.3518,5.3518,5.3518,5.3518,5.3518,5.3078,5.2232,5.1522,5.0777,4.9999,4.9289,4.8578,4.777,4.709,4.6346,4.5568,4.4886,4.4615,4.4513,4.3741,4.2997,4.2252,0.0,0.0,0.0,0.0,0.0,0.0,0.0,0.0,0.0,0.0,0.0,0.0,0.0,0.0,0.0,0.0,0.0,0.0,2.4973,2.6665,2.7929,2.8419,3.0764,3.2823,3.4495,3.5894,0.0,3.9285,4.0054,4.0798,4.1516,4.2286,4.3132,4.4012,4.4587,4.5365,4.621,4.5838,4.5263,4.4457,0.0,4.2591,4.161,0.0,0.0,0.0,0.0,0.0,0.0,0.0,0.0,0.0,0.0,4.4654,4.753,4.9932,5.3247,5.7036,6.0994,6.4681,6.7557,6.8335,6.8199,6.7421,6.5595,6.2584,5.9167,5.5649,5.2097,4.8883,0.0,0.0,0.0,5.0033,5.3348,0.0,5.7949,5.8829,0.0,5.6968,0.0,5.6258,5.5716,5.5344,0.0,0.0,5.575,5.575,5.6494,5.6528,5.619,5.5446,5.4871,5.4262,5.3518,5.3518,5.3518,5.3518,5.3518,5.2807,5.1488,5.1286,5.0507,4.9255,4.9086,4.8274,4.7056,4.6887,4.6041,4.4857,4.4682,4.4615,4.4581,4.4378,4.3809,4.3071,0.0,0.0,0.0,0.0,0.0,0.0,0.0,0.0,0.0,0.0,0.0,0.0,0.0,0.0,0.0,0.0,0.0,0.0,0.0,2.5811,2.6449,2.6449,2.8081,2.9515,3.0619,3.1957,0.0,0.0,0.0,0.0,3.7652,3.8396,3.9343,4.0392,4.0798,4.1576,4.2557,4.2252,0.0,0.0,0.0,0.0,0.0,0.0,0.0,0.0,0.0,0.0,0.0,0.0,0.0,4.4959,4.6007,4.8883,5.2266,5.4566,0.0,6.1095,6.4512,6.7455,6.9519,6.918,6.7996,6.6102,6.2888,5.9268,5.5446,5.1386,4.8105,0.0,0.0,0.0,0.0,0.0,0.0,0.0,5.7273,5.8863,5.9438,0.0,5.8389,0.0,5.734,5.69,5.6833,0.0,5.6596,5.6359,5.6799,5.7103,5.6799,5.5715,5.531,5.4566,5.3518,5.3518,5.3518,5.3518,5.3518,5.2875,5.1691,5.1352,5.0574,4.9458,0.0,4.8173,4.6786,4.6786,4.5906,4.4615,4.4615,4.4615,4.4615,4.4615,4.4079,4.3443,0.0,0.0,0.0,0.0,0.0,0.0,0.0,0.0,0.0,0.0,0.0,0.0,0.0,0.0,0.0,0.0,0.0,0.0,0.0,0.0,0.0,0.0,2.576,2.6312,0.0,0.0,0.0,0.0,0.0,0.0,0.0,0.0,0.0,0.0,0.0,0.0,0.0,0.0,0.0,0.0,0.0,0.0,0.0,0.0,0.0,0.0,0.0,0.0,0.0,0.0,4.6481,4.8781,5.0338,5.3856,5.7712,5.9302,6.1738,6.458,6.7421,6.9248,7.0128,6.918,6.7151,6.4208,5.9607,5.5547,5.1522,4.709,0.0,4.253,4.117,4.1677,4.3132,4.5737,0.0,5.2368,5.5783,5.7374,5.849,5.937,5.9471,5.9201,5.8558,5.8389,5.8287,5.8186,5.7509,5.707,5.6934,5.7442,5.707,5.5615,5.548,5.4803,5.3518,5.3518,5.3518,5.3518,5.3518,5.3078,5.2266,5.1555,5.0811,5.0067,0.0,0.0,4.6955,4.6955,4.6075,4.475,4.475,4.4682,4.4615,4.4615,4.4147,4.3673,0.0,0.0,0.0,0.0,0.0,0.0,0.0,0.0,0.0,0.0,2.3445,2.2449,0.0,0.0,0.0,0.0,0.0,0.0,0.0,0.0,0.0,0.0,2.5943,2.6241,0.0,0.0,0.0,0.0,0.0,0.0,0.0,0.0,0.0,0.0,0.0,0.0,0.0,0.0,0.0,0.0,0.0,0.0,0.0,0.0,0.0,0.0,0.0,0.0,0.0,0.0,4.8714,5.1961,5.4059,5.7408,6.0926,6.3024,6.4884,6.6745,6.9147,7.0432,7.0635,6.8605,6.5967,6.255,5.7442,5.2402,0.0,0.0,0.0,4.0426,3.9546,4.0967,4.3639,4.7767,0.0,0.0,0.0,0.0,6.025,0.0,0.0,0.0,0.0,0.0,0.0,0.0,0.0,5.8355,5.7746,5.7239,5.6325,5.4837,5.4194,5.3754,5.3518,5.3518,5.3518,5.3518,5.3518,5.3078,5.2266,5.1555,5.0811,5.0067,4.9323,0.0,4.7733,4.7733,4.6853,4.55,4.55,4.5128,4.4615,4.4615,4.4513,4.4384,0.0,0.0,0.0,0.0,0.0,0.0,0.0,2.4495,2.5464,2.7338,2.6539,2.5473,2.4628,2.4203,2.4237,0.0,0.0,0.0,0.0,0.0,0.0,0.0,0.0,0.0,0.0,0.0,0.0,0.0,0.0,0.0,0.0,0.0,0.0,0.0,0.0,0.0,0.0,0.0,0.0,0.0,0.0,0.0,0.0,0.0,0.0,0.0,0.0,0.0,0.0,0.0,4.7767,5.1928,5.6122,6.0013,6.3396,6.5222,6.6812,6.8402,7.0263,7.1041,7.0669,6.7996,6.4512,6.0283,5.4668,0.0,0.0,0.0,3.9986,3.9073,3.9478,0.0,0.0,0.0,0.0,0.0,0.0,0.0,0.0,0.0,0.0,0.0,0.0,0.0,0.0,0.0,0.0,5.8254,5.7915,5.6833,5.5716,5.4634,5.389,5.3518,5.3518,5.3518,5.3518,5.3518,5.3518,5.3315,5.2909,5.2131,5.1386,5.0642,4.9898,0.0,4.7906,4.7906,4.7259,4.6278,4.6278,4.6041,4.5698,4.5297,4.5162,4.5128,0.0,0.0,0.0,0.0,0.0,0.0,0.0,2.632,2.7516,2.9503,2.9327,2.8333,2.6522,2.5,2.4169,0.0,0.0,0.0,0.0,0.0,0.0,0.0,0.0,0.0,0.0,0.0,0.0,0.0,0.0,0.0,0.0,0.0,0.0,0.0,0.0,0.0,0.0,0.0,0.0,0.0,0.0,0.0,0.0,0.0,0.0,0.0,0.0,0.0,0.0,0.0,4.5263,4.9187,5.4837,5.9877,6.3903,6.5222,6.7049,6.8977,7.0635,7.1075,7.0364,6.732,6.2956,5.7915,5.2266,4.6684,0.0,0.0,3.8802,3.8294,3.9639,0.0,4.1576,0.0,0.0,0.0,0.0,0.0,0.0,0.0,0.0,0.0,0.0,0.0,0.0,0.0,0.0,0.0,5.7442,5.6325,5.531,5.4397,5.3788,5.3518,5.3518,5.3685,5.3685,5.3518,5.3685,5.3651,5.3484,5.2503,5.1758,5.1151,5.0236,0.0,0.0,4.8142,4.7699,4.7022,4.7022,4.6921,4.6718,4.6143,4.5838,4.5635,0.0,0.0,0.0,0.0,0.0,0.0,0.0,2.6634,2.8381,3.1812,3.0362,2.8908,2.8705,2.7317,2.5609,0.0,0.0,0.0,0.0,0.0,0.0,0.0,0.0,0.0,0.0,0.0,0.0,0.0,0.0,0.0,0.0,0.0,0.0,0.0,0.0,0.0,0.0,0.0,0.0,0.0,0.0,0.0,0.0,0.0,0.0,0.0,0.0,0.0,0.0,0.0,0.0,4.2828,4.7432,5.4262,6.0689,6.1569,0.0,0.0,6.9688,7.0297,6.9586,6.6542,6.14,5.5886,5.1251,0.0,0.0,3.9276,3.8464,3.8159,3.8937,3.9706,4.1162,0.0,0.0,0.0,0.0,0.0,0.0,0.0,0.0,0.0,0.0,0.0,0.0,0.0,0.0,0.0,5.5987,5.5749,5.5074,5.3653,5.3551,5.3518,5.3518,5.4136,5.4136,5.3518,5.4203,5.4171,5.345,5.1995,5.1285,5.115,4.9729,0.0,0.0,4.8917,4.8477,4.7804,4.7804,4.7394,4.6786,4.6718,4.6278,4.5703,0.0,0.0,0.0,0.0,0.0,0.0,2.6134,2.7476,2.9273,3.2039,3.1564,3.0668,2.977,2.8281,2.6285,2.3613,0.0,0.0,0.0,0.0,0.0,0.0,0.0,0.0,0.0,0.0,0.0,0.0,0.0,0.0,0.0,0.0,0.0,0.0,0.0,0.0,0.0,0.0,0.0,0.0,0.0,0.0,0.0,0.0,0.0,0.0,0.0,0.0,0.0,0.0,0.0,0.0,4.1474,4.5974,0.0,0.0,6.0588,6.3565,6.7184,6.847,6.7996,6.4546,5.9539,5.4296,4.9796,0.0,4.0011,3.974,3.8734,3.8261,3.9436,3.9537,3.9977,0.0,0.0,0.0,0.0,0.0,0.0,0.0,0.0,0.0,0.0,0.0,0.0,0.0,0.0,0.0,5.5784,5.5681,5.504,5.3551,5.3518,5.3717,5.4171,5.4451,5.4699,5.4818,5.5114,5.4878,5.4136,5.3072,5.207,5.115,5.0101,0.0,0.0,4.9018,4.8849,4.8578,4.8578,4.8376,4.8071,4.7631,4.6989,4.6312,0.0,0.0,0.0,0.0,0.0,2.4914,2.6184,2.7859,2.9653,3.1413,3.1447,3.0939,2.9871,2.801,2.5981,2.3898,2.3342,0.0,0.0,0.0,0.0,0.0,0.0,0.0,0.0,0.0,0.0,2.7029,0.0,0.0,0.0,0.0,0.0,0.0,0.0,0.0,0.0,0.0,0.0,0.0,0.0,0.0,0.0,0.0,0.0,0.0,0.0,0.0,0.0,0.0,0.0,0.0,0.0,0.0,0.0,0.0,5.5886,5.9336,6.3396,6.5222,6.5256,6.2415,5.7442,5.2334,0.0,0.0,3.9842,4.0079,3.9073,3.8531,3.9605,3.9537,3.9436,0.0,0.0,4.0798,0.0,0.0,0.0,0.0,0.0,0.0,0.0,0.0,0.0,0.0,0.0,0.0,0.0,5.5513,5.4803,5.3551,5.3518,5.3848,5.4606,5.4818,5.5173,5.5724,5.5948,5.5667,5.4904,5.3931,5.2777,5.1498,0.0,0.0,0.0,4.9018,4.9018,4.9018,4.9018,4.9018,4.8951,4.8443,4.7767,4.7056,0.0,0.0,0.0,0.0,0.0,0.0,2.5507,2.7554,2.9281,3.004,2.9499,2.9044,2.901,2.6336,2.4508,2.4474,2.3139,0.0,0.0,0.0,0.0,0.0,0.0,0.0,0.0,0.0,2.7063,2.779,2.779,2.8213,0.0,0.0,0.0,0.0,0.0,0.0,0.0,0.0,0.0,0.0,0.0,0.0,0.0,0.0,0.0,0.0,0.0,0.0,0.0,0.0,0.0,0.0,0.0,0.0,0.0,0.0,4.9999,5.531,5.8287,6.0216,6.1163,6.0317,5.5074,4.9729,0.0,0.0,3.9208,3.9943,3.9537,3.8971,3.9005,3.9605,3.9842,3.9106,4.0223,0.0,0.0,0.0,0.0,0.0,0.0,0.0,0.0,0.0,0.0,0.0,0.0,0.0,0.0,5.5006,5.4262,5.3518,5.3518,5.3848,5.4606,5.532,5.5695,5.5724,5.651,5.6483,5.5631,5.4166,5.3077,0.0,0.0,0.0,0.0,4.9018,4.9018,4.9018,4.9018,4.9018,4.9018,4.8984,4.8545,4.7872,0.0,0.0,0.0,0.0,0.0,0.0,0.0,2.5879,2.6928,2.7672,2.7571,2.7419,2.7419,2.5692,2.4508,2.4508,2.3139,0.0,0.0,0.0,0.0,0.0,0.0,0.0,0.0,0.0,2.7998,2.9092,2.961,3.0248,3.1007,3.1307,0.0,0.0,0.0,0.0,0.0,0.0,0.0,0.0,0.0,0.0,0.0,0.0,0.0,0.0,0.0,0.0,0.0,0.0,0.0,0.0,0.0,0.0,0.0,3.9208,0.0,0.0,5.2739,5.4397,5.4837,5.3585,5.0135,4.6684,4.5167,4.2185,3.9842,4.0045,3.991,3.9605,3.9073,3.9174,3.9445,3.9715,4.0121,0.0,0.0,0.0,0.0,0.0,0.0,0.0,0.0,0.0,0.0,0.0,0.0,0.0,0.0,5.4262,5.3754,5.3518,5.4011,5.4606,5.535,5.615,5.6773,5.729,5.7522,5.7241,5.6465,5.4892,0.0,0.0,0.0,0.0,0.0,4.9165,4.9018,4.9018,4.9018,4.9018,4.9018,4.9018,4.8545,4.7906,0.0,0.0,0.0,0.0,0.0,0.0,0.0,2.4695,2.5236,2.5439,2.5439,2.5676,2.6218,2.4729,2.3898,2.444,2.3139,0.0,0.0,0.0,0.0,0.0,0.0,0.0,0.0,2.6708,2.7913,2.9868,3.0592,3.144,3.2384,3.295,3.2668,3.1749,0.0,0.0,0.0,0.0,0.0,0.0,0.0,0.0,3.4979,0.0,0.0,0.0,0.0,0.0,0.0,0.0,0.0,0.0,0.0,0.0,0.0,0.0,3.9411,4.3132,0.0,4.8815,4.9661,4.9018,4.6819,0.0,0.0,4.1474,3.9673,3.9673,3.9469,3.9039,3.8319,3.8396,3.8734,3.9208,3.9512,0.0,0.0,0.0,0.0,0.0,0.0,0.0,0.0,0.0,0.0,0.0,0.0,0.0,0.0,5.389,5.3651,5.3913,5.4391,5.4969,5.5695,5.6204,5.6825,5.757,5.757,5.7474,5.7254,5.5666,0.0,0.0,0.0,0.0,0.0,4.9286,4.9018,4.9018,4.9018,4.9018,4.9018,4.9018,4.8714,4.8342,0.0,0.0,0.0,0.0,0.0,0.0,0.0,2.4034,2.4203,2.3545,2.3477,2.3985,2.5304,2.3598,2.2902,2.4237,0.0,0.0,0.0,0.0,0.0,0.0,0.0,0.0,0.0,2.5778,2.7283,3.0232,3.108,3.2119,3.3357,3.4159,3.3895,3.2693,3.2776,3.2438,3.1822,3.2173,3.2699,3.3389,3.41,3.4844,0.0,0.0,0.0,0.0,0.0,0.0,0.0,0.0,0.0,0.0,0.0,0.0,0.0,0.0,0.0,0.0,0.0,4.3436,0.0,0.0,0.0,0.0,4.3003,4.0899,0.0,3.8903,3.8396,3.7686,3.6998,3.7449,3.7922,3.8058,0.0,0.0,0.0,0.0,0.0,0.0,0.0,0.0,0.0,0.0,0.0,0.0,0.0,0.0,0.0,5.3856,5.3848,5.4634,5.463,5.4925,5.5617,5.5801,5.6196,5.684,5.6891,5.7242,5.7863,5.6322,0.0,0.0,0.0,0.0,0.0,4.9286,4.9018,4.9018,4.9018,4.9018,4.9018,4.9018,4.9018,4.9018,0.0,0.0,0.0,0.0,0.0,0.0,0.0,0.0,0.0,0.0,2.4237,2.4169,2.3951,2.3444,2.3038,0.0,0.0,0.0,0.0,0.0,0.0,0.0,0.0,0.0,2.642,2.7622,2.9276,3.1491,3.3406,3.4757,3.5639,3.7175,3.6414,3.3798,3.4562,3.3716,3.1822,3.2173,3.2395,3.2632,3.3355,3.3761,0.0,0.0,0.0,0.0,3.5397,3.56,0.0,0.0,0.0,0.0,0.0,0.0,0.0,0.0,3.5453,3.6096,3.6918,0.0,3.9783,3.9952,3.958,3.9208,0.0,3.8667,3.8159,3.8159,3.8024,3.7855,3.7686,3.7787,3.8261,0.0,0.0,0.0,0.0,0.0,0.0,0.0,0.0,0.0,0.0,0.0,0.0,0.0,0.0,0.0,0.0,5.3585,5.4074,5.5408,5.4845,5.4642,5.4859,5.6602,5.7,5.6061,5.6563,5.6919,5.7042,5.5418,0.0,0.0,0.0,0.0,5.0743,4.9492,4.9018,4.9018,4.9018,4.9018,4.9018,4.9018,4.9018,4.9018,0.0,0.0,0.0,0.0,0.0,0.0,0.0,0.0,0.0,0.0,0.0,0.0,0.0,0.0,0.0,0.0,0.0,0.0,0.0,0.0,0.0,0.0,0.0,2.5015,2.6184,2.7334,2.929,3.2063,3.4,3.5786,3.7434,3.8605,3.7768,3.5223,3.4725,3.3629,3.2127,3.2089,3.2154,3.2327,3.2713,0.0,0.0,0.0,0.0,0.0,3.5194,3.5363,0.0,3.5926,3.6434,3.666,0.0,0.0,0.0,0.0,3.5318,3.56,3.56,3.6715,3.7922,3.7922,3.8159,3.8396,3.8396,3.7889,3.7381,3.7381,0.0,0.0,3.7381,0.0,0.0,0.0,0.0,0.0,0.0,0.0,0.0,0.0,0.0,0.0,0.0,0.0,0.0,0.0,0.0,0.0,0.0,5.3476,5.3998,5.5108,5.4723,5.4696,5.5107,5.562,5.5465,5.4701,5.5069,5.5426,5.5772,5.4818,5.4399,0.0,0.0,0.0,5.1008,4.9925,4.9286,4.9018,4.9018,4.9018,4.9018,4.9018,4.9018,4.9018,0.0,0.0,0.0,0.0,0.0,0.0,0.0,0.0,0.0,0.0,0.0,0.0,0.0,0.0,0.0,0.0,0.0,0.0,0.0,0.0,0.0,0.0,0.0,2.5169,2.6251,2.6793,2.8908,3.2632,3.3998,3.599,3.8513,3.9371,3.8731,3.6811,3.4444,3.3091,3.2549,3.2022,3.1963,3.2224,3.2164,0.0,0.0,0.0,0.0,0.0,0.0,0.0,0.0,3.5983,3.6457,3.6457,3.6457,0.0,0.0,0.0,0.0,0.0,3.5735,3.6907,3.8024,3.7787,3.8294,3.8836,3.8836,0.0,0.0,0.0,0.0,0.0,0.0,3.7719,0.0,0.0,0.0,0.0,0.0,0.0,0.0,0.0,0.0,0.0,0.0,0.0,0.0,0.0,0.0,0.0,0.0,5.3413,5.3723,5.4496,5.4358,5.4699,5.5485,5.4343,5.3567,5.321,5.346,5.3826,5.4399,5.4282,5.4216,0.0,0.0,0.0,5.1034,5.0202,4.9521,4.9018,4.9018,4.9018,4.9018,4.9018,4.9018,4.9018,0.0,0.0,0.0,0.0,0.0,0.0,0.0,0.0,0.0,0.0,0.0,0.0,0.0,0.0,0.0,0.0,0.0,0.0,0.0,0.0,0.0,2.6319,2.5744,2.6691,2.9345,2.8908,3.0465,3.4134,3.5013,3.6344,3.8054,4.0364,4.0336,3.8272,3.5468,3.38,3.3029,3.2179,3.1822,3.185,3.1502,0.0,0.0,0.0,0.0,0.0,0.0,0.0,0.0,3.4539,3.4844,3.4844,3.4844,0.0,0.0,0.0,0.0,0.0,3.6434,3.7686,3.8531,3.7303,3.7516,3.8058,3.8058,3.7889,0.0,0.0,0.0,0.0,0.0,0.0,0.0,0.0,0.0,0.0,0.0,0.0,0.0,0.0,0.0,0.0,0.0,0.0,0.0,0.0,0.0,0.0,0.0,5.3414,5.3742,5.446,5.3783,5.3771,5.4576,5.5057,5.4315,5.2484,5.3664,5.3981,5.3496,5.3441,5.3408,0.0,0.0,5.1189,5.0981,4.9664,4.9077,4.9018,4.9018,4.9018,4.9018,4.9018,4.9018,4.9018,0.0,0.0,0.0,0.0,0.0,0.0,0.0,0.0,0.0,0.0,0.0,0.0,0.0,0.0,0.0,0.0,0.0,0.0,0.0,0.0,0.0,2.7893,2.7604,2.8281,3.0055,3.0567,3.2632,3.6332,3.7077,3.8227,3.9673,3.936,3.8796,3.7955,3.5287,3.3735,3.3166,3.2727,3.2264,3.1771,0.0,0.0,0.0,0.0,0.0,0.0,0.0,0.0,0.0,0.0,3.4776,3.5115,3.5115,0.0,0.0,0.0,0.0,0.0,3.6062,3.7246,3.8227,3.755,3.8261,3.898,3.8599,3.8193,3.7922,0.0,0.0,0.0,0.0,0.0,0.0,0.0,0.0,0.0,0.0,0.0,0.0,0.0,0.0,0.0,0.0,0.0,0.0,0.0,0.0,0.0,0.0,0.0,5.3433,5.3771,5.3406,5.3361,5.3775,5.4106,5.3613,5.218,5.2855,5.2971,5.2641,5.3018,5.3203,5.3124,0.0,5.1444,5.1008,4.9947,4.9346,4.9018,4.9018,4.9018,4.9018,4.9018,4.9018,4.9018,0.0,0.0,0.0,0.0,0.0,0.0,0.0,0.0,0.0,0.0,0.0,0.0,0.0,0.0,0.0,0.0,0.0,0.0,0.0,0.0,2.73,2.8653,2.9059,2.9939,3.134,3.2307,3.4595,3.8159,3.8734,3.9695,4.1013,3.816,3.7077,3.7382,3.4838,3.355,3.335,3.3262,3.2775,3.2144,0.0,0.0,0.0,0.0,0.0,0.0,0.0,0.0,0.0,0.0,0.0,0.0,0.0,0.0,0.0,3.5769,3.56,3.5633,3.5825,3.7009,3.8125,3.7956,3.9005,4.0054,3.9817,3.9478,3.9242,0.0,0.0,0.0,0.0,0.0,0.0,0.0,0.0,0.0,0.0,0.0,0.0,0.0,0.0,0.0,0.0,0.0,0.0,0.0,0.0,0.0,0.0,0.0,5.3219,5.3217,5.3186,5.3203,5.3203,5.3039,5.2644,5.2112,5.2112,5.2112,5.2112,5.2666,5.2937,5.2915,5.2159,5.1469,5.0796,5.0061,4.9462,4.9018,4.9018,4.9018,4.9018,4.9018,4.9018,4.9018,0.0,0.0,0.0,0.0,0.0,0.0,0.0,0.0,0.0,0.0,0.0,0.0,0.0,0.0,0.0,0.0,0.0,0.0,0.0,0.0,2.7063,2.7858,2.9244,3.1644,3.5126,3.4641,3.5859,3.8903,3.8971,3.957,4.0595,3.7756,3.6804,3.7367,3.4571,3.3494,3.3753,3.3379,3.3151,3.3101,3.2949,0.0,0.0,0.0,0.0,0.0,0.0,0.0,0.0,0.0,0.0,0.0,0.0,0.0,3.5667,3.5633,3.56,3.5769,3.6502,3.7811,3.8768,3.8058,3.9005,4.0451,4.1745,4.2557,4.3234,4.3944,0.0,0.0,0.0,0.0,0.0,0.0,0.0,0.0,0.0,0.0,0.0,0.0,0.0,0.0,0.0,0.0,0.0,0.0,0.0,0.0,0.0,0.0,0.0,5.3191,5.3182,5.3203,5.3203,5.2531,5.2159,5.2112,5.2112,5.2112,5.2112,5.2159,5.2183,5.2136,5.1469,5.077,5.0033,4.9376,4.9046,4.9018,4.9018,4.9018,4.9018,4.9018,4.9018,4.9018,0.0,0.0,0.0,0.0,0.0,0.0,0.0,0.0,0.0,0.0,0.0,0.0,0.0,0.0,0.0,0.0,0.0,0.0,0.0,2.6691,2.7232,2.8484,2.9533,3.1393,3.4146,3.5351,3.7381,4.0358,3.9884,4.0079,4.0695,3.7276,3.6139,3.6894,3.4356,3.3742,3.4491,3.3839,3.3728,3.3857,3.3014,3.2336,0.0,0.0,0.0,0.0,0.0,0.0,0.0,0.0,3.3017,3.3592,3.4607,3.5228,3.56,3.56,3.5284,3.5081,3.5859,3.7178,3.8261,3.799,3.9343,4.1035,4.2049,4.2861,4.3747,4.5026,4.5263,0.0,0.0,0.0,0.0,0.0,0.0,0.0,0.0,0.0,0.0,0.0,0.0,0.0,0.0,0.0,0.0,0.0,0.0,0.0,0.0,0.0,0.0,5.3203,5.3203,5.3203,5.3203,5.245,5.2112,5.2089,5.1667,5.1469,5.1469,5.1469,5.1469,5.1444,5.0743,5.0251,4.9947,4.9286,4.9018,4.9018,4.9018,4.9018,4.9018,4.9018,4.9018,4.9018,0.0,0.0,0.0,0.0,0.0,0.0,0.0,0.0,0.0,0.0,0.0,0.0,0.0,0.0,0.0,0.0,0.0,0.0,2.6691,2.6691,2.7266,2.8552,2.9364,3.0784,3.2983,3.5035,3.728,3.9817,3.9546,3.9549,3.9754,3.6517,3.5654,3.6718,3.4255,3.4031,3.5447,3.4404,3.42,3.451,3.3462,3.2729,0.0,0.0,0.0,0.0,0.0,0.0,0.0,0.0,3.2632,3.322,3.4201,3.4844,3.5228,3.5228,3.4912,3.4539,3.4822,3.6197,3.7483,3.7246,3.9208,4.1576,4.3031,4.3944,4.4993,4.6718,4.6718,0.0,0.0,0.0,0.0,0.0,0.0,0.0,0.0,0.0,0.0,0.0,0.0,0.0,0.0,0.0,0.0,0.0,0.0,0.0,0.0,0.0,0.0,0.0,5.2821,5.2715,5.247,5.2004,5.1667,5.1444,5.0743,5.0662,5.1086,5.085,5.0743,5.0716,5.0195,4.9861,4.9634,4.9165,4.9018,4.9018,4.9018,4.9018,4.9018,4.9018,4.9018,4.9018,0.0,0.0,0.0,0.0,0.0,0.0,0.0,0.0,0.0,0.0,0.0,0.0,0.0,0.0,0.0,0.0,0.0,0.0,2.6691,2.6691,2.7029,2.7756,2.8552,3.0025,3.2226,3.3715,3.5238,3.6795,3.7516,3.7752,3.7447,3.5433,3.5442,3.6972,3.4235,3.4339,3.6477,3.4963,3.4576,3.4962,3.4464,3.3857,3.3198,0.0,0.0,0.0,0.0,0.0,0.0,0.0,3.2293,3.2564,3.3998,3.4472,3.4506,3.4506,3.4506,3.4336,3.3626,3.5081,3.6626,3.5836,3.8439,0.0,4.5026,4.6278,4.7428,4.9627,4.8951,4.7906,0.0,0.0,0.0,0.0,0.0,0.0,0.0,0.0,0.0,0.0,0.0,0.0,0.0,0.0,0.0,0.0,0.0,0.0,0.0,0.0,0.0,0.0,5.1977,5.163,5.0898,5.1027,5.0708,4.997,4.9282,4.9722,5.106,5.0307,5.0004,5.0004,5.0004,4.9605,4.9018,4.9018,4.9018,4.9018,4.9018,4.9018,4.9018,4.9018,4.9018,4.9018,0.0,0.0,0.0,0.0,0.0,0.0,0.0,0.0,0.0,0.0,0.0,0.0,0.0,0.0,0.0,0.0,0.0,0.0,2.7418,2.6996,2.6793,2.7029,2.7774,2.8484,2.9127,3.1123,3.3715,3.6795,3.7032,3.6797,3.6139,3.5033,3.5132,3.6195,3.5068,3.5225,3.6301,3.4904,3.4576,3.4889,3.393,3.3382,3.3126,0.0,0.0,0.0,0.0,0.0,0.0,0.0,0.0,0.0,3.2801,3.3998,3.5182,3.4641,3.4878,3.5351,3.569,3.6288,3.7134,3.8464,0.0,0.0,0.0,4.6244,0.0,0.0,4.9729,0.0,0.0,0.0,0.0,0.0,0.0,0.0,0.0,0.0,0.0,0.0,0.0,0.0,0.0,0.0,0.0,0.0,0.0,0.0,0.0,0.0,0.0,0.0,5.1169,5.0827,5.0114,4.9697,4.9125,4.8439,4.7778,4.8239,4.961,4.9406,4.9286,4.9286,4.9286,4.9165,4.9018,4.9018,4.9018,4.9018,4.9018,4.9018,4.9018,4.9018,4.9018,4.9018,0.0,0.0,0.0,0.0,0.0,0.0,0.0,0.0,0.0,0.0,2.7454,0.0,0.0,0.0,0.0,0.0,0.0,0.0,0.0,2.7571,2.7266,2.7622,2.774,2.8229,2.9108,3.1089,3.3017,3.5001,3.5306,3.5351,3.5182,3.5013,3.5659,3.6981,3.6477,3.6849,3.7754,3.6101,3.5652,3.5907,3.4849,3.4215,3.3851,0.0,0.0,0.0,0.0,0.0,0.0,0.0,0.0,0.0,3.2226,3.3241,3.4269,3.41,3.4167,3.4506,3.5611,3.6096,3.6941,3.9478,4.1441,4.3538,4.6549,0.0,0.0,0.0,0.0,0.0,0.0,0.0,0.0,0.0,0.0,0.0,0.0,0.0,0.0,0.0,0.0,0.0,0.0,0.0,0.0,0.0,0.0,0.0,0.0,0.0,0.0,0.0,5.0325,4.9987,4.9298,4.922,4.871,4.7781,4.7617,4.7775,4.8139,4.8139,4.8139,4.8139,4.8443,4.8748,4.9018,4.9018,4.9018,4.9018,4.9018,4.9018,4.9018,4.9018,4.9018,4.9018,0.0,0.0,0.0,0.0,0.0,0.0,0.0,0.0,0.0,0.0,2.8367,2.8241,0.0,0.0,0.0,0.0,0.0,0.0,0.0,0.0,2.8247,2.8976,2.8315,2.8939,3.1157,3.251,3.2882,3.2293,3.3051,3.3728,3.4404,3.5282,3.6725,3.8569,3.8197,3.8738,3.977,3.7805,3.7092,3.7249,3.6472,3.5752,3.5072,3.4598,0.0,0.0,0.0,0.0,0.0,0.0,0.0,0.0,3.2009,3.2293,3.253,3.3119,3.2916,3.2835,3.4324,3.5216,3.6445,3.9639,4.2185,0.0,4.7552,5.0268,5.2563,0.0,0.0,0.0,0.0,0.0,0.0,0.0,0.0,0.0,0.0,0.0,0.0,0.0,0.0,0.0,0.0,0.0,0.0,0.0,0.0,0.0,0.0,0.0,0.0,0.0,4.9463,4.9147,4.8402,4.9145,4.8805,0.0,4.8195,4.784,4.6583,4.6806,4.6844,4.6819,4.7597,4.8277,4.8917,4.8984,4.9018,4.9018,4.9018,4.9018,4.9018,4.9018,4.9018,4.9018,0.0,0.0,0.0,0.0,0.0,0.0,0.0,0.0,0.0,0.0,0.0,0.0,0.0,0.0,0.0,0.0,0.0,0.0,0.0,0.0,2.884,2.8976,2.884,2.9499,3.1157,3.1495,3.1887,3.2293,3.3051,3.3491,3.3681,3.5483,3.674,3.7584,3.8661,3.8522,3.7373,3.63,3.5879,3.5872,3.5462,3.5591,3.5893,3.4815,3.4238,0.0,0.0,0.0,0.0,0.0,0.0,0.0,3.1497,3.2239,3.3085,3.2666,3.3241,3.4358,3.5881,3.6423,0.0,4.1677,4.5263,4.8256,5.0076,5.098,5.1351,0.0,0.0,0.0,0.0,0.0,0.0,0.0,0.0,0.0,0.0,0.0,0.0,0.0,0.0,0.0,0.0,0.0,0.0,0.0,0.0,0.0,0.0,0.0,0.0,4.7626,4.8269,4.8271,4.7637,4.7818,4.7249,0.0,4.6604,4.6263,4.5122,4.6775,4.7267,4.6819,4.7597,4.7973,4.8206,4.8781,4.9018,4.9018,4.9018,4.9018,4.9018,4.9018,4.9018,4.9018,0.0,0.0,0.0,0.0,0.0,0.0,0.0,0.0,0.0,0.0,0.0,0.0,0.0,0.0,0.0,0.0,0.0,0.0,0.0,0.0,2.9668,3.0059,3.0717,3.1461,3.2239,3.2239,3.2442,3.2814,3.322,3.3761,3.4472,3.6228,3.7526,3.8488,3.9544,3.941,3.8274,3.7121,3.6532,3.6406,3.5849,3.5899,3.6178,3.5097,3.4576,3.4269,3.3223,0.0,0.0,0.0,0.0,0.0,0.0,0.0,3.2341,3.2327,3.2835,3.3829,3.5723,3.6524,0.0,4.2293,0.0,4.8772,4.9876,5.0175,0.0,0.0,0.0,0.0,0.0,0.0,0.0,0.0,0.0,0.0,0.0,0.0,0.0,0.0,0.0,0.0,0.0,0.0,0.0,0.0,0.0,0.0,0.0,4.6324,4.6544,4.6544,4.6948,4.6999,4.669,4.669,4.6188,4.5281,4.6247,4.6303,4.5477,4.5986,4.6243,4.6312,4.7056,4.7597,4.7939,4.8714,4.9018,4.9018,4.9018,4.9018,4.9018,4.9018,4.9018,4.9018,0.0,0.0,0.0,0.0,0.0,0.0,0.0,0.0,0.0,0.0,0.0,0.0,0.0,0.0,0.0,0.0,0.0,0.0,0.0,0.0,0.0,3.1732,3.2814,3.3457,3.3592,3.3592,3.366,3.3795,3.3931,3.4878,3.6569,3.7275,3.8226,3.9418,4.0102,4.0064,3.9391,3.815,3.7519,3.7314,3.6567,3.6376,3.6376,3.5371,3.4783,3.4407,3.361,3.306,3.2695,3.2631,0.0,0.0,0.0,0.0,3.1526,3.1981,3.215,3.2666,3.4697,3.6265,3.8328,4.2388,4.5471,0.0,4.8625,4.8704,0.0,0.0,0.0,0.0,0.0,0.0,0.0,0.0,0.0,0.0,0.0,0.0,0.0,0.0,0.0,0.0,0.0,0.0,0.0,0.0,0.0,0.0,4.548,4.5626,4.57,4.57,4.5847,4.5883,4.5883,4.5883,4.5548,4.4839,4.5936,4.6442,4.6342,4.5169,4.4925,4.5568,4.6413,4.7158,4.78,4.8646,4.9018,4.9018,4.9018,4.9018,4.9018,4.9018,4.9018,4.9018,0.0,0.0,0.0,0.0,0.0,0.0,0.0,0.0,0.0,0.0,0.0,0.0,0.0,0.0,0.0,0.0,0.0,0.0,0.0,0.0,0.0,3.4032,3.3626,3.3694,3.4336,3.4336,3.4675,3.5295,3.5994,3.7753,4.0392,3.8493,3.7671,3.7871,3.9089,3.8467,3.6503,3.6734,3.6847,3.6765,3.6449,3.6721,3.7162,3.5591,3.4962,3.4824,3.4032,3.3675,3.3578,3.3211,3.306,0.0,0.0,0.0,3.2196,3.1564,3.1602,3.2139,3.3358,0.0,4.0265,0.0,4.4722,4.635,0.0,0.0,0.0,0.0,0.0,0.0,0.0,0.0,0.0,0.0,0.0,0.0,0.0,0.0,0.0,0.0,0.0,0.0,0.0,0.0,0.0,0.0,0.0,0.0,4.3864,4.4488,4.4856,4.4856,4.5553,4.5883,4.5883,4.5883,4.5338,4.4201,4.3994,4.4757,4.6342,4.5169,4.4649,4.4818,4.6177,4.6853,4.7056,4.8443,4.9018,4.9018,4.9018,4.9018,4.9018,4.9018,4.9018,4.9018,0.0,0.0,0.0,0.0,0.0,0.0,0.0,0.0,0.0,0.0,0.0,0.0,0.0,0.0,0.0,0.0,0.0,0.0,0.0,0.0,0.0,3.4472,3.4607,3.4754,3.5115,3.5554,3.5926,3.6265,3.7043,3.87,4.117,4.0114,4.0065,4.0817,4.1191,4.0276,3.8439,3.765,3.7235,3.7109,3.6523,3.6486,3.6684,3.5481,3.5004,3.4968,3.4601,3.4174,3.3853,3.414,3.3756,3.3121,3.2711,0.0,0.0,0.0,3.2191,3.2785,3.4228,3.6073,3.8203,0.0,4.2083,4.3044,4.4927,0.0,0.0,0.0,0.0,0.0,0.0,0.0,0.0,0.0,0.0,0.0,0.0,0.0,0.0,0.0,0.0,0.0,0.0,0.0,0.0,0.0,0.0,4.3864,4.3515,4.3828,4.4011,4.4011,4.4378,4.4562,4.4562,4.4562,4.4528,4.4449,4.4343,4.48,4.5705,4.5295,4.4934,4.4682,4.6143,4.6786,4.6921,4.8376,4.9018,4.9018,4.9018,4.9018,4.9018,4.9018,4.9018,4.9018,0.0,0.0,0.0,0.0,0.0,0.0,0.0,0.0,0.0,0.0,0.0,0.0,0.0,0.0,0.0,0.0,0.0,0.0,0.0,0.0,0.0,3.5081,3.5791,3.6174,3.6174,3.6772,3.7168,3.7371,3.7922,3.9411,4.1779,4.1982,4.276,4.3938,4.2881,4.1401,3.9624,3.8448,3.7715,3.7317,3.6582,3.6208,3.5974,3.5036,3.4711,3.4711,3.4931,3.4601,3.4197,0.0,3.4381,3.3604,0.0,0.0,0.0,0.0,0.0,3.303,0.0,0.0,3.569,3.8294,3.9242,4.0062,0.0,0.0,0.0,0.0,0.0,0.0,0.0,0.0,0.0,0.0,0.0,0.0,0.0,0.0,0.0,0.0,0.0,0.0,0.0,0.0,0.0,0.0,0.0,4.3515,4.3515,4.3515,4.3515,4.3515,4.3515,4.3515,4.3515,4.3356,4.3778,4.4691,4.4385,4.4569,4.5175,4.5041,4.4837,4.4682,4.594,4.6616,4.6887,4.8206,4.8849,4.9018,4.9018,4.9018,4.9018,4.9018,4.9018,4.9018,0.0,0.0,0.0,0.0,0.0,0.0,0.0,0.0,0.0,0.0,0.0,0.0,0.0,0.0,3.6814,3.7359,0.0,0.0,0.0,0.0,0.0,3.6694,3.7381,0.0,3.7787,3.7821,3.8193,3.887,3.8903,4.0426,4.3274,4.4045,4.4823,4.5466,4.2543,3.9914,3.7586,3.8084,3.7845,3.7089,3.6521,3.5994,3.5415,3.4278,3.3844,0.0,0.0,0.0,0.0,0.0,0.0,0.0,0.0,0.0,0.0,0.0,0.0,0.0,0.0,3.3337,0.0,3.543,3.6918,0.0,0.0,0.0,0.0,0.0,0.0,0.0,0.0,0.0,0.0,0.0,0.0,0.0,0.0,0.0,0.0,0.0,0.0,0.0,0.0,0.0,0.0,0.0,0.0,4.3515,4.3515,4.3515,4.3515,4.3515,4.3515,4.3515,4.3515,4.3013,4.3413,4.4691,4.305,4.3313,4.5152,4.4035,4.3904,4.4649,4.5432,4.6143,4.6853,4.7665,4.8376,4.9018,4.9018,4.9018,4.9018,4.9018,4.9018,4.9018,0.0,0.0,0.0,0.0,0.0,0.0,0.0,0.0,0.0,0.0,0.0,0.0,0.0,3.7174,3.7509,3.8196,3.8036,0.0,0.0,0.0,0.0,3.6785,3.7066,3.7415,3.7889,3.8362,3.8734,3.9005,3.9445,4.073,4.2692,4.2997,4.3267,4.3504,4.3403,4.2261,4.032,3.9507,3.8958,0.0,0.0,0.0,0.0,0.0,0.0,0.0,0.0,0.0,0.0,0.0,0.0,0.0,0.0,0.0,0.0,0.0,0.0,0.0,0.0,0.0,0.0,3.4857,3.5185,3.5419,0.0,0.0,0.0,0.0,0.0,0.0,0.0,0.0,0.0,0.0,0.0,0.0,0.0,0.0,0.0,0.0,0.0,0.0,0.0,0.0,0.0,0.0,0.0,0.0,4.3515,4.3515,4.3515,4.3515,4.3515,4.3515,4.3515,4.3303,4.345,4.3938,4.3826,4.402,4.4445,4.4515,4.457,4.4615,4.4857,4.5399,4.6177,4.7428,4.8071,4.8342,4.8815,4.9018,4.9018,4.9018,4.9018,4.9018,0.0,0.0,0.0,0.0,0.0,0.0,0.0,0.0,0.0,0.0,0.0,0.0,0.0,0.0,3.8909,3.946,3.9034,3.8618,3.8419,3.7615,3.7162,3.7191,3.7405,3.7855,3.8633,3.9106,3.9368,3.9368,3.9876,4.0756,4.1948,4.2185,4.2286,4.232,4.3369,4.2932,4.1297,0.0,0.0,3.9116,0.0,0.0,3.6283,0.0,0.0,0.0,0.0,0.0,0.0,0.0,0.0,0.0,0.0,0.0,0.0,0.0,0.0,0.0,3.3418,0.0,0.0,0.0,0.0,0.0,0.0,0.0,0.0,0.0,0.0,0.0,0.0,0.0,0.0,0.0,0.0,0.0,0.0,0.0,0.0,0.0,0.0,0.0,0.0,0.0,0.0,0.0,0.0,0.0,4.3515,4.3515,4.3515,4.3515,4.3515,4.3515,4.3515,4.3515,4.3515,4.3497,4.3852,4.3868,4.3668,4.4261,4.441,4.4215,4.4479,4.5026,4.5771,4.6786,4.7432,4.7939,4.8443,4.8781,4.9018,4.9018,4.9018,4.9018,0.0,0.0,0.0,0.0,0.0,0.0,0.0,0.0,0.0,3.7785,0.0,0.0,0.0,0.0,0.0,4.1132,4.065,3.9805,3.858,3.8657,3.8525,3.797,0.0,0.0,0.0,4.0113,4.0113,4.0113,4.0113,4.0485,4.117,4.188,4.2219,4.2219,4.2219,4.1467,4.007,0.0,3.9442,3.8933,0.0,3.7251,3.7418,0.0,0.0,0.0,3.7827,3.7655,0.0,0.0,0.0,0.0,0.0,0.0,0.0,0.0,0.0,0.0,0.0,0.0,0.0,0.0,0.0,0.0,0.0,0.0,0.0,0.0,0.0,0.0,0.0,0.0,0.0,0.0,0.0,0.0,0.0,0.0,0.0,0.0,0.0,0.0,0.0,0.0,0.0,0.0,0.0,4.3515,4.3515,4.3515,4.3515,4.3515,4.3515,4.3515,4.3515,4.3515,4.3515,4.3497,4.2958,4.2813,4.2992,4.3149,4.334,4.3532,4.4304,4.5021,4.5669,4.5703,4.6583,4.7872,4.7906,4.8376,4.9018,4.9018,4.9018,4.9018,0.0,0.0,0.0,0.0,0.0,0.0,0.0,0.0,0.0,0.0,0.0,0.0,4.1294,4.1725,4.1992,4.1992,4.1289,4.0813,4.0633,4.014,3.9681,3.9296,3.9457,3.9727,4.0079,4.0113,4.0113,4.0113,4.0113,4.0214,4.0417,4.062,4.0722,4.0722,4.0722,4.0485,4.0079,4.0016,0.0,4.0417,3.8457,3.8036,0.0,0.0,0.0,0.0,0.0,3.5959,3.6461,0.0,3.6254,3.7186,0.0,0.0,0.0,0.0,0.0,0.0,3.362,0.0,0.0,0.0,0.0,0.0,0.0,0.0,0.0,0.0,0.0,0.0,0.0,0.0,0.0,0.0,0.0,0.0,0.0,0.0,0.0,0.0,0.0,0.0,0.0,0.0,0.0,0.0,4.3515,4.3515,4.3515,4.3515,4.3515,4.3515,4.3515,4.3515,4.3515,4.3515,4.3515,4.3515,4.3339,4.3685,4.4432,4.4478,4.4648,4.4931,4.5138,4.5118,4.4987,4.6041,4.6752,4.7225,4.8274,4.8815,4.9018,4.9018,4.9018,4.9018,0.0,0.0,0.0,0.0,0.0,0.0,0.0,4.0414,4.0606,0.0,0.0,0.0,4.2727,4.2591,4.2556,4.2783,4.2171,4.1705,4.1505,4.1052,4.0506,3.9844,3.9777,3.9881,4.0104,4.0113,4.0113,4.0113,4.0113,4.0113,4.0113,0.0,0.0,0.0,0.0,0.0,0.0,0.0,0.0,0.0,3.9005,0.0,0.0,3.7966,3.7459,0.0,0.0,0.0,3.734,3.6285,3.6521,0.0,0.0,0.0,0.0,0.0,0.0,0.0,0.0,0.0,0.0,0.0,0.0,0.0,3.3307,3.3457,0.0,0.0,0.0,0.0,0.0,0.0,0.0,0.0,0.0,0.0,0.0,0.0,0.0,0.0,0.0,0.0,0.0,0.0,0.0,4.2506,4.28,4.313,4.3478,4.3515,4.3515,4.3515,4.3515,4.3515,4.3515,4.3515,4.3515,4.3497,4.3268,4.3485,4.4045,4.3857,4.405,4.4542,4.4595,4.4626,4.4744,4.6482,4.7072,4.6921,4.8105,4.8748,4.9018,4.9018,4.9018,4.9018,0.0,0.0,0.0,0.0,0.0,0.0,0.0,0.0,0.0,0.0,4.2357,4.2983,4.3698,4.3269,0.0,0.0,4.3105,4.25,4.1759,4.1723,4.1232,4.0184,4.0051,4.0077,4.0204,4.0104,4.0113,4.0113,4.0113,4.0113,4.0113,4.0113,0.0,0.0,0.0,0.0,0.0,0.0,0.0,4.0045,3.9402,3.9639,0.0,0.0,4.0087,0.0,4.002,3.958,3.8792,3.7373,3.6713,0.0,0.0,0.0,0.0,0.0,3.645,0.0,0.0,0.0,0.0,0.0,0.0,0.0,3.4546,3.337,3.2322,0.0,0.0,0.0,0.0,0.0,0.0,0.0,0.0,0.0,0.0,0.0,0.0,0.0,0.0,0.0,0.0,4.1095,4.1095,4.1095,4.1846,4.2616,4.3331,4.3441,4.3515,4.3515,4.3515,4.3515,4.3515,4.3515,4.3515,4.3497,4.2976,4.2765,4.2799,4.2454,4.2728,4.3464,4.3544,4.4123,4.509,4.7003,4.7402,4.6917,4.7789,4.847,4.9018,4.9018,4.9018,4.9018,0.0,0.0,0.0,0.0,0.0,0.0,0.0,0.0,4.3499,4.4839,4.5132,4.5259,4.5406,4.4766,0.0,0.0,4.3777,4.3265,4.3137,4.31,4.2832,4.2167,4.1682,4.12,4.0756,4.0319,4.0113,4.0113,4.0113,4.0113,4.0113,4.0113,0.0,0.0,0.0,0.0,0.0,0.0,0.0,4.0079,3.9943,0.0,4.1711,4.0553,4.0113,4.0011,3.9411,3.9106,3.8807,0.0,3.7327,3.7436,0.0,0.0,0.0,0.0,0.0,0.0,0.0,0.0,0.0,0.0,0.0,0.0,3.5066,3.4635,3.4233,0.0,0.0,0.0,0.0,0.0,0.0,0.0,0.0,0.0,0.0,0.0,0.0,0.0,0.0,0.0,0.0,4.1095,4.1095,4.1095,4.1846,4.2359,4.2543,4.313,4.3515,4.3515,4.3515,4.3515,4.3515,4.3515,4.3515,4.3497,4.2976,4.3018,4.3651,4.3576,4.4043,4.487,4.4882,4.5712,4.7141,4.7613,4.7402,4.698,4.8855,4.9325,4.9018,4.9018,4.9018,4.9018,0.0,0.0,0.0,0.0,0.0,0.0,0.0,0.0,4.5112,4.6361,4.6838,4.6801,4.5993,0.0,0.0,0.0,0.0,0.0,0.0,4.3515,4.325,4.2713,4.2402,4.1958,4.134,4.078,4.048,4.048,4.0229,4.0113,4.0113,4.0485,0.0,0.0,0.0,0.0,0.0,0.0,4.1407,4.1644,4.0553,0.0,4.1128,4.0383,4.0113,4.0045,3.9673,3.9309,3.8967,3.8699,3.8183,0.0,0.0,3.8349,3.7667,0.0,3.8138,3.7514,0.0,0.0,0.0,3.7514,0.0,0.0,0.0,3.4674,3.405,0.0,0.0,0.0,0.0,0.0,0.0,0.0,0.0,0.0,0.0,0.0,0.0,0.0,0.0,0.0,0.0,3.9313,3.9643,4.0451,4.0891,4.1442,4.2249,4.269,4.3094,4.3515,4.3515,4.3515,4.3515,4.3515,4.3515,4.3497,4.2638,4.2757,4.3669,4.3263,4.3814,4.5136,4.4918,4.5668,4.7121,4.799,4.7881,4.7432,4.9274,4.9576,4.9018,4.9018,4.9018,4.9018,0.0,0.0,0.0,0.0,0.0,0.0,0.0,0.0,4.603,4.6966,4.7773,4.7829,0.0,0.0,0.0,0.0,0.0,0.0,0.0,0.0,4.3123,4.2629,4.2659,4.239,4.173,4.1292,4.1036,4.092,4.049,4.0272,4.0316,0.0,0.0,0.0,0.0,0.0,0.0,0.0,0.0,4.2801,0.0,4.0485,4.0696,4.0417,4.0316,4.0282,4.0146,3.974,3.9248,3.9465,0.0,3.8216,3.8923,3.8796,0.0,0.0,0.0,0.0,0.0,0.0,0.0,0.0,0.0,3.7529,0.0,0.0,0.0,3.2412,0.0,0.0,0.0,0.0,0.0,0.0,0.0,0.0,0.0,0.0,0.0,0.0,0.0,0.0,0.0,3.7639,3.8264,3.957,3.979,4.0451,4.1772,4.2139,4.2616,4.324,4.3441,4.3515,4.3515,4.3515,4.3515,4.3497,4.2346,4.2327,4.3322,4.2646,4.3248,4.4812,4.4777,4.5479,4.6767,4.8256,4.8502,4.81,4.9618,4.9722,4.9018,4.9018,4.9018,4.9018,3.98,4.0382,0.0,0.0,0.0,0.0,0.0,0.0,4.5388,4.6892,4.7773,0.0,0.0,0.0,0.0,0.0,0.0,0.0,4.647,0.0,0.0,4.2368,4.2558,4.2294,4.148,4.1609,4.1464,4.092,4.085,4.0896,0.0,0.0,0.0,0.0,4.1508,0.0,0.0,0.0,4.1373,0.0,4.117,4.188,0.0,4.1576,4.1068,4.1001,4.035,4.0045,3.9876,0.0,3.8986,3.8982,0.0,3.9181,0.0,0.0,0.0,0.0,0.0,0.0,0.0,0.0,3.9166,0.0,0.0,0.0,3.5752,3.4784,0.0,0.0,0.0,0.0,0.0,0.0,0.0,0.0,0.0,0.0,0.0,0.0,0.0,0.0,0.0,0.0,3.8652,3.8836,3.9496,3.9974,4.0157,4.1515,4.2323,4.2433,4.313,4.3515,4.3515,4.3515,4.3515,4.3497,4.2346,4.2144,4.2787,4.2881,4.3368,4.4259,4.5473,4.6601,4.7629,4.8455,4.8792,4.8903,5.0391,5.0174,4.9018,4.9018,4.9018,4.9018,4.0744,4.1258,0.0,0.0,0.0,0.0,0.0,0.0,0.0,4.9089,0.0,0.0,0.0,0.0,0.0,0.0,0.0,4.4771,0.0,0.0,0.0,0.0,4.3597,0.0,4.3306,4.2671,4.2221,4.1937,4.1582,4.1301,0.0,0.0,0.0,0.0,4.2049,0.0,4.1745,0.0,4.3166,0.0,0.0,0.0,0.0,4.161,4.0561,4.0493,4.0214,4.0113,4.0045,0.0,3.9639,0.0,0.0,0.0,0.0,0.0,0.0,0.0,0.0,0.0,0.0,0.0,0.0,0.0,0.0,0.0,3.6743,0.0,0.0,0.0,0.0,0.0,0.0,0.0,0.0,0.0,0.0,0.0,0.0,0.0,0.0,0.0,0.0,0.0,0.0,0.0,0.0,3.8704,3.9166,4.0744,4.1809,4.2286,4.3057,4.3339,4.305,4.3339,4.3339,4.305,4.2541,4.2599,4.3196,4.3897,4.4556,4.5176,4.596,4.678,4.755,4.7986,4.8195,4.8355,4.9846,4.982,4.9018,4.9018,4.9018,4.9018,4.1882,0.0,0.0,0.0,0.0,0.0,0.0,0.0,0.0,0.0,0.0,0.0,5.2798,5.121,0.0,0.0,0.0,4.6545,0.0,0.0,4.4065,0.0,0.0,0.0,0.0,0.0,4.3189,4.3018,4.219,4.1719,0.0,0.0,0.0,0.0,0.0,4.3031,4.1948,0.0,0.0,4.4039,4.4756,4.4959,4.4485,4.1711,4.0587,4.0383,4.018,4.0113,4.0113,4.0113,4.0113,0.0,4.0568,0.0,0.0,0.0,0.0,0.0,4.1345,0.0,0.0,0.0,0.0,0.0,0.0,0.0,0.0,0.0,0.0,0.0,0.0,0.0,0.0,0.0,0.0,0.0,0.0,0.0,0.0,0.0,0.0,0.0,0.0,0.0,0.0,0.0,0.0,0.0,3.8652,4.0215,4.1462,4.2286,4.2936,4.3105,4.2693,4.2921,4.2865,4.2442,4.2442,4.2751,4.3341,4.4534,4.5299,4.5715,4.6536,4.6999,4.7196,4.7737,4.7889,4.7823,4.9122,4.9384,4.9018,4.9018,4.9018,4.9052,4.3441,4.28,0.0,0.0,0.0,0.0,0.0,0.0,0.0,0.0,0.0,0.0,0.0,0.0,0.0,0.0,0.0,4.8222,4.9365,0.0,4.5045,0.0,0.0,4.5112,0.0,0.0,0.0,4.3868,4.2495,0.0,0.0,0.0,0.0,0.0,0.0,4.4079,4.3375,4.4215,4.3735,4.2422,4.32,4.3064,4.2388,0.0,4.1779,4.1068,4.0383,0.0,0.0,4.0113,4.0113,0.0,0.0,0.0,0.0,0.0,0.0,0.0,0.0,0.0,0.0,4.1499,0.0,0.0,0.0,0.0,3.8652,0.0,0.0,0.0,0.0,0.0,0.0,0.0,0.0,0.0,0.0,0.0,0.0,0.0,0.0,0.0,0.0,0.0,0.0,0.0,0.0,0.0,3.8652,4.0215,4.1462,4.2286,4.2559,4.2713,4.2693,4.2124,4.1853,4.1832,4.1832,4.2124,4.2785,4.4357,4.508,4.5152,4.7322,4.7554,4.6554,4.8063,4.8294,4.7782,4.8673,4.9015,4.9018,4.9018,4.9018,4.912,0.0,0.0,0.0,0.0,0.0,0.0,0.0,4.8972,0.0,0.0,0.0,0.0,0.0,0.0,5.6472,0.0,0.0,5.1585,4.9703,4.854,0.0,0.0,0.0,4.6728,0.0,0.0,0.0,0.0,0.0,0.0,0.0,0.0,0.0,0.0,0.0,4.3048,0.0,0.0,0.0,0.0,0.0,4.479,4.4316,0.0,0.0,4.1154,4.0754,4.0417,0.0,4.0978,4.0943,4.0709,4.1296,4.1508,4.1625,4.2442,4.2693,0.0,0.0,0.0,4.3351,4.28,0.0,0.0,0.0,0.0,0.0,0.0,0.0,0.0,0.0,0.0,0.0,0.0,0.0,0.0,0.0,0.0,0.0,0.0,0.0,0.0,0.0,0.0,0.0,0.0,0.0,0.0,0.0,3.9263,4.0812,4.1499,4.1895,4.2083,4.2083,4.1895,4.1617,4.1206,4.1617,4.2388,4.3543,4.461,4.555,4.6443,4.7304,4.7449,4.7115,4.8191,4.824,4.783,4.911,4.9367,4.9018,4.9018,4.9018,4.9187,4.4654,0.0,0.0,0.0,0.0,0.0,0.0,0.0,0.0,0.0,5.6336,0.0,6.1373,0.0,5.9745,0.0,5.6926,5.4446,5.1105,5.0764,0.0,4.836,4.8893,0.0,0.0,0.0,0.0,0.0,0.0,4.5228,0.0,0.0,0.0,0.0,0.0,4.3383,4.1745,0.0,4.4215,0.0,0.0,4.5297,0.0,0.0,4.1982,4.1925,0.0,4.0937,4.0538,4.1486,4.1516,4.1318,4.1937,4.1979,4.1958,4.277,4.2827,4.2808,4.3339,4.3515,0.0,4.3515,4.291,0.0,4.2653,0.0,0.0,0.0,0.0,0.0,0.0,0.0,0.0,0.0,0.0,0.0,0.0,3.4234,0.0,0.0,0.0,0.0,0.0,0.0,0.0,0.0,0.0,0.0,0.0,0.0,4.0742,4.1172,4.1586,4.1703,4.1473,4.1286,4.099,4.0625,4.1442,4.2305,4.3212,4.4673,4.5859,4.669,4.7441,4.7715,4.7767,4.8385,4.8422,4.8145,4.9164,4.9338,4.9018,4.9018,4.9323,4.9932,0.0,0.0,0.0,0.0,4.7315,0.0,0.0,0.0,5.4756,0.0,5.8608,6.0846,6.1851,6.1865,6.1748,6.1706,5.9504,0.0,5.3592,5.4082,0.0,0.0,5.0068,4.9738,4.7223,0.0,0.0,0.0,0.0,0.0,0.0,0.0,0.0,0.0,4.5956,0.0,4.2441,4.4688,4.4384,4.2523,4.4005,4.4615,4.4581,4.3775,4.3443,4.3349,4.2477,4.1648,4.1047,4.1717,4.1909,4.1937,4.2537,4.2322,4.2103,4.3142,4.3124,4.2827,4.3356,4.3515,4.3515,4.3515,0.0,0.0,0.0,0.0,4.2359,0.0,0.0,0.0,0.0,0.0,0.0,0.0,0.0,0.0,0.0,0.0,0.0,0.0,0.0,0.0,0.0,0.0,0.0,0.0,0.0,0.0,0.0,0.0,4.1153,4.1322,4.1599,4.1473,4.092,4.0368,4.0113,4.0138,4.1218,4.1825,4.1995,4.4648,4.5902,4.6104,4.7645,4.8343,4.8412,4.8672,4.8785,4.8796,4.9056,4.9107,4.9046,4.9052,4.9932,5.1183,4.6415,4.7645,4.8656,0.0,4.8453,4.9077,0.0,0.0,0.0,0.0,6.1121,6.3401,6.4144,6.4293,6.3612,6.1851,6.0526,0.0,0.0,0.0,0.0,5.1206,5.205,5.1132,4.8086,4.9224,0.0,4.7682,0.0,0.0,4.6809,0.0,0.0,0.0,0.0,0.0,4.2339,4.4123,4.4547,4.4039,4.4445,4.4925,0.0,0.0,4.4282,4.4211,4.3777,4.2789,4.1998,4.3464,4.3278,4.2518,4.2655,4.2865,4.3051,4.2921,4.3105,4.3321,4.348,4.3515,4.3515,4.3515,4.3314,4.324,0.0,0.0,0.0,0.0,0.0,0.0,0.0,0.0,0.0,0.0,0.0,0.0,0.0,0.0,0.0,0.0,0.0,0.0,0.0,0.0,0.0,0.0,0.0,0.0,0.0,0.0,0.0,4.0527,4.092,4.1082,4.092,4.0368,4.0113,4.0113,4.078,4.1981,4.3633,4.4782,4.6185,4.7719,4.8122,4.8673,4.9314,4.9982,4.9991,4.9715,5.085,5.0662,4.9762,4.9777,5.0067,5.0541,4.759,0.0,0.0,5.1593,0.0,0.0,5.3408,0.0,0.0,5.9823,6.2411,0.0,6.4612,6.5038,6.4448,6.2364,6.1103,0.0,0.0,0.0,0.0,5.3151,5.3151,5.183,4.893,4.9077,0.0,4.7773,0.0,0.0,4.7406,0.0,0.0,0.0,0.0,4.4871,0.0,4.3695,4.4451,4.5026,4.475,0.0,0.0,4.4784,4.4615,4.4612,4.4984,4.4202,4.3147,4.4304,4.42,4.3486,4.3159,4.3105,4.3142,4.3087,4.3105,4.3196,4.3445,4.3515,4.3515,4.3515,4.3515,4.3515,4.3515,4.3515,4.3351,0.0,0.0,0.0,0.0,0.0,0.0,0.0,0.0,0.0,0.0,0.0,0.0,0.0,0.0,0.0,0.0,0.0,0.0,0.0,0.0,0.0,0.0,0.0,0.0,4.0203,4.1548,4.1835,4.092,4.1016,4.0756,4.0113,4.0897,4.2128,4.3704,4.4899,4.6299,4.7773,4.8159,4.86,4.9094,4.995,4.9928,4.9488,5.04,5.0655,5.0541,5.0584,5.0574,5.0744,0.0,0.0,0.0,0.0,0.0,0.0,0.0,5.7121,0.0,6.1557,0.0,6.4246,6.4259,6.4787,6.4494,6.2805,0.0,5.9758,5.8253,5.807,5.6969,5.4656,5.3812,5.2234,4.9831,4.8343,0.0,0.0,0.0,0.0,4.7714,0.0,0.0,0.0,0.0,0.0,0.0,4.3498,4.4316,0.0,4.4919,4.4682,4.475,4.4649,4.4615,4.4776,4.5965,4.5469,4.4303,4.4726,4.4764,4.4599,4.3864,4.3324,4.3065,4.3539,4.3324,4.3029,4.3393,4.3515,4.3515,4.3515,4.3515,4.3515,4.3515,4.3515,4.3515,4.3515,4.2947,4.2249,0.0,0.0,0.0,0.0,0.0,0.0,0.0,0.0,0.0,0.0,0.0,0.0,0.0,0.0,0.0,0.0,0.0,0.0,0.0,0.0,0.0,4.0018,4.2399,0.0,4.1114,0.0,4.1545,4.0383,4.1382,4.2312,4.3208,4.5081,4.6433,4.7296,4.7899,4.8339,4.8688,4.9322,4.9353,4.9007,4.911,4.9983,5.1198,5.1301,5.132,5.1454,0.0,0.0,0.0,0.0,0.0,5.84,6.0272,6.1825,6.3009,6.3613,6.505,6.5793,6.5165,6.4604,6.3649,6.1961,6.097,0.0,0.0,0.0,0.0,5.5464,5.462,5.3078,5.0655,5.0288,4.9848,0.0,4.917,4.9184,4.9215,0.0,0.0,0.0,0.0,0.0,4.5052,4.3885,0.0,4.5635,4.4919,4.4959,4.5432,4.4852,4.4615,4.4776,4.5965,4.5823,4.5062,4.5527,4.5259,4.4654,4.4525,4.4417,4.4382,4.4453,4.4417,4.4235,4.3664,4.3515,4.3515,4.3515,4.3515,4.3515,4.3515,4.3515,4.3515,4.3515,4.3404,4.324,4.3094,0.0,0.0,0.0,0.0,0.0,0.0,0.0,0.0,0.0,0.0,0.0,0.0,0.0,0.0,0.0,0.0,0.0,0.0,0.0,0.0,0.0,4.1032,0.0,0.0,0.0,4.1395,4.1907,4.2019,4.2718,4.4024,4.5471,4.6872,4.8047,4.7704,4.8603,5.0281,4.9326,4.9628,5.0611,5.0133,5.0427,5.1267,5.1879,5.2097,5.2232,0.0,0.0,0.0,0.0,0.0,0.0,0.0,6.5154,0.0,6.4824,6.5044,6.4934,6.409,6.4053,6.3246,6.1153,6.0639,5.9869,5.8657,5.8217,5.7483,5.6271,5.506,0.0,5.1463,5.0178,4.9554,4.961,4.871,4.8746,0.0,0.0,0.0,0.0,0.0,4.6992,0.0,0.0,0.0,4.5669,4.5297,4.5128,4.5094,4.475,4.4615,4.4776,4.5965,4.6141,4.5902,4.6365,4.6269,4.5865,4.5443,4.5333,4.5259,4.4819,4.4691,4.4525,4.3718,4.3515,4.3515,4.3515,4.3515,4.3515,4.3515,4.3515,4.3515,4.3515,4.3515,4.3515,4.3515,4.2506,0.0,0.0,0.0,0.0,0.0,0.0,0.0,0.0,0.0,0.0,0.0,0.0,0.0,0.0,0.0,0.0,0.0,0.0,0.0,0.0,0.0,0.0,0.0,0.0,0.0,4.2192,4.2492,4.3406,4.4781,4.5397,4.6694,4.8374,4.7779,4.8335,4.9667,4.9058,4.9723,5.0991,4.9928,5.0427,5.1785,5.1743,5.2232,5.2976,0.0,5.8033,0.0,0.0,6.3246,0.0,6.5962,6.7063,6.7247,6.5999,6.5118,6.4273,6.3429,6.3796,6.3099,6.0639,6.0419,5.9722,5.8107,5.7997,5.7629,5.6859,5.5427,5.3885,5.227,4.9994,4.915,0.0,4.8379,4.8379,0.0,0.0,0.0,0.0,0.0,0.0,0.0,0.0,4.6694,4.634,4.5862,4.5432,4.5055,4.4716,4.4615,4.4776,4.5965,4.6389,4.6506,4.713,4.7223,4.7003,4.6361,4.6177,4.5993,4.5186,4.4966,4.4745,4.3754,4.3515,4.3515,4.3515,4.3515,4.3515,4.3515,4.3515,4.3515,4.3515,4.3515,4.3515,4.3515,4.247,0.0,0.0,0.0,0.0,0.0,0.0,0.0,0.0,0.0,0.0,0.0,0.0,0.0,0.0,0.0,3.7885,3.8204,3.95,0.0,0.0,0.0,4.3319,4.2846,0.0,4.3429,0.0,4.3062,4.3885,4.5117,4.5211,4.6365,4.8286,4.7641,4.7799,4.8566,4.8931,4.9701,5.0562,4.9778,5.054,5.2027,5.1781,5.2469,5.3518,0.0,0.0,0.0,0.0,0.0,0.0,0.0,6.6696,6.7677,6.7504,6.6769,6.5962,6.5154,6.4494,6.3099,6.0639,6.0419,5.9722,5.8107,5.7997,5.7629,5.6859,5.5941,5.473,5.3093,5.1426,5.0618,0.0,0.0,4.9811,0.0,0.0,0.0,0.0,0.0,0.0,0.0,4.7943,4.8058,4.8439,4.6465,4.6075,4.6447,4.5122,4.4615,4.4776,4.5965,4.6389,4.6577,4.7786,4.77,4.7076,4.7003,4.7003,4.6819,4.603,4.5773,4.5443,4.3901,4.3515,4.3515,4.3515,4.3515,4.3515,4.3515,4.3515,4.3515,4.3515,4.3515,4.3515,4.3515,4.3404,4.3057,0.0,0.0,0.0,0.0,0.0,0.0,0.0,0.0,0.0,0.0,0.0,0.0,0.0,0.0,3.8796,3.9309,3.9889,3.9873,3.9116,0.0,4.2439,4.3333,4.2634,4.2996,4.4359,4.3688,4.3784,4.4535,4.518,4.63,4.7652,4.6968,4.7203,4.8073,4.9367,4.9595,4.9335,5.0505,5.1114,5.1449,5.2807,5.3382,5.3518,0.0,0.0,0.0,0.0,0.0,0.0,0.0,6.7577,6.7687,6.7687,6.6586,6.5668,6.5338,6.4127,6.2732,6.1263,6.0676,5.9942,5.8804,5.8253,5.785,5.7519,5.6271,5.506,5.3959,5.2344,5.1279,0.0,0.0,0.0,0.0,0.0,0.0,0.0,0.0,5.0031,4.94,4.9174,4.8506,4.7626,4.7174,4.6921,4.6777,4.6582,4.6509,4.6631,4.7417,4.8025,4.852,4.8948,4.8526,4.781,4.781,4.781,4.7663,4.6856,4.6599,4.6361,4.5259,4.4599,4.4232,4.4232,4.3864,4.3515,4.3515,4.3515,4.3515,4.3515,4.3515,4.3515,4.3515,4.3515,4.3404,0.0,0.0,0.0,0.0,0.0,0.0,0.0,0.0,0.0,0.0,0.0,0.0,0.0,0.0,0.0,3.9534,4.0095,4.0137,3.949,0.0,4.2347,4.311,4.3311,4.3768,4.4437,4.4204,4.4667,4.5736,4.5664,4.6398,4.7789,4.7951,4.8239,4.8578,4.915,4.9498,4.9729,5.0304,5.1082,5.1928,5.257,5.3078,5.3518,6.3759,0.0,6.5852,0.0,6.8128,6.8128,6.8788,6.8421,6.7944,6.7724,6.6292,6.5301,6.5301,6.4053,6.2768,6.1704,6.086,6.0052,5.9258,5.8437,5.7997,5.7997,5.6675,0.0,5.4766,5.3188,5.1977,5.1169,5.1169,0.0,0.0,0.0,0.0,0.0,5.1167,5.0828,5.0254,5.0011,4.9062,4.7753,4.7857,4.7597,4.7179,4.7638,4.7808,4.7891,4.8672,4.932,4.9828,4.9907,4.9554,4.9003,4.8746,4.8526,4.8159,4.7333,4.7113,4.6929,4.6104,4.548,4.5039,4.5039,4.4635,4.4121,4.3901,4.3864,4.3791,4.3551,4.3515,4.3515,4.3515,4.3515,4.3515,4.3515,0.0,0.0,0.0,0.0,0.0,0.0,0.0,4.2653,4.2653,0.0,0.0,0.0,0.0,0.0,0.0,4.0459,0.0,0.0,0.0,0.0,0.0,4.3706,4.4242,4.4722,4.4844,4.5512,4.6632,4.6442,4.6921,4.7939,4.868,4.912,4.9323,4.9323,4.9763,5.0439,5.0642,5.1386,5.2334,5.257,5.301,5.3518,6.5962,6.71,6.8164,6.9779,7.0734,7.0734,6.9155,6.8898,6.8605,6.7797,6.6292,6.5301,6.5301,6.4567,6.3392,6.1741,6.086,6.0052,5.9258,5.8437,5.7997,0.0,0.0,5.6418,5.5596,5.3995,5.2784,5.1977,0.0,0.0,5.1977,0.0,5.2747,5.1993,5.2064,5.1643,5.0865,5.0258,4.997,4.9815,4.8473,4.7872,4.7861,4.7817,4.7808,4.7961,4.9304,4.9775,4.9901,5.0545,5.0765,5.0618,4.9831,4.8967,4.8159,4.7333,4.7113,4.6929,4.6104,4.5883,4.5883,4.5883,4.5883,4.5663,4.4892,4.4709,4.4452,4.3644,4.3515,4.3515,4.3515,4.3515,4.3515,4.3515,0.0,0.0,0.0,0.0,0.0,0.0,4.3515,4.3515,4.3515,0.0,0.0,0.0,0.0,0.0,0.0,0.0,0.0,4.1188,4.1768,0.0,4.3369,4.3403,4.4181,4.5669,4.5703,4.6075,4.6815,4.7564,4.7872,4.7939,4.868,4.9424,5.0067,5.0067,5.0507,5.1285,5.1995,5.2266,5.2401,5.3179,5.3484,5.3518,6.6439,6.7577,6.8495,6.8458,6.9119,6.9302,6.8238,6.8091,6.7981,6.7724,6.6769,6.5925,6.5375,6.4053,6.2768,0.0,6.086,6.0052,0.0,5.8437,5.7997,5.7997,5.7226,5.6675,5.6418,5.539,5.4179,5.2821,0.0,0.0,0.0,5.2821,5.2784,5.1993,5.2064,5.1694,5.0987,5.0285,4.9751,4.9282,4.8839,4.8646,4.8704,4.9131,4.9637,5.0091,5.0438,5.123,5.2075,5.1731,5.1242,5.0765,5.0508,4.9848,4.9003,4.8159,4.7939,4.7846,4.7609,4.7131,4.6709,4.6709,4.6324,4.5847,4.559,4.5516,4.5443,4.5186,4.4709,4.4305,4.4305,4.3864,4.3515,4.3515,4.3515,0.0,0.0,0.0,0.0,0.0,4.3515,4.3515,0.0,4.3515,0.0,0.0,0.0,0.0,0.0,0.0,0.0,0.0,4.2336,0.0,4.4079,4.4667,4.5416,4.6323,4.6436,4.6853,4.7597,4.8308,4.8646,4.8714,4.9424,4.9864,5.0135,5.0642,5.1285,5.1961,5.2198,5.2638,5.3145,5.3416,5.3518,5.3518,6.7504,6.8715,6.9633,6.9155,6.9486,6.9522,6.8715,6.8348,6.8017,6.7724,6.6733,6.5852,6.5375,6.3796,0.0,6.2108,6.1043,6.0199,5.9661,5.8621,5.7997,5.7997,5.7519,5.7116,5.6822,0.0,0.0,5.3665,5.3849,5.3445,5.2454,5.2659,5.2536,5.2018,5.1526,5.1086,5.0635,4.9919,4.9372,4.9018,4.9018,4.9018,4.9077,4.9751,5.0279,5.0753,5.1203,5.1982,5.274,5.2517,5.2123,5.161,5.0986,5.0472,4.9811,4.8636,4.8306,4.8306,4.8306,4.792,4.7553,4.7553,4.7168,4.6728,4.6434,4.6104,4.5883,4.5883,4.5516,4.5149,4.5149,4.4745,4.4305,4.4011,4.3938,4.3828,4.3551,0.0,0.0,0.0,0.0,0.0,0.0,4.4065,0.0,0.0,0.0,0.0,0.0,0.0,0.0,4.2016,4.32,0.0,4.5272,4.583,4.6442,4.7099,4.7733,4.8274,4.8748,4.9492,4.983,4.9864,5.0304,5.0676,5.0947,5.142,5.2063,5.2739,5.2739,5.3078,5.3518,5.3518,5.3518,5.3518,6.8898,7.011,0.0,0.0,7.1073,0.0,7.0036,6.9302,6.8568,6.7797,6.6366,6.5375,6.5301,6.387,6.2879,6.278,0.0,0.0,0.0,5.8841,5.7997,5.7997,5.7997,5.7666,5.6895,5.6895,5.6124,5.4583,5.3702,5.3277,5.3277,5.2509,5.2159,5.2112,5.077,5.0146,5.0033,4.9376,4.9015,4.9018,4.9018,4.9018,4.9077,4.9693,4.9947,5.0202,5.1544,5.2065,5.2206,5.2937,5.3188,5.2858,5.1353,5.0802,5.0398,4.8783,4.8306,4.8306,4.8306,4.8306,4.8306,4.8306,4.8306,4.8122,4.7333,4.6599,4.6067,4.6067,4.603,4.5993,4.5993,4.5957,4.5626,4.4856,4.4691,4.4415,4.3608,0.0,0.0,0.0,0.0,0.0,0.0,4.5002,4.5058,0.0,0.0,0.0,0.0,0.0,4.2117,4.3443,4.4316,4.5456,4.684,4.6883,4.7259,4.8041,4.9424,5.0135,5.0202,5.0913,5.1185,5.1185,5.1219,5.1691,5.23,5.2367,5.2841,5.3518,5.3518,5.3518,5.3518,5.3518,5.3518,5.3518,0.0,0.0,6.9486,6.9486,6.8972,6.8495,6.8274,6.8091,6.7907,6.7724,6.6843,6.5999,6.5375,6.4383,6.3503,6.2853,6.1337,6.0162,5.9515,5.8547,5.7997,5.7997,5.7997,5.7923,5.7703,5.7703,5.7226,5.6235,5.4803,5.4106,5.4106,5.3295,5.2937,5.2915,5.1994,5.1317,5.0796,5.0061,4.9462,4.9018,4.9018,4.9018,4.9049,4.9199,4.9551,5.0118,5.1034,5.1667,5.2206,5.2937,5.2784,5.2197,5.183,5.0875,4.9684,4.86,4.8306,4.8306,4.8306,4.8306,4.8306,4.8306,4.8306,4.8269,4.8086,4.7865,4.7719,4.7719,4.7241,4.6819,4.6819,4.6324,4.5626,4.4856,4.4691,4.4415,4.3608,4.3515,0.0,0.0,4.4599,4.4892,4.5296,4.5663,4.5772,0.0,0.0,0.0,0.0,4.466,4.4553,4.4316,4.5568,4.6669,4.7451,4.7593,4.8308,4.9593,4.9932,5.0405,5.0947,5.115,5.1185,5.1219,5.1792,5.2131,5.2367,5.2976,5.3348,5.3518,5.3518,5.3518,5.3518,5.3518,5.3518,5.3518,6.8898,6.9192,6.9449,6.9449,6.8788,6.8238,6.8238,6.7944,6.7687,6.7687,6.6659,6.5778,6.5375,6.4237,6.3319,6.2842,6.1667,6.0603,5.9795,5.9024,5.84,5.8033,5.7997,5.7997,5.7997,5.7997,5.7593,5.6822,5.5574,5.4766,5.4399,5.3624,5.3271,5.319,5.1797,5.1528,5.2113,5.0621,5.0184,5.0437,4.9747,4.9462,4.9402,4.9107,4.9226,4.9664,5.0716,5.1112,5.1368,5.2725,5.2688,5.204,5.2004,5.1389,5.0455,4.926,4.86,4.8306,4.8306,4.8306,4.8306,4.8306,4.8306,4.8306,4.8306,4.8306,4.8229,4.7955,4.7765,4.7569,4.7299,4.6814,4.6214,4.5369,4.4966,4.4415,4.3608,4.3515,0.0,4.4599,4.5351,4.5975,4.6434,4.7462,4.7782,4.6933,0.0,0.0,4.6144,4.7423,4.7403,4.5664,4.6718,4.7776,4.8802,4.9202,4.983,5.0608,5.0947,5.1319,5.1725,5.2097,5.2266,5.23,5.2672,5.2841,5.2875,5.3315,5.3518,5.3518,5.3518,5.3518,5.3517,5.3881,5.3783,5.3551,6.8898,6.9449,6.9926,6.9926,6.9265,6.8715,6.8715,6.8128,6.7687,6.7687,6.6402,6.5448,6.5301,6.3943,6.2952,6.278,6.2181,6.1374,6.0456,5.9625,5.8841,5.8033,5.7997,5.7997,5.7997,5.7997,5.7666,5.6969,5.6161,5.5427,5.4745,5.3849,5.3423,5.3207,5.1326,5.1481,5.3016,5.1115,5.1092,5.2192,5.0732,5.0187,5.012,4.9411,4.9077,4.9168,5.048,5.0608,5.0445,5.2394,5.2702,5.2272,5.2197,5.2087,5.172,5.0381,4.9334,4.8636,4.8379,4.8306,4.8343,4.8453,4.8489,4.8526,4.8636,4.8673,4.8536,4.8016,4.8211,4.8353,4.7798,4.7372,4.6819,4.603,4.5223,4.4415,4.3608,0.0,4.4011,4.4948,4.6379,4.7369,4.7626,4.9664,5.0195,4.8323,4.9879,4.9886,0.0,4.9819,4.9997,4.7357,4.8003,4.9018,5.0236,5.0913,5.1285,5.1386,5.1995,5.2367,5.2503,5.3179,5.3518,5.3518,5.3518,5.3518,5.3518,5.3518,5.3518,5.3518,5.3518,5.3518,5.3584,5.4338,5.4213,5.3754,6.8898,6.9009,6.9082,6.9082,6.8421,6.7871,6.7871,6.776,6.7687,6.7687,6.688,6.6035,6.5375,6.4457,6.3613,6.2853,6.2695,6.1998,6.0493,5.9625,5.8841,5.8033,5.7997,5.7997,5.7997,5.7997,5.7923,5.7813,5.7005,5.6565,5.6418,5.4935,5.3891,5.3279,5.2895,5.2269,5.1492,5.1701,5.1983,5.221,5.1299,5.1002,5.1026,5.0166,4.9492,4.9107,4.9861,5.05,5.106,5.197,5.2599,5.3023,5.2999,5.2564,5.194,5.1683,5.1059,5.0105,4.8673,4.8306,4.8489,4.9206,4.939,4.9574,5.0251,5.0398,5.0378,5.0297,4.9808,4.9351,4.9198,4.8028,4.6819,4.603,4.5223,4.4415,4.3608,0.0,4.5058,4.6562,4.7553,4.8673,5.0105,5.1206,5.1651,5.1331,5.1151,5.0903,5.054,5.0997,5.075,4.9625,5.0304,5.0779,5.1048,5.115,5.1522,5.2131,5.2266,5.2672,5.3315,5.345,5.3518,5.3518,5.3518,5.3518,5.3518,5.3518,5.3518,5.3518,5.3518,5.3518,5.3585,5.433,5.4534,5.4533,6.8238,6.8238,6.8238,6.8238,6.7944,6.7687,6.7687,6.7687,6.7687,6.7687,6.699,6.6366,6.5999,6.4824,6.3943,6.3539,6.3062,6.2328,6.1117,6.0309,5.9281,5.8033,5.7997,5.7997,5.7997,5.7997,5.7997,5.7997,5.7629,5.7226,5.6785,5.6051,5.5295,5.4567,5.3699,5.3659,5.4148,5.3213,5.3548,5.4568,5.2963,5.2325,5.2227,5.1024,5.0146,4.9605,5.0335,5.0554,5.0662,5.1741,5.2335,5.2702,5.3082,5.2968,5.2564,5.2123,5.1096,4.9958,4.9187,4.8673,4.8526,4.939,4.961,4.9831,5.0618,5.0802,5.0684,5.032,5.0252,4.9988,4.919,4.8331,4.7645,4.7241,4.581,0.0,0.0,4.5406,4.5957,4.7553,4.926,5.0765,5.1977,5.3225,5.377,5.3387,5.3093,5.2617,5.1829,5.259,5.2304,5.0742,5.142,5.1792,5.1792,5.2232,5.2604,5.2942,5.2942,5.3145,5.3518,5.3518,5.3518,5.3518,5.3518,5.3518,5.3518,5.3518,5.3518,5.3518,5.3518,5.3754,5.4195,5.4937,5.5178,5.5312,6.7687,6.7687,6.7687,6.7687,6.7687,6.7687,6.7687,6.7687,6.7687,6.7687,6.7136,6.6696,6.6512,6.5228,6.431,6.4127,6.3319,6.2475,6.163,6.086,5.9758,5.8327,5.8107,5.7997,5.7997,5.7997,5.7997,5.7997,5.7997,5.7666,5.7079,5.6895,5.6426,5.5685,5.4258,5.4659,5.6273,5.4437,5.4889,5.663,5.4418,5.3579,5.3424,5.1901,5.0876,5.0307,5.0689,5.0689,5.0635,5.1569,5.2089,5.245,5.3039,5.3203,5.3078,5.2454,5.1242,5.0124,4.9941,4.937,4.9077,4.9941,5.0161,5.0381,5.1169,5.1353,5.1151,5.0466,5.0613,5.0429,4.9149,4.8617,4.8294,4.8111,0.0,0.0,0.0,4.6817,4.7295,4.8733,5.0904,5.2674,5.3665,5.5023,5.5583,5.4844,5.4608,5.3949,5.2656,5.3649,5.3584,5.2045,5.2195,5.2401,5.257,5.3179,5.3518,5.3518,5.3518,5.3518,5.3518,5.3518,5.3518,5.3518,5.3518,5.3518,5.3518,5.3518,5.3518,5.3518,5.3687,5.4093,5.4703,5.5615,5.5961,5.6057,6.7687,6.7687,6.7687,6.7687,6.7687,6.7687,6.7687,6.7687,6.7687,6.7687,6.7677,6.732,6.6586,6.5742,6.4897,6.4163,6.3319,6.2475,6.163,6.086,6.0015,5.9148,5.84,5.7997,5.7997,5.7997,5.7997,5.7997,5.7997,5.796,5.7886,5.7152,5.6426,5.576,5.4842,5.4553,5.4736,5.4528,5.5353,5.6653,5.4979,5.4387,5.4302,5.2642,5.1593,5.0929,5.0307,5.0867,5.1862,5.1343,5.2054,5.3124,5.3167,5.3203,5.3167,5.3151,5.2491,5.1646,5.0912,5.0655,5.0802,5.161,5.1793,5.2013,5.2858,5.3041,5.2834,5.2085,5.1378,5.0674,4.9927,4.9102,4.8251,4.7493,0.0,0.0,4.6344,4.7972,4.9667,5.0579,5.2113,5.3739,5.5244,5.6198,5.6423,5.5699,5.4973,5.4261,5.3454,5.3489,5.3805,5.4337,5.303,5.2672,5.3416,5.3484,5.3518,5.3518,5.3518,5.3518,5.3518,5.3518,5.3518,5.3518,5.3518,5.3518,5.3518,5.3518,5.3518,5.3585,5.4262,5.4532,5.477,5.6193,5.6735,5.6799,6.7687,6.7687,6.7687,6.7687,6.7687,6.7687,6.7687,6.7687,6.7687,6.7687,6.7687,6.7577,6.7283,6.6072,6.5191,6.4861,6.3613,6.267,6.2365,6.1117,5.9832,5.851,5.8143,5.7997,5.7997,5.7997,5.7997,5.7997,5.7997,5.7997,5.7997,5.7703,5.7156,5.6469,5.6154,5.5718,5.5312,5.577,5.6317,5.6806,5.615,5.5623,5.5113,5.3959,5.277,5.1667,5.1419,5.1393,5.1494,5.1667,5.2065,5.2599,5.306,5.3203,5.3203,5.3203,5.3004,5.2674,5.238,5.1573,5.0986,5.1793,5.1977,5.2344,5.3665,5.3555,5.3271,5.3492,5.3265,5.2834,5.2078,5.2031,5.2061,5.177,0.0,5.0171,5.1134,5.1156,5.1564,5.2923,5.4488,5.5684,5.6271,5.7079,5.7024,5.5794,5.5431,5.4753,5.3534,5.3911,5.478,5.5984,5.4981,5.4143,5.3518,5.3518,5.3518,5.3518,5.3518,5.3518,5.3518,5.3518,5.3518,5.3518,5.3518,5.3518,5.3518,5.3518,5.3788,5.4194,5.4465,5.5141,5.6021,5.6596,5.7103,5.7509,6.7687,6.7687,6.7687,6.7687,6.7687,6.7687,6.7687,6.7687,6.7687,6.7687,6.7687,6.7687,6.7687,6.6256,6.5301,6.5301,6.3771,6.278,6.278,6.13,5.9685,5.807,5.7997,5.7997,5.7997,5.7997,5.7997,5.7997,5.7997,5.7997,5.7997,5.7997,5.7726,5.7252,5.6989,5.6721,5.6438,5.6747,5.7015,5.7229,5.6932,5.6455,5.5904,5.506,5.4121,5.3189,5.2942,5.2546,5.216,5.2402,5.247,5.2531,5.306,5.3203,5.3146,5.2937,5.3018,5.3134,5.2954,5.2268,5.1777,5.2553,5.2746,5.3091,5.4186,5.3981,5.3717,5.4008,5.4292,5.4214,5.3449,5.3927,5.4391,5.4099,5.3082,5.2721,5.3902,5.3521,5.3564,5.4706,5.6012,5.6804,5.6839,5.7326,5.7105,5.5808,5.5495,5.4787,5.3551,5.3979,5.473,5.5823,5.5495,5.4878,5.3848,5.3848,5.3848,5.3815,5.3618,5.3518,5.3518,5.3518,5.3518,5.3518,5.3518,5.3619,5.3856,5.3856,5.4296,5.4972,5.5209,5.5919,5.6833,5.707,5.7476,5.7881,6.7687,6.7687,6.7687,6.7687,6.7687,6.7687,6.7687,6.7687,6.7687,6.7687,6.7687,6.7687,6.7687,6.6256,6.5301,6.5301,6.3771,6.278,6.278,6.13,5.9685,5.807,5.7997,5.7997,5.7997,5.7997,5.7997,5.7997,5.7997,5.7997,5.7997,5.7997,5.7997,5.7973,5.7252,5.7327,5.795,5.7227,5.7327,5.7923,5.7152,5.6822,5.6712,5.5904,5.5633,5.5507,5.4834,5.4527,5.4276,5.3541,5.3254,5.3203,5.3203,5.3203,5.306,5.2312,5.2606,5.3048,5.2386,5.274,5.3478,5.4214,5.4418,5.4481,5.4517,5.4517,5.4306,5.3558,5.4041,5.4381,5.3638,5.4118,5.4327,5.3472,5.4606,5.5103,5.3532,5.4629,5.5665,5.5799,5.6403,5.6825,5.6891,5.6887,5.6563,5.5752,5.5029,5.4264,5.3551,5.3518,5.3484,5.3551,5.4232,5.4637,5.4637,5.4572,5.4606,5.4606,5.3848,5.3518,5.3518,5.3518,5.3518,5.3518,5.3518,5.3923,5.46,5.46,5.504,5.5784,5.6528,5.6799,5.69,5.7611,5.7881,5.7881,6.7687,6.7687,6.7687,6.7687,6.7687,6.7687,6.7687,6.7687,6.7687,6.7687,6.7687,6.7687,6.7687,6.6769,6.5925,6.5375,6.4347,6.3209,6.2034,6.152,6.0786,5.9722,5.8584,5.7997,5.7997,5.7997,5.7997,5.7997,5.7997,5.7997,5.7997,5.7997,5.7997,5.7997,5.7774,5.7498,5.7252,5.7522,5.7498,5.7241,5.7517,5.7299,5.6785,5.6528,5.6088,5.5574,5.5359,5.4984,5.4422,5.358,5.2978,5.2552,5.2502,5.2502,5.2559,5.2854,5.3095,5.322,5.3041,5.3553,5.4052,5.3697,5.3645,5.3807,5.4376,5.4056,5.3913,5.4835,5.4749,5.4643,5.4994,5.5667,5.6118,5.5866,5.615,5.6461,5.6593,5.6488,5.6483,5.6581,5.6765,5.6649,5.6114,5.6059,5.5752,5.4999,5.4232,5.3979,5.4264,5.4264,5.4513,5.5029,5.5262,5.5379,5.5379,5.4848,5.4606,5.4606,5.3848,5.3518,5.3518,5.3518,5.3518,5.3518,5.3518,5.3923,5.46,5.46,5.5344,5.6494,5.6697,5.7103,5.7577,5.7814,5.7881,5.7881,6.7687,6.7687,6.7687,6.7687,6.7687,6.7687,6.7687,6.7687,6.7687,6.7687,6.7687,6.7687,6.7687,6.6696,6.5852,6.5338,6.4237,6.3172,6.2144,6.1777,6.1374,6.0896,5.9648,5.8804,5.8474,5.8474,5.8327,5.7997,5.7997,5.7997,5.7997,5.7997,5.7997,5.7997,5.7997,5.775,5.7376,5.7797,5.775,5.7376,5.7821,5.7703,5.7262,5.7262,5.6969,5.6528,5.6528,5.6081,5.5376,5.4867,5.4207,5.3601,5.3551,5.3551,5.3573,5.3758,5.4011,5.4127,5.3549,5.394,5.4373,5.3565,5.3602,5.394,5.4431,5.4151,5.4084,5.5056,5.5099,5.5127,5.5625,5.6098,5.6421,5.6421,5.6402,5.6536,5.7007,5.6681,5.6386,5.6438,5.6421,5.6122,5.535,5.5262,5.4969,5.42,5.375,5.3684,5.4139,5.4136,5.4391,5.4822,5.5399,5.5688,5.5688,5.5552,5.5334,5.5026,5.4565,5.4363,5.4363,5.4363,5.4363,5.4363,5.4363,5.4803,5.548,5.548,5.6156,5.7239,5.7239,5.7509,5.7881,5.7881,5.7881,5.7881,6.7687,6.7687,6.7687,6.7687,6.7687,6.7687,6.7687,6.7687,6.7687,6.7687,6.7687,6.7687,6.7687,6.6402,6.5485,6.5411,6.3906,6.2853,6.278,6.2108,6.1704,6.1704,6.1006,6.0236,5.9404,5.9258,5.8804,5.7997,5.7997,5.7997,5.7997,5.7997,5.7997,5.7997,5.7997,5.7997,5.7997,5.7997,5.7997,5.7997,5.7997,5.7997,5.7997,5.7997,5.7997,5.7997,5.7997,5.7519,5.6873,5.6754,5.6122,5.544,5.5514,5.5491,5.54,5.487,5.5177,5.5408,5.404,5.4174,5.4544,5.395,5.4303,5.4769,5.4544,5.4575,5.4637,5.4665,5.5302,5.5823,5.5808,5.5787,5.5823,5.5808,5.5752,5.5752,5.5808,5.5808,5.578,5.5638,5.5667,5.5379,5.4606,5.4575,5.433,5.3653,5.3653,5.3686,5.3687,5.3721,5.3721,5.3721,5.4996,5.5726,5.5822,5.6452,5.6452,5.579,5.5724,5.5681,5.5681,5.5681,5.5681,5.5681,5.5681,5.6122,5.6799,5.6799,5.7239,5.7881,5.7881,5.7881,5.7881,5.7881,5.7881,5.7918,6.7797,6.7687,6.7687,6.7687,6.7687,6.7687,6.7687,6.7687,6.7687,6.7687,6.7687,6.7687,6.7687,6.7393,6.6916,6.6292,6.4751,6.3539,6.2842,6.2658,6.2548,6.2548,6.234,6.1924,6.108,5.9832,5.8804,5.7997,5.7997,5.7997,5.7997,5.7997,5.7997,5.7997,5.7997,5.7997,5.7997,5.7997,5.7997,5.7997,5.7997,5.7997,5.7997,5.7997,5.7997,5.7997,5.7997,5.7886,5.7561,5.6418,5.5105,5.406,5.4642,5.4821,5.4901,5.5328,5.5557,5.5644,5.5305,5.5325,5.5578,5.6029,5.6288,5.5939,5.4181,5.4203,5.4757,5.535,5.6098,5.6631,5.6644,5.6641,5.6659,5.6635,5.6087,5.592,5.6563,5.6642,5.6177,5.4999,5.535,5.5173,5.3848,5.4264,5.4537,5.4364,5.4899,5.5205,5.5244,5.5243,5.5243,5.5243,5.5518,5.5995,5.6648,5.6748,5.6714,5.6552,5.5996,5.5681,5.5681,5.5681,5.5681,5.5681,5.5681,5.6122,5.6799,5.6799,5.7239,5.7881,5.7881,5.7881,5.7881,5.7881,5.7881,5.7991,6.8348,6.7944,6.7687,6.7687,6.7687,6.7687,6.7687,6.7687,6.7687,6.7687,6.7687,6.7687,6.7687,6.7357,6.6806,6.5999,6.5154,6.431,6.3466,6.3429,6.3246,6.2817,6.278,6.2438,6.163,6.0786,5.9758,5.8584,5.8584,5.84,5.7997,5.7997,5.7997,5.7997,5.7997,5.7997,5.7997,5.7997,5.7997,5.7997,5.7997,5.7997,5.7997,5.7997,5.7997,5.7997,5.7997,5.7997,5.7877,5.7096,5.6309,5.571,5.6082,5.6227,5.6299,5.668,5.6789,5.6711,5.6367,5.6536,5.6874,5.6894,5.7198,5.7205,5.6005,5.6024,5.6415,5.6828,5.7233,5.7375,5.6985,5.6911,5.6781,5.64,5.5962,5.5838,5.6269,5.633,5.6024,5.5235,5.546,5.5396,5.4601,5.4906,5.5143,5.5108,5.5485,5.5723,5.5683,5.5681,5.5892,5.6268,5.6611,5.7185,5.8047,5.8372,5.8282,5.79,5.75,5.7121,5.6731,5.7156,5.7121,5.6765,5.6765,5.6968,5.7306,5.7306,5.7543,5.7881,5.7881,5.8137,5.8458,5.8029,5.8118,5.853,6.8935,6.8238,6.7687,6.7687,6.7797,6.7834,6.7724,6.7797,6.7834,6.7724,6.7687,6.7687,6.7687,6.71,6.6366,6.5595,6.5521,6.5118,6.4163,6.409,6.3723,6.2842,6.278,6.2511,6.1814,6.1814,6.097,5.9184,5.9184,5.8804,5.7997,5.7997,5.7997,5.7997,5.7997,5.7997,5.7997,5.7997,5.7997,5.7997,5.7997,5.7997,5.7997,5.7997,5.7997,5.7997,5.7997,5.7997,5.7997,5.7997,5.7927,5.7797,5.7797,5.7726,5.7631,5.7777,5.7813,5.7717,5.7376,5.7778,5.8151,5.7647,5.8039,5.8579,5.8603,5.8397,5.8184,5.8184,5.8261,5.8088,5.7241,5.7091,5.6869,5.6201,5.5857,5.5751,5.5892,5.5892,5.5822,5.5716,5.5681,5.5681,5.5681,5.5788,5.589,5.5886,5.5991,5.606,5.6089,5.6195,5.6577,5.724,5.8027,5.8822,5.9681,6.017,6.0023,5.9311,5.9311,5.8806,5.7918,5.8599,5.8529,5.7881,5.7881,5.7881,5.7881,5.7881,5.7881,5.7881,5.7881,5.8317,5.8841,5.8273,5.8668,5.9494,6.9045,6.8238,6.7687,6.7687,6.8274,6.8495,6.7797,6.8274,6.8495,6.7797,6.7687,6.7687,6.7687,6.7577,6.721,6.6402,6.6329,6.5705,6.42,6.409,6.3723,6.2842,6.278,6.2743,6.2658,6.2658,6.1496,5.9184,5.9184,5.8804,5.7997,5.7997,5.7997,5.7997,5.7997,5.7997,5.7997,5.7997,5.7997,5.7997,5.7997,5.7997,5.7997,5.7997,5.7997,5.7997,5.7997,5.7997,5.7997,5.7997,5.7607,5.704,5.704,5.6554,5.6146,5.6822,5.7071,5.7326,5.8556,5.8979,5.9168,5.9771,6.0032,6.008,6.0088,5.9051,5.8096,5.8096,5.8627,5.8814,5.7993,5.7828,5.7816,5.7689,5.6568,5.5892,5.6567,5.6665,5.6435,5.5786,5.5681,5.5681,5.5681,5.6302,5.6642,5.6667,5.7261,5.7569,5.7579,5.8255,5.8699,5.8799,5.9622,6.0468,6.1284,6.0695,6.0335,6.0211,6.0211,5.9412,5.7881,5.8027,5.8027,5.7881,5.7881,5.7881,5.7881,5.7881,5.7881,5.7881,5.7881,5.7954,5.8131,5.8663,5.982,6.1085,7.033,6.9596,6.9045,6.9045,6.9339,6.9302,6.8495,6.8678,6.8605,6.7797,6.7687,6.7687,6.7687,6.7687,6.754,6.7173,6.7173,6.6659,6.5521,6.5448,6.4861,6.3576,6.3539,6.3319,6.278,6.278,6.2071,6.0529,6.0529,5.9905,5.8694,5.8694,5.8437,5.7997,5.7997,5.7997,5.7997,5.7997,5.7997,5.7997,5.7997,5.8253,5.8694,5.8694,5.8951,5.9281,5.8841,5.84,5.7997,5.7997,5.7774,5.7498,5.7498,5.7592,5.7702,5.8063,5.8497,5.9009,5.9681,6.0194,6.0632,6.096,6.1397,6.1614,6.1157,6.0547,5.9902,5.9496,5.9623,5.9611,5.879,5.9001,5.9045,5.8077,5.8175,5.8272,5.8106,5.8073,5.7773,5.7008,5.6934,5.6934,5.6934,5.7221,5.7394,5.741,5.7732,5.8116,5.8564,5.8909,5.9311,5.98,6.018,6.079,6.1604,6.1229,6.1306,6.1735,6.0823,5.9543,5.7918,5.8388,5.8317,5.7881,5.7881,5.7881,5.7881,5.7881,5.7881,5.7881,5.7881,5.7881,5.8162,6.0289,6.1224,6.1606]}]]